     2.10           OBSERVATION DATA    G (GPS)             RINEX VERSION / TYPE
teqc 2005May6 SOPAC 20050707 00:36:07UTC                    PGM / RUN BY / DATE
Linux 2.4.20-8|Pentium IV|gcc|Linux|486/DX+                 COMMENT
BIT 2 OF LLI FLAGS DATA COLLECTED UNDER A/S CONDITION       COMMENT
HPGN D CA 01 AK                                             MARKER NAME
01AK                                                        MARKER NUMBER
Paul Dunham                                                 OBSERVER / AGENCY
0220223934 TRIMBLE 4700 1.30                                REC # / TYPE / VERS
0220203928 TRM33429.00+GP NONE                              ANT # / TYPE
 -2685505.0000 -4195564.0000  3970354.0000                  APPROX POSITION XYZ
        2.0000        0.0000        0.0000                  ANTENNA: DELTA H/E/N
     1     1                                                WAVELENGTH FACT L1/2
     6    L1    L2    C1    P2    P1    D1                  # / TYPES OF OBSERV
    15.0000                                                 INTERVAL
Northern California Height Modernization 2004               COMMENT
                                                            COMMENT
SOPAC - Scripps Orbit and Permanent Array Center            COMMENT
IGPP - Institute of Geophysics and Planetary Physics        COMMENT
SIO - Scripps Institution of Oceanography                   COMMENT
UCSD - University of California, San Diego                  COMMENT
                                                            COMMENT
email: archive@gpsmail.ucsd.edu                             COMMENT
ftp://garner.ucsd.edu                                       COMMENT
http://sopac.ucsd.edu                                       COMMENT
                                                            COMMENT
                                                            COMMENT
Approximate Lat, Lon : 38.744, -122.623                     COMMENT
                                                            COMMENT
SNR is mapped to RINEX snr flag value [0-9]                 COMMENT
L1 & L2: 2-19 dBHz = 1, 20-27 dBHz = 2, 28-31 dBHz = 3      COMMENT
32-35 dBHz = 4, 36-38 dBHz = 5, 39-41 dBHz = 6              COMMENT
42-44 dBHz = 7, 45-48 dBHz = 8, >= 49 dBHz = 9              COMMENT
  2004     9    13    20    58    0.0000000     GPS         TIME OF FIRST OBS
                                                            END OF HEADER
 04  9 13 20 58  0.0000000  0  6G 3G 8G13G19G23G27
    -12531.30158    -11367.22153  23170612.9304   23170612.4304
       273.7664
    -91195.84059    -56250.64155  22614007.3054   22614006.1564
      2051.3444
     18647.55459      6226.80256  20370738.7894   20370735.6214
      -413.0004
    -93898.56157    -57780.04353  23801679.5864   23801679.2194
      2109.5944
    122592.17659     65714.23655  21915828.1334   21915824.1724
     -2736.8754
    -36938.00659    -25750.93856  21454440.7734   21454438.1524
       830.6094
 04  9 13 20 58 15.0000000  0  6G 3G 8G13G19G23G27
    -16611.12848    -14546.31243  23169836.2424   23169836.0434
       269.8754
   -121983.34849    -80240.89745  22608148.4924   22608147.5944
      2053.4844
     24859.22149     11067.03746  20371921.0084   20371917.3094
      -415.4694
   -125549.70848    -82443.21143  23795656.5554   23795655.5044
      2110.2504
    163649.03449     97706.54245  21923641.1174   21923636.8404
     -2737.5944
    -49415.46149    -35473.63446  21452066.3524   21452064.1604
       832.8594
 04  9 13 20 58 30.0000000  0  6G 3G 8G13G19G23G27
    -20622.34748    -17671.92343  23169073.4384   23169073.0044
       264.9064
   -152794.49549   -104249.56645  22602284.7734   22602284.3984
      2054.6414
     31116.87549     15943.11546  20373111.7584   20373107.9384
      -418.9224
   -157203.04448   -107108.08243  23789633.5314   23789631.8714
      2109.9694
    204724.68949    129713.50945  21931457.5474   21931453.7854
     -2739.2664
    -61918.03949    -45215.90646  21449687.4304   21449684.9064
       834.1094
 04  9 13 20 58 45.0000000  0  6G 3G 8G13G19G23G27
    -24548.75948    -20731.43843  23168325.7584   23168326.2234
       258.8284
   -183613.20749   -128264.12745  22596420.5394   22596419.8754
      2054.7504
     37436.85749     20867.76046  20374314.1564   20374310.6884
      -423.6254
   -188842.13448   -131761.89843  23783613.0474   23783610.4614
      2108.6254
    245835.25849    161747.67545  21939279.7584   21939276.3134
     -2741.9844
    -74429.70549    -54965.25846  21447306.3984   21447303.9844
       834.3134
 04  9 13 20 59  0.0000000  0  6G 3G 8G13G19G23G27
    -28376.58348    -23714.16143  23167598.3444   23167597.6414
       251.4064
   -214426.06049   -152274.15345  22590557.0864   22590556.1484
      2053.5784
     43832.64549     25851.47146  20375531.2974   20375527.5234
      -429.3124
   -220453.14548   -156393.77343  23777597.3364   23777595.7664
      2106.0314
    286994.01149    193819.39545  21947112.9614   21947108.5124
     -2745.9224
    -86936.93149    -64711.14946  21444926.2734   21444923.9614
       833.2974
 04  9 13 20 59 15.0000000  0  6G 3G 8G13G19G23G27
    -32093.32248    -26610.30743  23166890.0784   23166889.9694
       243.9224
   -245220.74848   -176269.98145  22584697.2274   22584696.7274
      2052.3134
     50316.76249     30904.01246  20376765.4774   20376761.5004
      -435.3284
   -252023.36547   -180993.87843  23771588.9384   23771588.4494
      2103.1564
    328213.22849    225938.22045  21954956.3054   21954952.7074
     -2750.0314
    -99427.43249    -74443.99647  21442549.3134   21442547.2154
       832.0164
 04  9 13 20 59 30.0000000  0  6G 3G 8G13G19G23G27
    -35698.13548    -29419.23743  23166203.8674   23166203.9654
       236.4224
   -275996.45548   -200251.03344  22578840.4064   22578839.1604
      2050.7814
     56889.97849     36025.98546  20378016.3204   20378012.5354
      -441.4064
   -283551.81447   -205561.43443  23765589.5004   23765588.7424
      2100.1884
    369493.39849    258104.54245  21962812.0554   21962807.9064
     -2754.2814
   -111900.60749    -84163.34746  21440175.7424   21440173.4224
       830.8134
 04  9 13 20 59 45.0000000  0  6G 3G 8G13G19G23G27
    -39186.69147    -32137.56143  23165540.3204   23165540.3524
       228.5784
   -306748.95149   -224214.01245  22572988.7194   22572987.9414
      2049.1884
     63556.53849     41220.68647  20379284.9064   20379281.2114
      -447.6874
   -315033.85147   -230092.83043  23759598.1804   23759597.7344
      2097.1564
    410838.61649    290321.54045  21970679.6094   21970675.3054
     -2758.6564
   -124352.19349    -93865.88347  21437806.9614   21437804.1524
       829.2344
 04  9 13 21  0  0.0000000  0  6G 3G 8G13G19G23G27
    -42553.05648    -34760.66243  23164900.0084   23164899.5044
       220.2344
   -337472.48849   -248154.40845  22567142.2504   22567141.3204
      2047.0944
     70322.33349     46492.72947  20380572.2194   20380569.1764
      -454.4064
   -346463.25748   -254583.18543  23753617.3674   23753616.0664
      2093.3914
    452254.74649    322593.81545  21978561.0084   21978556.5234
     -2763.5474
   -136776.29249   -103546.99146  21435442.2974   21435439.9534
       827.2974
 04  9 13 21  0 15.0000000  0  6G 3G 8G13G19G23G27
    -45796.13148    -37287.72343  23164282.9534   23164282.1174
       212.2344
   -368165.99249   -272071.39745  22561301.4304   22561299.8914
      2045.3594
     77188.53249     51842.99146  20381878.7734   20381875.5984
      -460.9224
   -377838.68748   -279031.51043  23747646.9144   23747646.0044
      2090.1094
    493742.57849    354921.94845  21986455.8754   21986451.9414
     -2768.0784
   -149172.21949   -113206.14846  21433083.6094   21433081.0234
       825.6254
 04  9 13 21  0 30.0000000  0  6G 3G 8G13G19G23G27
    -48914.90247    -39717.94743  23163689.4774   23163689.1724
       203.6884
   -398828.71748   -295964.42144  22555466.5944   22555465.1484
      2043.0634
     84155.93649     57272.13546  20383204.8364   20383201.3834
      -467.9534
   -409159.00148   -303436.88643  23741687.7424   23741686.4694
      2086.0944
    535302.62249    387306.35445  21994364.8364   21994360.9614
     -2773.2504
   -161538.96949   -122842.59146  21430730.2034   21430727.3364
       823.4224
 04  9 13 21  0 45.0000000  0  6G 3G 8G13G19G23G27
    -51907.51148    -42049.80743  23163120.2504   23163120.1214
       195.4694
   -429458.92749   -319832.08944  22549638.0084   22549636.1764
      2041.0634
     91226.51549     62781.66046  20384549.9774   20384546.6054
      -474.6724
   -440422.07948   -327797.66443  23735737.0004   23735737.0704
      2082.4064
    576936.64749    419748.42245  22002287.1804   22002283.2274
     -2777.9064
   -173874.91049   -132455.00446  21428382.6564   21428379.6484
       821.4844
 04  9 13 21  1  0.0000000  0  6G 3G 8G13G19G23G27
    -54772.70448    -44282.38943  23162574.3674   23162574.6604
       186.6414
   -460055.29049   -343673.38644  22543815.3204   22543813.8014
      2038.4844
     98401.38449     68372.45346  20385915.6564   20385911.7304
      -481.9064
   -471626.53748   -352112.76143  23729799.9304   23729799.0984
      2078.2034
    618645.59349    452248.85845  22010223.9924   22010219.6804
     -2783.2504
   -186178.86749   -142042.49846  21426041.4454   21426038.3754
       819.0944
 04  9 13 21  1 15.0000000  0  6G 3G 8G13G19G23G27
    -57507.77748    -46413.58143  23162053.9304   23162053.4924
       177.9534
   -490615.32049   -367486.37344  22537999.9774   22537999.0744
      2036.0164
    105683.25649     74046.62746  20387301.4224   20387297.6884
      -489.0944
   -502769.46848   -376379.91843  23723873.1174   23723872.5904
      2074.1094
    660432.00949    484809.66445  22018175.8134   22018171.4654
     -2788.4374
   -198448.32149   -151603.11646  21423706.3134   21423704.1564
       816.7344
 04  9 13 21  1 30.0000000  0  6G 3G 8G13G19G23G27
    -60114.30747    -48444.63843  23161558.1254   23161557.4494
       169.7344
   -521140.73749   -391272.39945  22532190.6644   22532190.0274
      2034.1724
    113070.56049     79802.95946  20388706.8754   20388703.2664
      -495.7034
   -533852.26648   -400600.18243  23717958.3364   23717957.3054
      2070.4694
    702294.00349    517429.34645  22026141.7974   22026138.0204
     -2793.0784
   -210685.12049   -161138.27146  21421378.2974   21421375.7274
       814.9384
 04  9 13 21  1 45.0000000  0  6G 3G 8G13G19G23G27
    -62594.35247    -50377.11643  23161085.8984   23161085.3404
       160.8444
   -551633.77549   -415033.18645  22526388.7894   22526387.7154
      2031.5474
    120561.26049     85639.85346  20390132.5784   20390128.9184
      -503.0314
   -564876.57948   -424774.89743  23712054.9224   23712053.4064
      2066.0944
    744229.31249    550106.16545  22034121.9534   22034117.5314
     -2798.3284
   -222891.31549   -170649.59746  21419055.1254   21419052.8134
       812.4844
 04  9 13 21  2  0.0000000  0  6G 3G 8G13G19G23G27
    -64944.99648    -52208.75943  23160638.6884   23160638.3484
       152.6094
   -582091.53649   -438766.49545  22520593.0314   22520591.3054
      2029.6414
    128158.12149     91559.49046  20391578.2894   20391575.1724
      -509.7664
   -595839.22347   -448901.54443  23706162.1414   23706161.4224
      2062.3134
    786240.57949    582842.17845  22042116.5864   22042112.3134
     -2803.0474
   -235064.27649   -180135.00446  21416738.4844   21416736.2194
       810.6414
 04  9 13 21  2 15.0000000  0  6G 3G 8G13G19G23G27
    -67169.44947    -53942.08743  23160215.2734   23160215.1174
       144.0314
   -612517.22448   -462474.79645  22514802.3754   22514801.6024
      2027.2814
    135857.85849     97559.26946  20393043.1564   20393039.8404
      -516.7974
   -626743.29246   -472982.58243  23700281.5084   23700280.8634
      2058.2194
    828324.32749    615634.66545  22050124.7894   22050120.6844
     -2808.0784
   -247207.31049   -189597.10746  21414427.7974   21414425.3014
       808.5004
 04  9 13 21  2 30.0000000  0  6G 3G 8G13G19G23G27
    -69263.64447    -55573.89743  23159816.8444   23159816.4574
       135.1564
   -642907.26948   -486155.33545  22509019.3674   22509018.6254
      2024.7664
    143664.64249    103642.47246  20394529.0004   20394525.5864
      -524.0944
   -657584.49147   -497014.61743  23694413.7734   23694411.8244
      2053.8284
    870484.40549    648486.62645  22058147.6954   22058143.1454
     -2813.2344
   -259316.47249   -199032.80746  21412123.5784   21412121.5004
       806.0944
 04  9 13 21  2 45.0000000  0  6G 3G 8G13G19G23G27
    -71227.69147    -57104.31543  23159443.2894   23159442.9804
       126.5164
   -673261.37448   -509807.86145  22503243.8204   22503242.5744
      2022.3444
    151578.24949    109808.92146  20396034.9144   20396031.2544
      -531.2194
   -688362.60146   -520997.49843  23688555.6334   23688554.6804
      2049.7664
    912720.43349    681397.78445  22066185.0164   22066181.2974
     -2818.3444
   -271391.99049   -208442.29446  21409825.5474   21409823.2424
       803.9064
 04  9 13 21  3  0.0000000  0  6G 3G 8G13G19G23G27
    -73061.22148    -58533.02243  23159093.7894   23159093.8754
       117.8444
   -703579.50448   -533432.33845  22497473.7814   22497472.8524
      2019.9844
    159598.99849    116058.84146  20397561.0784   20397557.2274
      -538.2814
   -719077.11147   -544930.81643  23682711.9224   23682710.1094
      2045.4534
    955032.52549    714368.19745  22074236.9614   22074233.0394
     -2823.3444
   -283433.72949   -217825.47346  21407533.7974   21407531.5474
       801.6564
 04  9 13 21  3 15.0000000  0  6G 3G 8G13G19G23G27
    -74762.97848    -59859.03843  23158770.1174   23158769.5004
       109.0784
   -733860.46249   -557027.88445  22491711.9844   22491710.3634
      2017.5634
    167728.07249    122393.17946  20399108.2894   20399103.8444
      -545.4534
   -749726.50447   -568813.40243  23676877.9844   23676877.4694
      2041.2194
    997421.59849    747398.60645  22082303.3674   22082299.5124
     -2828.5164
   -295440.49349   -227181.38946  21405249.3754   21405247.0274
       799.3754
 04  9 13 21  3 30.0000000  0  6G 3G 8G13G19G23G27
    -76334.36148    -61083.50043  23158471.2584   23158469.9924
       100.3594
   -764105.91149   -580595.72945  22485955.6094   22485955.3244
      2015.0944
    175964.07449    128810.83846  20400675.4144   20400672.1914
      -552.7194
   -780312.09848   -592646.27443  23671058.2424   23671056.8484
      2036.8284
   1039886.06249    780487.74845  22090384.1254   22090380.0084
     -2833.5474
   -307413.96149   -236511.35746  21402970.7344   21402968.4024
       797.0634
 04  9 13 21  3 45.0000000  0  6G 3G 8G13G19G23G27
    -77774.22247    -62205.46943  23158196.8524   23158196.8054
        91.5004
   -794314.90449   -604135.18945  22480207.1564   22480206.1724
      2012.6254
    184308.15349    135312.70046  20402263.4454   20402259.6884
      -560.0004
   -810832.35447   -616428.22043  23665249.7974   23665249.2304
      2032.4224
   1082426.91349    813636.42245  22098479.4384   22098475.3364
     -2838.7194
   -319353.02149   -245814.52146  21400698.7734   21400696.6414
       794.6884
 04  9 13 21  4  0.0000000  0  6G 3G 8G13G19G23G27
    -79084.31148    -63226.29543  23157947.8674   23157948.0594
        83.3134
   -824489.06449   -627647.49345  22474466.0314   22474464.2344
      2010.7034
    192758.62949    141897.48846  20403871.1254   20403868.0594
      -566.6414
   -841288.60347   -640160.33743  23659455.3984   23659453.4844
      2028.5784
   1125042.20249    846843.10545  22106589.2194   22106584.7384
     -2843.1724
   -331259.46249   -255092.26046  21398433.3284   21398430.6804
       792.9534
 04  9 13 21  4 15.0000000  0  6G 3G 8G13G19G23G27
    -80264.55847    -64145.95743  23157723.6024   23157723.0354
        73.8754
   -854628.50349   -651132.75945  22468730.6334   22468728.6134
      2007.7034
    201315.36349    148565.05846  20405499.5474   20405495.7544
      -574.4534
   -871680.77747   -663842.49343  23653671.2664   23653669.8914
      2023.5634
   1167731.60449    880107.51845  22114712.3914   22114708.1954
     -2848.8914
   -343133.45749   -264344.72246  21396173.5314   21396171.6764
       790.0474
 04  9 13 21  4 30.0000000  0  6G 3G 8G13G19G23G27
    -81307.52947    -64958.65843  23157524.6954   23157524.6174
        65.2034
   -884725.82549   -674585.18145  22463002.9844   22463001.7384
      2005.2814
    209985.83149    155321.27746  20407149.1024   20407145.7664
      -581.6724
   -902001.09848   -687468.64643  23647902.0704   23647900.7814
      2018.9844
   1210502.30949    913435.31145  22122851.0944   22122847.0984
     -2853.9374
   -354967.78049   -273566.27147  21393921.5944   21393919.4884
       787.8594
 04  9 13 21  4 45.0010000  0  6G 3G 8G13G19G23G27
    -82215.36847    -65666.05943  23157352.0604   23157351.9504
        55.8284
   -914785.32449   -698008.15845  22457282.8414   22457281.8884
      2002.3134
    218768.46049    162164.87346  20408821.0604   20408817.1464
      -589.3444
   -932253.54047   -711041.92343  23642143.9974   23642143.2434
      2014.2974
   1253354.94749    946826.92645  22131005.6924   22131002.0484
     -2859.4224
   -366765.36849   -282759.19147  21391676.7394   21391673.9464
       785.0474
 04  9 13 21  5  0.0010000  0  6G 3G 8G13G19G23G27
    -82987.47147    -66267.71943  23157205.2314   23157204.9034
        47.1564
   -944802.51148   -721398.13845  22451570.4974   22451569.6264
      1999.9534
    227662.61649    169095.38247  20410513.6774   20410509.0754
      -596.5314
   -962433.26547   -734558.53943  23636401.6304   23636400.4314
      2009.7664
   1296283.98149    980278.07745  22139175.2394   22139171.0634
     -2864.4374
   -378524.32349   -291922.01846  21389439.0914   21389436.7394
       782.8444
 04  9 13 21  5 15.0010000  0  6G 3G 8G13G19G23G27
    -83622.29147    -66762.35043  23157084.7164   23157083.5054
        37.4224
   -974777.83949   -744755.52245  22445867.0054   22445865.5794
      1996.6564
    236670.36949    176114.40347  20412227.6384   20412223.5054
      -604.6254
   -992540.45547   -758018.63343  23630671.8024   23630671.3334
      2004.3594
   1339293.65249   1013792.06446  22147359.2394   22147355.9974
     -2870.2974
   -390243.82449   -301054.08246  21387208.9194   21387206.5524
       779.6094
 04  9 13 21  5 30.0010000  0  6G 3G 8G13G19G23G27
    -84116.01747    -67147.07243  23156990.1224   23156989.2674
        28.3754
  -1004707.50448   -768077.31945  22440171.3334   22440169.4274
      1993.9534
    245795.57849    183224.94347  20413963.6534   20413960.0014
      -612.1254
  -1022571.08547   -781419.04743  23624957.7244   23624956.5564
      1999.6564
   1382387.50749   1047371.64445  22155559.9114   22155555.9704
     -2875.5314
   -401920.30549   -310152.65047  21384986.7714   21384984.0564
       777.2034
 04  9 13 21  5 45.0010000  0  6G 3G 8G13G19G23G27
    -84473.34347    -67425.50443  23156922.3804   23156921.8924
        19.1254
  -1034596.51549   -791367.43645  22434483.1854   22434482.0404
      1991.1254
    255033.36849    190423.21646  20415721.9424   20415718.2514
      -619.7664
  -1052529.61248   -804763.33143  23619256.3804   23619255.4504
      1994.6254
   1425560.63849   1081012.98845  22163775.5994   22163771.5834
     -2880.9694
   -413558.55649   -319221.41746  21382772.0054   21382769.5174
       774.4064
 04  9 13 21  6  0.0010000  0  6G 3G 8G13G19G23G27
    -84693.81948    -67597.29043  23156880.0444   23156880.0954
         9.7974
  -1064444.27949   -814625.42245  22428803.7784   22428802.1734
      1988.0944
    264384.46049    197709.77446  20417501.3414   20417497.7084
      -627.5314
  -1082415.20847   -828050.74744  23613569.2084   23613568.7634
      1989.5784
   1468813.28149   1114716.30145  22172006.3564   22172002.6884
     -2886.4694
   -425158.25549   -328260.12846  21380564.7944   21380562.0444
       771.6564
 04  9 13 21  6 15.0010000  0  6G 3G 8G13G19G23G27
    -84773.17848    -67659.12243  23156864.7164   23156864.6774
         0.2664
  -1094246.77748   -837848.12245  22423132.3104   22423131.2744
      1985.0314
    273852.90549    205087.76946  20419303.0364   20419298.9894
      -635.5004
  -1112223.45748   -851277.92343  23607897.4894   23607896.0094
      1984.2504
   1512149.32349   1148484.59645  22180253.5524   22180248.7314
     -2892.1564
   -436715.25049   -337265.57646  21378365.6534   21378363.2434
       768.7814
 04  9 13 21  6 30.0010000  0  6G 3G 8G13G19G23G27
    -84710.07948    -67609.97743  23156877.4354   23156876.6264
        -8.8444
  -1124002.67049   -861034.50445  22417470.1774   22417468.9314
      1982.2344
    283440.01249    212558.25146  20421127.2244   20421123.2784
      -643.0164
  -1141952.79347   -874443.56343  23602239.2474   23602238.1964
      1979.3594
   1555569.97249   1182318.82145  22188515.3174   22188511.5874
     -2897.4224
   -448228.36249   -346236.83546  21376174.3964   21376171.9704
       766.2034
 04  9 13 21  6 45.0010000  0  6G 3G 8G13G19G23G27
    -84506.19548    -67451.07443  23156916.1224   23156915.8764
       -18.5624
  -1153713.94949   -884186.12245  22411816.4194   22411814.9504
      1979.2194
    293144.18949    220119.94146  20422974.2634   20422970.3064
      -650.9224
  -1171604.72648   -897548.93143  23596596.9894   23596595.5364
      1974.0944
   1599073.24949   1216217.42945  22196794.2554   22196790.1034
     -2903.0944
   -459699.37949   -355175.28146  21373991.7634   21373989.5134
       763.2194
 04  9 13 21  7  0.0010000  0  6G 3G 8G13G19G23G27
    -84160.61048    -67181.80043  23156981.9744   23156981.3134
       -27.5474
  -1183379.74749   -907302.31645  22406170.4034   22406169.4154
      1976.3914
    302966.27949    227773.51446  20424842.9744   20424838.8214
      -658.5314
  -1201177.89248   -920592.90143  23590969.8174   23590968.5604
      1969.0474
   1642660.02949   1250181.10545  22205088.6304   22205084.4504
     -2908.3124
   -471127.54649   -364080.34546  21371816.8964   21371814.2824
       760.6564
 04  9 13 21  7 15.0010000  0  6G 3G 8G13G19G23G27
    -83673.62948    -66802.35643  23157075.0834   23157073.8174
       -37.1094
  -1213000.25249   -930383.21345  22400534.2244   22400532.9704
      1973.1884
    312905.94049    235518.69446  20426734.7784   20426731.4034
      -666.5314
  -1230672.38748   -943575.57843  23585356.9194   23585355.0874
      1963.7194
   1686329.69949   1284209.36745  22213398.5364   22213395.0714
     -2914.0164
   -482513.18649   -372952.26846  21369650.2864   21369647.5014
       757.6094
 04  9 13 21  7 30.0010000  0  6G 3G 8G13G19G23G27
    -83044.73848    -66312.28143  23157193.8724   23157193.9894
       -46.5314
  -1242575.16449   -953428.57245  22394906.4034   22394904.8884
      1970.1724
    322963.52249    243355.76446  20428648.1304   20428644.2634
      -674.4224
  -1260087.62348   -966496.48643  23579759.4194   23579757.6494
      1958.3594
   1730082.32849   1318302.28945  22221724.4584   22221720.2634
     -2919.6094
   -493856.09549   -381790.89247  21367492.3254   21367489.7634
       754.7974
 04  9 13 21  7 45.0010000  0  6G 3G 8G13G19G23G27
    -82272.40448    -65710.45543  23157341.3024   23157340.9974
       -56.2664
  -1272102.85948   -976437.14145  22389286.9584   22389285.7944
      1967.0314
    333140.63049    251285.97446  20430585.2714   20430581.1814
      -682.4064
  -1289421.75448   -989354.19743  23574177.4504   23574175.4854
      1952.9694
   1773919.40349   1352460.99345  22230066.8174   22230062.3174
     -2925.2664
   -505154.68549   -390594.98347  21365342.3414   21365339.7594
       751.8134
 04  9 13 21  8  0.0010000  0  6G 3G 8G13G19G23G27
    -81356.92647    -64997.08243  23157515.5604   23157514.7784
       -65.5314
  -1301583.92648   -999409.36345  22383677.3414   22383676.3064
      1964.1564
    343437.03349    259309.14146  20432544.5284   20432540.4974
      -690.1414
  -1318674.72848  -1012148.66843  23568610.3104   23568608.7164
      1947.7974
   1817840.29949   1386685.03445  22238424.1694   22238420.3684
     -2930.6414
   -516409.28849   -399364.80047  21363200.4744   21363197.8884
       749.0944
 04  9 13 21  8 15.0010000  0  6G 3G 8G13G19G23G27
    -80297.13347    -64171.26543  23157717.5054   23157716.7554
       -75.3594
  -1331017.12248  -1022344.30345  22378076.1224   22378074.9154
      1960.7194
    353853.85549    267426.14346  20434527.0054   20434522.8684
      -698.3444
  -1347845.13748  -1034878.78243  23563058.9034   23563057.9314
      1942.0164
   1861845.96049   1420975.10445  22246798.0604   22246794.9354
     -2936.4534
   -527618.98749   -408099.61947  21361067.2244   21361064.2394
       745.9224
 04  9 13 21  8 30.0010000  0  6G 3G 8G13G19G23G27
    -79091.88247    -63232.11143  23157946.5444   23157945.9034
       -85.5004
  -1360401.41048  -1045241.12445  22372484.5054   22372483.3604
      1957.0474
    364392.11449    275637.76846  20436531.9194   20436528.6574
      -706.9224
  -1376931.65547  -1057543.56043  23557523.9664   23557522.8684
      1935.9534
   1905937.32349   1455331.96345  22255188.7554   22255185.0954
     -2942.6254
   -538782.75149   -416798.64247  21358943.1774   21358940.3294
       742.4534
 04  9 13 21  8 45.0010000  0  6G 3G 8G13G19G23G27
    -77738.56247    -62177.56043  23158203.6464   23158203.0834
       -95.4694
  -1389734.20449  -1068097.81945  22366902.7554   22366901.2284
      1953.5944
    375054.55649    283946.15146  20438561.3104   20438557.4584
      -715.1724
  -1405931.23547  -1080140.58843  23552006.2554   23552004.0324
      1930.2194
   1950116.99649   1489757.63145  22263595.7314   22263591.2434
     -2948.4694
   -549897.84249   -425459.74647  21356827.5994   21356824.9074
       739.1884
 04  9 13 21  9  0.0010000  0  6G 3G 8G13G19G23G27
    -76236.13548    -61006.84543  23158490.1694   23158489.4974
      -104.9224
  -1419014.57649  -1090913.67845  22361331.1224   22361328.9584
      1950.4844
    385842.15749    292352.06246  20440613.8024   20440610.1774
      -723.0944
  -1434842.65748  -1102668.92943  23546504.3104   23546502.7314
      1924.6884
   1994385.62249   1524252.62145  22272020.0284   22272015.9544
     -2954.0004
   -560963.63649   -434082.44647  21354722.0994   21354719.0604
       736.2504
 04  9 13 21  9 15.0010000  0  6G 3G 8G13G19G23G27
    -74589.03247    -59723.37043  23158802.6304   23158802.4744
      -114.6254
  -1448246.99349  -1113692.15145  22355768.3724   22355767.0634
      1947.2504
    396750.43549    300852.01546  20442689.4114   20442685.9664
      -731.1564
  -1463670.14147  -1125131.84543  23541018.4894   23541017.2514
      1919.0944
   2038738.49249   1558813.24245  22280459.9584   22280456.0994
     -2959.6414
   -571984.52949   -442670.14146  21352624.7314   21352621.9704
       733.2974
 04  9 13 21  9 30.0010000  0  6G 3G 8G13G19G23G27
    -72796.95947    -58326.95343  23159144.8174   23159144.0604
      -124.5624
  -1477431.19648  -1136433.05245  22350215.1064   22350213.2594
      1943.7814
    407780.06849    309446.53646  20444788.7164   20444784.5484
      -739.6254
  -1492412.98047  -1147528.79744  23535549.5834   23535547.7594
      1913.0944
   2083175.83349   1593439.69545  22288916.4504   22288912.1464
     -2965.6094
   -582960.10149   -451222.52546  21350536.2714   21350533.8924
       729.9384
 04  9 13 21  9 45.0010000  0  6G 3G 8G13G19G23G27
    -70854.84648    -56813.59343  23159514.2714   23159513.4234
      -134.1564
  -1506562.25348  -1159132.56745  22344670.9974   22344669.6464
      1940.5944
    418935.48749    318139.05646  20446911.3804   20446907.2824
      -747.6564
  -1521065.92547  -1169855.70444  23530096.8104   23530095.0284
      1907.3914
   2127702.22849   1628135.55045  22297389.8104   22297385.6144
     -2971.1414
   -593885.72849   -459735.99846  21348457.1694   21348454.1384
       726.9534
 04  9 13 21 10  0.0010000  0  6G 3G 8G13G19G23G27
    -68764.09948    -55184.42043  23159911.7554   23159911.2904
      -144.4224
  -1535641.64548  -1181791.80745  22339137.8104   22339135.9384
      1936.7034
    430215.44449    326928.62146  20449058.0604   20449054.1384
      -756.3284
  -1549630.23247  -1192113.57843  23524661.1464   23524659.3724
      1901.1414
   2172316.23049   1662899.65845  22305879.1854   22305875.7904
     -2977.3284
   -604762.82849   -468211.65346  21346387.2164   21346384.5794
       723.3594
 04  9 13 21 10 15.0010000  0  6G 3G 8G13G19G23G27
    -66523.88648    -53438.79943  23160337.5214   23160337.8214
      -154.1724
  -1564668.62049  -1204410.19345  22333613.3884   22333612.3254
      1933.5474
    441620.81749    335815.93046  20451228.0994   20451224.4584
      -764.3914
  -1578104.89647  -1214301.55443  23519242.0914   23519239.7784
      1895.5164
   2217018.29749   1697732.38945  22314385.2474   22314382.2824
     -2982.9224
   -615590.66649   -476648.91246  21344326.7004   21344324.2594
       720.3444
 04  9 13 21 10 30.0010000  0  6G 3G 8G13G19G23G27
    -64136.36447    -51578.37943  23160792.2714   23160791.9934
      -164.1724
  -1593645.30249  -1226989.40545  22328099.6304   22328098.0564
      1930.0004
    453149.33649    344799.17347  20453422.1464   20453418.5604
      -772.7664
  -1606491.59848  -1236421.02444  23513840.6064   23513838.8134
      1889.5164
   2261806.17849   1732632.00245  22322908.6614   22322904.7984
     -2988.6874
   -626371.49249   -485049.54846  21342275.1224   21342272.3174
       717.0634
 04  9 13 21 10 45.0010000  0  6G 3G 8G13G19G23G27
    -61598.11248    -49600.49643  23161275.4194   23161274.9854
      -174.0624
  -1622568.24349  -1249526.73945  22322596.1854   22322593.8334
      1926.5944
    464804.59649    353881.19946  20455639.8724   20455636.2434
      -781.0784
  -1634786.60648  -1258469.03244  23508455.9894   23508454.4504
      1883.3914
   2306683.08549   1767600.95445  22331448.1774   22331444.7354
     -2994.5944
   -637101.90149   -493410.90047  21340233.1384   21340230.5364
       713.8444
 04  9 13 21 11  0.0010000  0  6G 3G 8G13G19G23G27
    -58911.18748    -47506.78243  23161786.5214   23161786.1224
      -184.0474
  -1651439.82649  -1272024.05345  22317101.9354   22317100.1884
      1923.1094
    476584.39949    363060.25246  20457881.6854   20457877.8844
      -789.4374
  -1662991.86448  -1280447.10144  23503088.6224   23503087.1884
      1877.3754
   2351646.62349   1802637.42445  22340004.8804   22340000.7204
     -3000.4374
   -647784.13549   -501734.71046  21338200.3804   21338197.8414
       710.6414
 04  9 13 21 11 15.0010000  0  6G 3G 8G13G19G23G27
    -56076.56448    -45297.95243  23162325.9354   23162324.9664
      -194.2034
  -1680260.93549  -1294482.01645  22311616.7554   22311615.2554
      1919.3914
    488487.93149    372335.71446  20460146.5674   20460142.9504
      -798.0004
  -1691107.91448  -1302355.64244  23497738.1064   23497737.2744
      1871.0944
   2396695.69149   1837740.54545  22348577.2944   22348573.5364
     -3006.4694
   -658419.16849   -510021.75046  21336176.5754   21336173.5244
       707.0784
 04  9 13 21 11 30.0010000  0  6G 3G 8G13G19G23G27
    -53088.65148    -42969.70143  23162894.5524   23162894.2204
      -204.1724
  -1709026.29149  -1316896.55345  22306143.2944   22306141.3454
      1915.9844
    500520.65449    381711.86246  20462436.9194   20462433.1464
      -806.2974
  -1719129.03048  -1324190.22844  23492405.8174   23492404.5134
      1865.0944
   2441835.60049   1872914.46145  22357167.2634   22357163.1064
     -3012.1414
   -669001.46949   -518267.69346  21334163.2634   21334160.1144
       703.9384
 04  9 13 21 11 45.0010000  0  6G 3G 8G13G19G23G27
    -49949.61648    -40523.67543  23163490.8884   23163491.4384
      -214.2504
  -1737737.89049  -1339269.20845  22300679.4114   22300677.5834
      1912.3914
    512680.35049    391186.94746  20464750.6924   20464746.4544
      -814.7814
  -1747057.02948  -1345952.25843  23487091.6464   23487089.9544
      1858.7664
   2487064.06649   1908157.38145  22365774.0604   22365769.8604
     -3018.1254
   -679533.32449   -526474.32347  21332158.9664   21332156.1734
       700.4384
 04  9 13 21 12  0.0010000  0  6G 3G 8G13G19G23G27
    -46658.88447    -37959.48243  23164117.7554   23164117.5404
      -224.7034
  -1766395.10349  -1361599.47645  22295226.3024   22295225.0834
      1908.4224
    524967.60949    400761.42646  20467088.6854   20467084.7904
      -823.6874
  -1774891.06548  -1367641.05444  23481794.4894   23481793.1774
      1852.2034
   2532381.42849   1943469.55145  22374397.8564   22374393.7984
     -3024.4374
   -690014.33249   -534641.34547  21330164.2554   21330161.2514
       696.7814
 04  9 13 21 12 15.0010000  0  6G 3G 8G13G19G23G27
    -43215.84748    -35276.55543  23164772.6924   23164773.1184
      -234.5784
  -1794997.31449  -1383886.88045  22289783.5054   22289781.8994
      1905.0784
    537383.05949    410435.78046  20469451.0364   20469447.1924
      -831.9374
  -1802630.34547  -1389256.03643  23476516.0284   23476514.7904
      1846.1564
   2577787.96948   1978851.22145  22383037.7004   22383034.0564
     -3030.0314
   -700443.91449   -542768.29446  21328179.5994   21328177.2554
       693.6414
 04  9 13 21 12 30.0010000  0  6G 3G 8G13G19G23G27
    -39622.10948    -32476.22943  23165456.8644   23165456.9274
      -244.6874
  -1823546.63448  -1406133.07045  22284350.5054   22284348.9194
      1901.4384
    549924.87949    420208.62547  20471837.8104   20471833.9074
      -840.4694
  -1830276.24747  -1410798.22744  23471255.8024   23471254.1464
      1839.8754
   2623281.92349   2014301.01345  22391695.4354   22391690.9624
     -3035.9224
   -710823.79349   -550856.49846  21326204.6224   21326201.6884
       690.2504
 04  9 13 21 12 45.0010000  0  6G 3G 8G13G19G23G27
    -35876.46648    -29557.53943  23166169.4584   23166168.9154
      -255.0164
  -1852041.64249  -1428336.94145  22278928.4274   22278926.6184
      1897.6094
    562594.50249    430081.05446  20474248.7474   20474244.7044
      -849.1254
  -1857827.20848  -1432266.44444  23466012.8024   23466011.1694
      1833.2664
   2668864.25849   2049819.66645  22400369.4034   22400365.6924
     -3041.9844
   -721152.76449   -558905.04747  21324239.1064   21324236.0914
       686.6884
 04  9 13 21 13  0.0010000  0  6G 3G 8G13G19G23G27
    -31975.75048    -26518.00043  23166911.7944   23166911.6924
      -265.1414
  -1880479.04049  -1450495.93045  22273516.5994   22273515.0174
      1894.0634
    575395.03549    440055.49246  20476684.4194   20476681.1184
      -857.6094
  -1885279.74648  -1453657.98444  23460788.7784   23460786.7634
      1827.0164
   2714537.96548   2085409.52845  22409061.4034   22409057.3884
     -3047.8124
   -731427.74649   -566911.51447  21322283.3104   21322280.5794
       683.3284
 04  9 13 21 13 15.0010000  0  6G 3G 8G13G19G23G27
    -27922.63448    -23359.73443  23167682.7474   23167682.6694
      -275.0784
  -1908861.61749  -1472612.19845  22268115.8104   22268113.6694
      1890.5164
    588323.86949    450129.89946  20479144.8964   20479141.1774
      -865.9694
  -1912636.26448  -1474974.68044  23455583.4274   23455580.5754
      1820.7664
   2760300.28348   2121068.42645  22417768.8644   22417765.3104
     -3053.5624
   -741651.47449   -574878.04846  21320338.2244   21320335.2634
       680.0474
 04  9 13 21 13 30.0010000  0  6G 3G 8G13G19G23G27
    -23721.12448    -20085.82543  23168483.2944   23168482.6884
      -285.3754
  -1937193.54048  -1494688.99145  22262724.2714   22262722.7204
      1886.8284
    601377.07149    460301.22946  20481628.8724   20481625.4354
      -874.5624
  -1939900.55548  -1496219.53244  23450394.3884   23450392.2554
      1814.2504
   2806146.96448   2156793.05245  22426493.8724   22426489.8604
     -3059.5944
   -751828.01649   -582807.81346  21318401.2314   21318398.7474
       676.6254
 04  9 13 21 13 45.0010000  0  6G 3G 8G13G19G23G27
    -19365.29848    -16691.63443  23169311.4194   23169311.4194
      -295.1724
  -1965468.90748  -1516721.71345  22257344.0524   22257342.5794
      1883.5474
    614560.40849    470573.95047  20484137.6694   20484134.0054
      -882.9224
  -1967066.33848  -1517387.61344  23445225.4424   23445222.6534
      1808.0314
   2852083.64348   2192587.83145  22435234.9584   22435230.9744
     -3065.0474
   -761951.58249   -590696.29347  21316475.3644   21316472.0954
       673.4694
 04  9 13 21 14  0.0010000  0  6G 3G 8G13G19G23G27
    -14861.76047    -13182.39043  23170168.6144   23170168.2044
      -305.4224
  -1993694.36648  -1538715.55245  22251972.3724   22251970.8884
      1879.7814
    627867.16149    480942.84146  20486669.7634   20486666.2864
      -891.5474
  -1994139.98448  -1538483.91043  23440073.4814   23440070.3104
      1801.5474
   2898103.42448   2228447.33945  22443992.3024   22443988.1734
     -3071.0474
   -772028.74449   -598548.62247  21314557.5054   21314554.6344
       670.0474
 04  9 13 21 14 15.0010000  0  6G 3G 8G13G19G23G27
    -10204.35748     -9553.23743  23171055.1854   23171054.9544
      -315.6874
  -2021863.81548  -1560665.73645  22246612.2004   22246610.3254
      1876.0634
    641303.59349    491412.77446  20489226.7004   20489222.4274
      -900.0624
  -2021115.00848  -1559503.34143  23434939.8494   23434937.7824
      1795.0314
   2944212.24348   2264376.23745  22452766.9034   22452762.9544
     -3076.8914
   -782053.56149   -606360.16047  21312649.8174   21312647.1494
       666.5634
 04  9 13 21 14 30.0010000  0  6G 3G 8G13G19G23G27
     -5393.47248     -5804.49143  23171970.6304   23171969.9154
      -325.8444
  -2049977.74848  -1582572.66745  22241261.9114   22241260.1884
      1872.4384
    654869.39249    501983.53146  20491808.0364   20491804.5604
      -908.6874
  -2047991.58248  -1580446.06044  23429825.0054   23429822.7514
      1788.4844
   2990409.63148   2300374.16545  22461557.6774   22461554.6064
     -3082.7974
   -792026.36849   -614131.17547  21310752.1384   21310749.2904
       663.1094
 04  9 13 21 14 45.0010000  0  6G 3G 8G13G19G23G27
      -430.38147     -1937.14943  23172914.7944   23172913.7474
      -335.9844
  -2078037.47448  -1604437.36845  22235922.4114   22235920.5714
      1868.8134
    668563.10049    512653.94046  20494413.8884   20494410.2394
      -917.2504
  -2074770.69548  -1601312.82043  23424729.0994   23424726.5914
      1781.9384
   3036694.12848   2336439.95745  22470365.5214   22470361.4974
     -3088.6564
   -801948.59449   -621862.77047  21308864.0214   21308861.0094
       659.6724
 04  9 13 21 15  0.0010000  0  6G 3G 8G13G19G23G27
      4687.27048      2050.62543  23173889.3644   23173888.5134
      -346.2664
  -2106040.31648  -1626257.75145  22230593.5994   22230592.0794
      1865.0784
    682387.17049    523425.92846  20497044.1614   20497040.7554
      -925.8124
  -2101449.72348  -1622101.64143  23419652.6384   23419649.6344
      1775.3284
   3083067.74448   2372575.18545  22479190.2784   22479186.1184
     -3094.4224
   -811817.86249   -629553.11146  21306985.8884   21306983.0054
       656.3444
 04  9 13 21 15 15.0010000  0  6G 3G 8G13G19G23G27
      9955.67248      6155.90043  23174891.0834   23174890.9974
      -356.3124
  -2133990.54548  -1648037.09945  22225274.6384   22225273.2944
      1861.5474
    696337.81149    534296.55846  20499699.6464   20499695.5714
      -934.2504
  -2128032.32748  -1642815.28244  23414594.0994   23414591.1694
      1768.9384
   3129526.41648   2408776.70044  22488031.5214   22488027.4384
     -3100.0944
   -821638.15149   -637205.27047  21305117.2784   21305114.2714
       653.0164
 04  9 13 21 15 30.0010000  0  6G 3G 8G13G19G23G27
     15379.58447     10382.34243  23175923.3884   23175923.3534
      -366.5164
  -2161883.14849  -1669771.57845  22219967.2634   22219965.6144
      1857.8594
    710419.76449    545269.50647  20502378.8884   20502375.3534
      -942.8594
  -2154513.25448  -1663449.72944  23409555.1774   23409552.1304
      1762.2504
   3176074.87448   2445048.18944  22496888.9974   22496885.0404
     -3105.8754
   -831404.68649   -644815.55246  21303258.7314   21303255.9464
       649.6254
 04  9 13 21 15 45.0010000  0  6G 3G 8G13G19G23G27
     20954.68847     14726.59143  23176984.0754   23176984.1694
      -376.5944
  -2189722.43549  -1691464.51545  22214669.3494   22214667.4354
      1854.2974
    724628.81549    556341.48746  20505082.9354   20505078.8024
      -951.3594
  -2180896.42148  -1684007.97444  23404534.3494   23404532.0994
      1755.7344
   3222708.69648   2481386.17944  22505763.8564   22505759.4074
     -3111.6724
   -841121.59849   -652387.17546  21301409.7714   21301406.7674
       646.2504
 04  9 13 21 16  0.0010000  0  6G 3G 8G13G19G23G27
     26684.23047     19191.14743  23178074.3494   23178074.4074
      -386.8444
  -2217505.54648  -1713113.66645  22209382.5134   22209380.3844
      1850.5784
    738967.94149    567514.82247  20507811.6064   20507807.7514
      -960.0314
  -2207178.50748  -1704487.43644  23399532.7864   23399530.4784
      1748.9224
   3269430.65348   2517792.84345  22514654.0214   22514650.5484
     -3117.4374
   -850786.12549   -659917.97146  21299570.6774   21299567.6574
       642.7504
 04  9 13 21 16 15.0010000  0  6G 3G 8G13G19G23G27
     32564.38747     23773.07743  23179193.3724   23179192.5244
      -397.4064
  -2245236.02949  -1734721.81745  22204105.3564   22204103.4464
      1846.6254
    753433.50449    578786.67946  20510564.2634   20510560.4424
      -968.8914
  -2233362.97748  -1724890.86644  23394549.7244   23394547.6424
      1742.0634
   3316236.85848   2554265.16545  22523561.5444   22523557.5754
     -3123.5784
   -860401.96349   -667410.82346  21297740.7634   21297737.5994
       639.0944
 04  9 13 21 16 30.0010000  0  6G 3G 8G13G19G23G27
     38601.06947     28477.00743  23180342.7244   23180341.3374
      -407.3594
  -2272907.93649  -1756284.31445  22198839.7864   22198838.3334
      1843.1094
    768031.47149    590161.71147  20513342.6464   20513338.2864
      -977.3444
  -2259443.59648  -1745213.37044  23389586.2394   23389584.3884
      1735.5004
   3363133.03248   2590807.58145  22532484.7314   22532480.5834
     -3129.1414
   -869963.16949   -674861.11046  21295921.4664   21295918.0174
       635.8914
 04  9 13 21 16 45.0010000  0  6G 3G 8G13G19G23G27
     44783.78248     33294.70643  23181518.2084   23181518.4814
      -417.3124
  -2300531.90549  -1777809.46545  22193583.2714   22193581.7084
      1839.6884
    782751.21649    601631.62847  20516143.4194   20516139.7784
      -985.6254
  -2285430.67448  -1765462.97944  23384641.3414   23384638.9034
      1729.0784
   3410108.48148   2627411.78145  22541424.2394   22541420.4194
     -3134.6094
   -879480.32649   -682277.08446  21294110.1534   21294106.8294
       632.7664
 04  9 13 21 17  0.0010000  0  6G 3G 8G13G19G23G27
     51119.34648     38231.51143  23182724.5914   23182724.1734
      -427.5624
  -2328101.24249  -1799292.03745  22188336.8724   22188335.2284
      1835.9844
    797599.58749    613201.78747  20518968.7784   20518965.1104
      -994.2194
  -2311317.13448  -1785634.18744  23379715.1224   23379713.0954
      1722.2814
   3457169.68148   2664082.79345  22550379.4664   22550376.0754
     -3140.4224
   -888946.78949   -689653.54246  21292308.5134   21292305.4974
       629.3444
 04  9 13 21 17 15.0010000  0  6G 3G 8G13G19G23G27
     57609.53448     43288.80643  23183959.7394   23183958.7434
      -437.9064
  -2355614.21649  -1820730.69945  22183101.4504   22183099.1734
      1832.2504
    812578.42249    624873.60047  20521819.1774   20521815.3064
     -1002.9844
  -2337100.79548  -1805725.30144  23374809.0364   23374806.9504
      1715.3914
   3504318.46948   2700822.07545  22559351.9354   22559348.4424
     -3146.2034
   -898360.58549   -696988.96246  21290517.5134   21290514.1264
       625.7664
 04  9 13 21 17 30.0010000  0  6G 3G 8G13G19G23G27
     64253.77548     48466.12843  23185224.2714   23185223.3494
      -447.9694
  -2383071.21849  -1842125.74845  22177876.4424   22177874.1534
      1828.7814
    827687.09549    636646.57946  20524694.5364   20524690.1614
     -1011.4374
  -2362781.80948  -1825736.41443  23369921.8804   23369919.9744
      1708.7814
   3551553.84948   2737628.80445  22568340.8104   22568336.2204
     -3151.7814
   -907722.54349   -704283.98647  21288735.9424   21288733.0954
       622.5314
 04  9 13 21 17 45.0010000  0  6G 3G 8G13G19G23G27
     71051.46648     53763.04943  23186517.4504   23186517.1184
      -458.3594
  -2410472.80849  -1863477.62045  22172661.7864   22172659.9934
      1824.9534
    842925.11849    648520.35646  20527594.3804   20527590.3684
     -1020.1874
  -2388360.66948  -1845667.92444  23365053.7634   23365052.2944
      1701.8284
   3598875.20848   2774502.53944  22577345.3254   22577342.2284
     -3157.6724
   -917033.18649   -711539.02746  21286963.8254   21286961.0794
       619.0164
 04  9 13 21 18  0.0010000  0  6G 3G 8G13G19G23G27
     78004.88348     59181.29443  23187839.8804   23187839.7594
      -468.5784
  -2437816.80949  -1884784.62445  22167458.6694   22167456.3604
      1821.2034
    858294.81749    660496.73946  20530518.7314   20530515.0094
     -1028.8754
  -2413834.69748  -1865517.75944  23360207.0444   23360204.8024
      1694.9694
   3646284.62548   2811444.90044  22586367.0524   22586363.2634
     -3163.3754
   -926290.21549   -718752.29746  21285202.4814   21285199.1144
       615.5474
 04  9 13 21 18 15.0010000  0  6G 3G 8G13G19G23G27
     85110.22948     64717.94043  23189192.1694   23189191.1614
      -478.9064
  -2465107.01549  -1906049.69645  22162265.3104   22162263.7354
      1817.4694
    873792.33549    672572.72046  20533467.9664   20533464.2984
     -1037.5624
  -2439207.42547  -1885288.65944  23355378.2634   23355375.4584
      1687.9384
   3693778.00248   2848452.67144  22595405.0364   22595400.9974
     -3169.1724
   -935497.56549   -725926.84546  21283450.3334   21283447.5174
       612.0004
 04  9 13 21 18 30.0010000  0  6G 3G 8G13G19G23G27
     92369.13348     70374.24543  23190574.2864   23190572.7434
      -488.8754
  -2492341.79949  -1927271.58445  22157083.3414   22157080.9234
      1814.0164
    889419.36449    684749.61546  20536441.7314   20536437.8494
     -1045.9224
  -2464476.91547  -1904979.14144  23350569.9354   23350566.4074
      1681.3754
   3741356.80349   2885527.02544  22604458.6694   22604455.0834
     -3174.6564
   -944653.51349   -733061.34346  21281708.1694   21281705.1694
       608.8594
 04  9 13 21 18 45.0010000  0  6G 3G 8G13G19G23G27
     99780.14448     76149.05243  23191984.2554   23191983.7674
      -499.1094
  -2519522.58349  -1948451.39345  22151910.6304   22151908.5994
      1810.2344
    905174.37549    697026.23946  20539439.5834   20539435.6814
     -1054.6414
  -2489644.37148  -1924590.07344  23345779.8334   23345777.9814
      1674.4224
   3789019.43248   2922666.67044  22613528.2714   22613525.4464
     -3180.3284
   -953759.64149   -740157.02246  21279975.3104   21279971.9894
       605.4224
 04  9 13 21 19  0.0010000  0  6G 3G 8G13G19G23G27
    107344.72148     82043.52843  23193423.5994   23193423.6884
      -509.2194
  -2546647.92049  -1969588.01645  22146748.4664   22146746.0994
      1806.6564
    921058.70849    709403.62347  20542462.1064   20542458.3994
     -1063.0784
  -2514708.07548  -1944120.16244  23341011.3024   23341009.0524
      1667.5944
   3836767.10048   2959872.60245  22622615.1384   22622611.0914
     -3185.8754
   -962814.60249   -747212.83546  21278252.2864   21278249.1264
       602.1724
 04  9 13 21 19 15.0010000  0  7G 3G 8G13G19G23G27G10
    115061.89048     88056.91343  23194892.2474   23194892.3604
      -519.4694
  -2573719.03049  -1990682.35446  22141597.2164   22141595.3724
      1803.0784
    937071.51049    721881.13846  20545509.8724   20545505.3334
     -1071.6414
  -2539668.67047  -1963569.93143  23336260.9424   23336258.4744
      1660.6564
   3884598.72049   2997143.93644  22631717.4584   22631713.2714
     -3191.4694
   -971819.38749   -754229.55047  21276538.5674   21276535.6384
       598.7814
    -86954.26956    -60427.64452  24327114.2474   24327114.2784
      1926.3444
 04  9 13 21 19 30.0010000  0  7G 3G 8G13G19G23G27G10
    122930.47848     94188.27643  23196389.4504   23196389.1104
      -529.3914
  -2600736.93749  -2011735.25645  22136455.9424   22136453.9384
      1799.5474
    953211.66949    734457.87447  20548580.6854   20548576.9504
     -1080.0944
  -2564526.98347  -1982939.95744  23331530.2084   23331527.9074
      1653.9844
   3932512.84848   3034479.58144  22640834.6614   22640830.8174
     -3196.8124
   -980775.03749   -761207.96847  21274834.1304   21274831.2784
       595.5944
   -115788.12747    -82895.54542  24321626.5054   24321626.2744
      1918.2344
 04  9 13 21 19 45.0010000  0  8G 3G 8G13G19G23G27G10G28
    130951.44448    100438.37743  23197916.3024   23197915.0874
      -539.8754
  -2627700.51849  -2032745.82946  22131324.6304   22131323.0214
      1795.7664
    969480.05949    747134.51847  20551677.0134   20551672.8134
     -1088.8444
  -2589281.74048  -2002229.35444  23326820.1464   23326816.9744
      1646.7664
   3980510.26249   3071880.10344  22649968.6144   22649965.4814
     -3202.7034
   -989680.73549   -768147.47146  21273139.5364   21273136.3564
       591.9844
   -144497.65547   -105266.58942  24316163.5754   24316163.3564
      1909.7194
   -137925.73456    -93831.48252  24421266.7554   24421267.7394
      3101.7344
 04  9 13 21 20  0.0010000  0  8G 3G 8G13G19G23G27G10G28
    139123.74648    106806.39743  23199470.8414   23199470.2204
      -550.2974
  -2654611.07949  -2053715.07845  22126203.9114   22126201.6304
      1791.9064
    985875.72049    759910.35346  20554796.4504   20554793.0244
     -1097.7034
  -2613933.74448  -2021438.64744  23322128.8414   23322126.2284
      1639.6414
   4028589.75848   3109344.60044  22659117.2474   22659114.4114
     -3208.4064
   -998537.65149   -775048.96346  21271454.1064   21271450.8724
       588.4224
   -173083.76846   -127541.49242  24310723.7084   24310723.3374
      1901.1884
   -184429.88147   -130068.40542  24412416.4274   24412417.1384
      3098.3594
 04  9 13 21 20 15.0010000  0  8G 3G 8G13G19G23G27G10G28
    147450.33648    113294.67243  23201055.6854   23201055.4154
      -559.9694
  -2681465.67149  -2074640.70045  22121093.3414   22121091.3924
      1788.7034
   1002401.63749    772787.69146  20557941.5364   20557938.0284
     -1105.8594
  -2638479.78748  -2040565.39944  23317457.9194   23317455.8024
      1633.1564
   4076754.14449   3146875.24144  22668283.4424   22668279.5914
     -3213.5164
  -1007342.68749   -781910.02846  21269778.6384   21269775.0444
       585.5944
   -201543.19747   -149717.59942  24305307.3724   24305307.8604
      1893.3914
   -230885.01547   -166267.17442  24403578.1064   24403577.8644
      3095.6254
 04  9 13 21 20 30.0010000  0  8G 3G 8G13G19G23G27G10G28
    155928.69948    119901.19943  23202668.6694   23202668.1854
      -570.6414
  -2708266.85749  -2095524.72246  22115993.5834   22115992.2434
      1784.5634
   1019055.14849    785764.44946  20561110.6464   20561106.6884
     -1114.8754
  -2662921.98548  -2059611.22244  23312806.3564   23312804.6424
      1625.5944
   4125000.69548   3184469.91544  22677464.1774   22677460.8454
     -3219.5624
  -1016098.32949   -788732.60246  21268112.4894   21268109.5954
       581.6254
   -229878.15547   -171796.75742  24299916.1614   24299915.7204
      1884.5314
   -277293.37647   -202429.43142  24394746.7004   24394747.2744
      3091.9844
 04  9 13 21 20 45.0010000  0  8G 3G 8G13G19G23G27G10G28
    164557.96748    126625.27243  23204310.9194   23204310.1304
      -580.2194
  -2735015.06549  -2116367.48045  22110903.4194   22110901.2984
      1781.6254
   1035835.62049    798840.12646  20564303.3564   20564299.6144
     -1122.7504
  -2687260.88948  -2078576.53644  23308175.8644   23308173.1424
      1619.2504
   4173328.33348   3222127.75544  22686661.0674   22686656.8534
     -3224.3444
  -1024805.57949   -795517.46946  21266455.6304   21266452.2594
       579.0314
   -258089.10647   -193779.30742  24294548.4194   24294547.0014
      1876.6414
   -323655.45947   -238555.67542  24385924.5604   24385925.0054
      3089.5164
 04  9 13 21 21  0.0010000  0  8G 3G 8G13G19G23G27G10G28
    173335.44648    133464.89443  23205981.9664   23205981.1424
      -589.9694
  -2761713.19348  -2137171.18645  22105823.0444   22105821.2044
      1778.4064
   1052740.15949    812012.48046  20567520.7244   20567516.5564
     -1130.9064
  -2711499.05948  -2097463.38144  23303562.7314   23303560.3174
      1612.7814
   4221734.18349   3259846.55144  22695872.1774   22695868.3684
     -3229.4064
  -1033467.20749   -802266.78346  21264807.0994   21264804.0364
       576.1094
   -286178.74346   -215667.28242  24289202.9584   24289201.6734
      1868.7974
   -369973.91947   -274647.88042  24377110.6304   24377110.9504
      3086.6094
 04  9 13 21 21 15.0010000  0  8G 3G 8G13G19G23G27G10G28
    182264.53648    140422.63343  23207680.9894   23207679.8764
      -600.6254
  -2788357.89349  -2157933.28145  22100752.5214   22100750.2314
      1774.1884
   1069772.29349    825284.26846  20570761.8494   20570757.7044
     -1140.0164
  -2735632.67347  -2116268.74944  23298970.0914   23298966.9704
      1605.0634
   4270221.52248   3297628.84044  22705099.2944   22705095.4114
     -3235.5624
  -1042079.73749   -808977.84346  21263168.1534   21263165.3214
       572.2664
   -314143.37646   -237457.94142  24283880.8804   24283880.4744
      1859.8914
   -416245.20347   -310703.37942  24368305.7084   24368305.2124
      3082.8594
 04  9 13 21 21 30.0010000  0  8G 3G 8G13G19G23G27G10G28
    191358.25648    147508.64543  23209410.9814   23209409.8564
      -611.7664
  -2814936.20749  -2178643.64945  22095695.1924   22095692.8724
      1769.6254
   1086944.95049    838665.55547  20574029.6694   20574026.1064
     -1149.6094
  -2759648.33248  -2134982.19644  23294399.7004   23294397.0444
      1597.0634
   4318803.07048   3335484.54744  22714342.6064   22714340.2904
     -3241.9374
  -1050630.15549   -815640.50546  21261541.4504   21261538.4504
       567.8914
   -341969.82246   -259140.87042  24278585.8884   24278585.8414
      1850.4534
   -462456.13547   -346711.84442  24359511.2784   24359510.8214
      3078.7034
 04  9 13 21 21 45.0010000  0  8G 3G 8G13G19G23G27G10G28
    200613.66648    154720.64543  23211172.1144   23211171.5324
      -621.6724
  -2841450.88849  -2199304.41545  22090649.2004   22090647.0834
      1766.3444
   1104255.29949    852154.12946  20577323.7084   20577319.9274
     -1157.8594
  -2783548.78047  -2153605.88444  23289851.9034   23289850.3214
      1590.2814
   4367475.81548   3373411.30144  22723605.4114   22723602.0674
     -3247.1724
  -1059121.49748   -822257.12946  21259924.8804   21259922.5094
       564.8754
   -369660.84846   -280718.22442  24273315.4974   24273315.8494
      1842.3594
   -508609.41648   -382675.34342  24350729.0444   24350728.7784
      3075.7504
 04  9 13 21 22  0.0010000  0  8G 3G 8G13G19G23G27G10G28
    210012.92148    162044.76143  23212961.1384   23212960.0014
      -631.1254
  -2867919.94148  -2219929.64045  22085612.3564   22085610.6884
      1763.4064
   1121685.53149    865736.10946  20580640.5364   20580636.8884
     -1165.7974
  -2807351.38548  -2172153.31444  23285322.4424   23285320.1304
      1583.7814
   4416221.64848   3411395.00644  22732882.3564   22732878.8024
     -3251.8444
  -1067571.57349   -828841.60346  21258317.1144   21258313.9384
       562.2344
   -397233.94146   -302203.77742  24268068.9424   24268068.4664
      1834.4844
   -554722.61847   -418607.61742  24341952.6534   24341953.4894
      3073.1564
 04  9 13 21 22 15.0010000  0  8G 3G 8G13G19G23G27G10G28
    219555.53448    169480.53743  23214777.0524   23214776.1304
      -641.2034
  -2894343.73348  -2240519.59145  22080583.9424   22080582.3134
      1759.8134
   1139235.18449    879411.15046  20583980.1144   20583975.9814
     -1174.2974
  -2831056.38547  -2190624.69544  23280811.3254   23280809.4624
      1576.7974
   4465040.13348   3449435.33844  22742171.5994   22742168.8334
     -3257.2344
  -1075980.75349   -835394.21346  21256717.0914   21256714.1064
       558.9384
   -424689.39146   -323597.57942  24262844.5604   24262844.3214
      1826.1254
   -600795.89547   -454508.78442  24333185.4584   24333185.9314
      3069.9224
 04  9 13 21 22 30.0010000  0  8G 3G 8G13G19G23G27G10G28
    229249.62948    177034.37543  23216621.4974   23216621.0094
      -651.1564
  -2920714.08148  -2261067.89945  22075566.1304   22075563.9194
      1756.3754
   1156912.44249    893185.63446  20587344.1384   20587340.2904
     -1182.5784
  -2854655.36647  -2209013.48544  23276320.3964   23276318.4854
      1569.8754
   4513939.04048   3487538.33144  22751476.9194   22751473.8454
     -3262.4534
  -1084341.01749   -841908.68946  21255126.0444   21255123.2474
       555.8914
   -452018.61745   -344893.07942  24257644.8804   24257644.0874
      1817.9224
   -646821.15947   -490372.58342  24324427.3644   24324427.4894
      3066.8914
 04  9 13 21 22 45.0010000  0  8G 3G 8G13G19G23G27G10G28
    239092.42948    184704.08243  23218494.1384   23218493.9424
      -661.1414
  -2947033.94748  -2281576.85645  22070557.4114   22070555.6734
      1752.9064
   1174714.43749    907057.30546  20590731.8334   20590727.8104
     -1191.0164
  -2878150.90448  -2227321.66744  23271849.5524   23271847.8454
      1562.8284
   4562915.42748   3525701.70744  22760797.7634   22760793.9664
     -3267.7664
  -1092655.07049   -848387.16946  21253544.2864   21253541.6574
       552.6254
   -479224.32445   -366092.29942  24252466.2474   24252466.9464
      1809.5164
   -692801.00447   -526200.93242  24315677.5834   24315677.7354
      3063.7194
 04  9 13 21 23  0.0010000  0  8G 3G 8G13G19G23G27G10G28
    249085.06348    192490.55243  23220395.7394   23220394.8604
      -671.2974
  -2973301.83048  -2302045.31345  22065559.0674   22065557.1184
      1749.3594
   1192642.48849    921027.21146  20594143.1144   20594139.6184
     -1199.4224
  -2901541.41747  -2245547.99344  23267398.3644   23267395.7004
      1555.7664
   4611970.26948   3563926.20944  22770131.7314   22770128.8604
     -3273.0164
  -1100921.88049   -854828.83646  21251970.8104   21251968.4274
       549.4384
   -506305.09245   -387194.18042  24247313.5284   24247312.7124
      1801.0784
   -738734.05047   -561992.82242  24306936.5364   24306936.5174
      3060.4534
 04  9 13 21 23 15.0010000  0  8G 3G 8G13G19G23G27G10G28
    259230.82548    200396.32243  23222326.4194   23222325.6264
      -681.2974
  -2999514.69448  -2322470.90046  22060570.9894   22060569.0524
      1745.8594
   1210699.70848    935097.76146  20597579.1464   20597575.9934
     -1207.8594
  -2924823.35848  -2263689.72544  23262968.3564   23262965.9784
      1548.6884
   4661106.72348   3602214.30544  22779482.6924   22779479.1144
     -3278.2344
  -1109138.18749   -861231.15946  21250407.5914   21250404.3534
       546.2974
   -533257.44545   -408195.97942  24242184.3884   24242184.4194
      1792.7344
   -784616.78047   -597745.50142  24298204.6694   24298205.3104
      3057.4064
 04  9 13 21 23 30.0010000  0  8G 3G 8G13G19G23G27G10G28
    269524.32648    208417.22643  23224285.4504   23224284.5054
      -691.0784
  -3025677.85448  -2342857.75445  22055592.2004   22055590.0954
      1742.6254
   1228880.80649    949264.83946  20601038.8174   20601035.2904
     -1216.1094
  -2948001.73148  -2281750.76744  23258557.6614   23258554.9624
      1541.9844
   4710319.15648   3640561.59444  22788847.3024   22788844.4584
     -3283.2504
  -1117309.20649   -867598.18346  21248852.7314   21248849.6464
       543.3444
   -560086.36146   -429101.60742  24237080.2314   24237078.3174
      1784.5634
   -830454.25647   -633462.94242  24289482.9744   24289482.6734
      3054.3754
 04  9 13 21 23 45.0010000  0  8G 3G 8G13G19G23G27G10G28
    279967.18848    216554.52743  23226273.0054   23226271.7434
      -701.1874
  -3051789.69348  -2363204.62145  22050623.4424   22050621.2314
      1739.1414
   1247187.45149    963529.75846  20604523.0134   20604519.0244
     -1224.5944
  -2971074.70148  -2299729.66044  23254166.9194   23254164.1224
      1534.7344
   4759609.02348   3678969.23344  22798226.5364   22798223.7474
     -3288.5314
  -1125433.43849   -873928.74546  21247306.5364   21247303.8884
       540.1094
   -586790.22945   -449909.76042  24231996.9274   24231996.8724
      1776.2504
   -876244.88547   -669143.87142  24280768.8494   24280769.3924
      3051.1564
 04  9 13 21 24  0.0010000  0  8G 3G 8G13G19G23G27G10G28
    290560.36148    224808.93843  23228288.4354   23228287.7744
      -711.2974
  -3077849.33548  -2383510.82045  22045664.0444   22045662.2244
      1735.5784
   1265620.59049    977893.23047  20608030.5834   20608026.6574
     -1233.1094
  -2994041.01647  -2317625.44044  23249795.7944   23249793.8644
      1527.5164
   4808977.14348   3717437.84544  22807620.9894   22807618.0094
     -3293.8444
  -1133509.85349   -880222.05646  21245769.3724   21245767.1964
       536.7814
   -613367.75045   -470619.57442  24226940.4504   24226939.4894
      1767.6094
   -921987.34247   -704787.19042  24272064.3174   24272064.8764
      3047.8284
 04  9 13 21 24 15.0010000  0  8G 3G 8G13G19G23G27G10G28
    301306.32448    233182.40743  23230333.4114   23230332.5874
      -721.4844
  -3103854.05848  -2403774.21445  22040715.6614   22040713.3644
      1731.8134
   1284182.64449    992357.16146  20611562.5284   20611558.8964
     -1241.7664
  -3016897.87048  -2335435.93644  23245447.0214   23245444.4974
      1520.0944
   4858425.75448   3755969.18944  22817030.9114   22817028.0364
     -3299.3284
  -1141536.09149   -886476.25846  21244242.3884   21244239.3534
       533.4224
   -639816.33245   -491228.81242  24221907.4194   24221907.0244
      1759.0004
   -967679.08947   -740391.06142  24263370.2474   24263369.8764
      3044.3134
 04  9 13 21 24 30.0010000  0  8G 3G 8G13G19G23G27G10G28
    312199.12848    241670.29543  23232406.1924   23232405.7204
      -731.0784
  -3129809.66448  -2423999.34045  22035776.2864   22035773.8214
      1728.6414
   1302867.85349   1006917.05546  20615118.1064   20615114.1774
     -1249.8444
  -3039650.77648  -2353165.44344  23241117.1064   23241114.7314
      1513.3284
   4907948.84148   3794558.55344  22826454.9584   22826451.3174
     -3303.9844
  -1149518.02749   -892695.93946  21242723.3724   21242720.5914
       530.6564
   -666141.59745   -511741.97442  24216897.6064   24216896.7784
      1750.7814
  -1013325.71947   -775959.74542  24254682.7394   24254684.0364
      3041.6094
 04  9 13 21 24 45.0010000  0  8G 3G 8G13G19G23G27G10G28
    323241.56648    250274.79743  23234507.6144   23234506.8804
      -741.2504
  -3155713.54748  -2444184.16445  22030847.2394   22030844.5524
      1725.1094
   1321678.98049   1021575.06046  20618698.0834   20618694.4854
     -1258.3444
  -3062296.70048  -2370811.57444  23236807.2554   23236805.1304
      1506.0634
   4957549.05148   3833208.01444  22835893.8024   22835890.4194
     -3309.3284
  -1157452.75949   -898878.84746  21241213.3564   21241210.3454
       527.3444
   -692340.39645   -532156.62042  24211912.3494   24211911.3604
      1742.0474
  -1058924.22647   -811490.91442  24246006.6384   24246006.4504
      3038.2344
 04  9 13 21 25  0.0010000  0  8G 3G 8G13G19G23G27G10G28
    334436.46648    258998.07343  23236637.8254   23236637.7824
      -751.2034
  -3181562.68648  -2464326.32645  22025928.4504   22025926.2594
      1721.7814
   1340618.72249   1036333.30047  20622302.5054   20622298.4354
     -1266.6414
  -3084832.51548  -2388371.90944  23232519.9584   23232516.8564
      1499.0164
   5007228.95648   3871919.56444  22845347.8254   22845345.0014
     -3314.3594
  -1165337.61449   -905022.89446  21239713.2084   21239709.8684
       524.2664
   -718409.75245   -552470.35942  24206951.3494   24206950.6654
      1733.8444
  -1104471.65347   -846982.32142  24237338.9744   24237338.2434
      3035.0634
 04  9 13 21 25 15.0010000  0  8G 3G 8G13G19G23G27G10G28
    345783.16948    267839.65343  23238796.8024   23238796.7674
      -761.6724
  -3207357.76648  -2484426.37645  22021019.2394   22021017.3994
      1717.6724
   1359686.73249   1051191.48846  20625930.3804   20625927.0364
     -1275.6564
  -3107258.51947  -2405846.66744  23228251.4584   23228249.7554
      1491.1884
   5056987.79348   3910692.63244  22854816.0054   22854812.3134
     -3319.9374
  -1173173.00549   -911128.39046  21238221.6144   21238219.0954
       520.5314
   -744350.02245   -572683.49742  24202015.3494   24202014.1694
      1725.0004
  -1149968.41947   -882434.24842  24228680.6304   24228680.5014
      3031.2974
 04  9 13 21 25 30.0010000  0  8G 3G 8G13G19G23G27G10G28
    357278.84148    276797.30543  23240984.3724   23240983.9584
      -771.3594
  -3233101.68349  -2504486.54446  22016120.7084   22016118.9664
      1714.5004
   1378879.90149   1066147.19647  20629582.9744   20629579.0834
     -1283.7504
  -3129577.23148  -2423237.83444  23224004.8024   23224002.1964
      1484.3134
   5106822.48647   3949524.81344  22864300.1694   22864295.7674
     -3324.9064
  -1180962.03149   -917197.75146  21236739.7394   21236736.0324
       517.7344
   -770163.94446   -592798.30342  24197103.7554   24197102.3334
      1716.7974
  -1195417.26047   -917848.83842  24220032.2314   24220031.9424
      3028.2034
 04  9 13 21 25 45.0010000  0  8G 3G 8G13G19G23G27G10G28
    368922.93348    285870.63443  23243200.4034   23243199.5404
      -781.2814
  -3258794.86449  -2524507.18245  22011231.5674   22011228.4544
      1711.0784
   1398197.81149   1081200.11247  20633258.9114   20633255.2744
     -1292.0784
  -3151788.91148  -2440545.56544  23219777.3494   23219775.3924
      1477.1414
   5156732.44248   3988415.64544  22873796.9274   22873793.4664
     -3329.9064
  -1188704.99249   -923231.22346  21235266.5994   21235263.3174
       514.5634
   -795851.66445   -612814.60642  24192214.2944   24192213.9584
      1708.3284
  -1240818.41747   -953226.24642  24211392.3884   24211392.4424
      3025.0004
 04  9 13 21 26  0.0010000  0  8G 3G 8G13G19G23G27G10G28
    380715.19048    295059.36943  23245444.5754   23245443.5564
      -790.9064
  -3284437.55148  -2544488.48646  22006351.4664   22006349.1854
      1708.0164
   1417640.23249   1096350.04146  20636958.8024   20636955.0914
     -1300.0944
  -3173893.44048  -2457769.85244  23215571.2714   23215568.4974
      1470.1884
   5206717.15548   4027364.70144  22883308.8414   22883305.2744
     -3334.5944
  -1196402.32349   -929229.14146  21233801.4114   21233798.1814
       511.8444
   -821413.30946   -632732.75442  24187350.6924   24187349.7784
      1700.2344
  -1286171.92747   -988566.52842  24202761.1224   24202761.7314
      3022.1094
 04  9 13 21 26 15.0010000  0  8G 3G 8G13G19G23G27G10G28
    392657.80348    304365.29943  23247717.3024   23247716.5364
      -800.9224
  -3310027.62349  -2564428.78145  22001481.8564   22001479.7284
      1704.5314
   1437209.30049   1111598.65746  20640682.9664   20640679.2824
     -1308.5314
  -3195888.46548  -2474908.78944  23211385.6924   23211383.2204
      1462.8594
   5256778.63848   4066373.59544  22892835.5364   22892831.6774
     -3339.7504
  -1204051.75449   -935189.73746  21232345.8564   21232342.7554
       508.6254
   -846846.33445   -652550.63742  24182510.0994   24182510.0524
      1691.4694
  -1331475.46247  -1023867.92942  24194141.1064   24194141.5054
      3018.9064
 04  9 13 21 26 30.0010000  0  8G 3G 8G13G19G23G27G10G28
    404749.36548    313787.28443  23250018.6224   23250017.1734
      -811.0784
  -3335566.27748  -2584329.00846  21996621.9584   21996619.3494
      1700.8284
   1456903.68649   1126944.92147  20644430.8564   20644426.9814
     -1317.1724
  -3217774.87648  -2491963.09744  23207221.0444   23207218.5914
      1455.4384
   5306915.30248   4105441.08644  22902376.1854   22902372.7284
     -3344.9694
  -1211654.53749   -941113.98546  21230899.3104   21230895.7744
       505.2974
   -872151.94246   -672269.26042  24177694.8804   24177694.4464
      1682.7664
  -1376730.11747  -1059131.18042  24185527.8254   24185529.0874
      3015.3754
 04  9 13 21 26 45.0010000  0  8G 3G 8G13G19G23G27G10G28
    416992.86048    323327.67643  23252347.7944   23252347.0404
      -821.6724
  -3361050.76848  -2604187.03746  21991772.2714   21991770.1774
      1696.7664
   1476726.37449   1142391.16447  20648202.6614   20648198.8294
     -1326.2504
  -3239549.52247  -2508930.29544  23203077.2474   23203074.3644
      1447.4384
   5357130.04347   4144569.40144  22911931.1144   22911928.0634
     -3350.6724
  -1219207.83849   -946999.66446  21229461.2314   21229458.9034
       501.4844
   -897326.93246   -691886.14742  24172904.6614   24172903.5674
      1673.5164
  -1421932.72447  -1094353.88942  24176927.6304   24176927.2904
      3011.2974
 04  9 13 21 27  0.0010000  0  8G 3G 8G13G19G23G27G10G28
    429386.66648    332985.14743  23254706.6384   23254705.2244
      -830.6254
  -3386482.40248  -2624003.87145  21986932.7784   21986930.2784
      1694.2974
   1496675.82149   1157936.18146  20651998.6304   20651995.4854
     -1333.5314
  -3261213.64148  -2525811.38944  23198955.0674   23198951.9314
      1441.2194
   5407420.98147   4183757.08144  22921500.9814   22921498.3964
     -3354.6724
  -1226713.10249   -952847.92546  21228033.4974   21228030.9544
       499.3594
   -922372.62345   -711402.20942  24168137.5994   24168137.5444
      1666.1254
  -1467084.71847  -1129537.14142  24168334.5134   24168334.6424
      3009.1414
 04  9 13 21 27 15.0010000  0  8G 3G 8G13G19G23G27G10G28
    441921.68648    342752.69843  23257091.1694   23257091.1924
      -840.5944
  -3411870.29948  -2643786.62845  21982102.0914   21982099.9034
      1690.8444
   1516743.08549   1173572.99847  20655817.4504   20655813.6304
     -1342.0004
  -3282775.82948  -2542613.03544  23194851.3884   23194848.3494
      1433.7814
   5457779.10047   4222997.11044  22931084.8104   22931080.8534
     -3359.7034
  -1234179.38949   -958665.80646  21226612.5604   21226610.2244
       496.2194
   -947297.86346   -730824.50842  24163394.7714   24163394.4704
      1657.2344
  -1512194.85947  -1164687.82342  24159749.8334   24159749.9744
      3005.7814
 04  9 13 21 27 30.0010000  0  8G 3G 8G13G19G23G27G10G28
    454607.30748    352637.60243  23259505.6384   23259505.4894
      -850.7974
  -3437204.86948  -2663527.83845  21977280.3804   21977277.9504
      1687.0944
   1536937.47349   1189308.87947  20659660.5914   20659656.3454
     -1350.6094
  -3304226.52448  -2559327.81044  23190769.5524   23190766.8104
      1426.2194
   5508213.49648   4262296.57444  22940682.1384   22940678.4154
     -3364.7814
  -1241597.33949   -964446.01346  21225201.2314   21225198.6884
       492.7974
   -972093.06245   -750145.36542  24158675.7394   24158675.6614
      1648.5474
  -1557253.56947  -1199798.40542  24151176.4894   24151176.1694
      3002.0944
 04  9 13 21 27 45.0010000  0  8G 3G 8G13G19G23G27G10G28
    467442.73748    362639.22143  23261948.8724   23261948.0564
      -860.4694
  -3462486.87848  -2683228.08446  21972470.0524   21972467.4354
      1684.0164
   1557258.11849   1205143.14247  20663527.2474   20663523.6694
     -1358.6254
  -3325566.26348  -2575956.13144  23186708.3174   23186706.0444
      1419.2034
   5558723.19348   4301654.73744  22950293.8024   22950289.5484
     -3369.5004
  -1248967.68749   -970189.13346  21223798.5994   21223796.0134
       490.0784
   -996758.77646   -769365.39642  24153982.7164   24153981.8844
      1640.2974
  -1602261.51247  -1234869.41242  24142610.7084   24142611.8884
      2999.1254
 04  9 13 21 28  0.0010000  0  8G 3G 8G13G19G23G27G10G28
    480425.23148    372755.44043  23264418.8564   23264418.0714
      -870.5784
  -3487719.00848  -2702889.45945  21967668.0214   21967665.7044
      1680.3444
   1577702.42149   1221073.76247  20667418.0214   20667414.6854
     -1367.2974
  -3346797.44648  -2592499.85244  23182668.3414   23182665.7434
      1411.6724
   5609305.47647   4341069.43044  22959919.3254   22959916.4354
     -3374.7974
  -1256293.18549   -975897.31746  21222404.3644   21222401.9424
       486.7034
  -1021297.45245   -788486.44942  24149313.5134   24149312.6104
      1631.5004
  -1647221.12147  -1269902.79842  24134056.3644   24134055.9704
      2995.4384
 04  9 13 21 28 15.0010000  0  8G 3G 8G13G19G23G27G10G28
    493556.23548    382987.39043  23266917.8414   23266916.6264
      -880.3914
  -3512899.87648  -2722510.90646  21962876.3884   21962874.4314
      1677.1094
   1598271.93749   1237101.95047  20671332.1694   20671328.2554
     -1375.5314
  -3367918.17248  -2608957.49944  23178649.6384   23178646.8414
      1404.3284
   5659961.50747   4380541.61244  22969559.3104   22969555.4194
     -3379.5004
  -1263572.20849   -981569.27546  21221019.1464   21221016.8414
       483.7194
  -1045707.34245   -807507.08042  24144667.8964   24144666.8254
      1622.9534
  -1692130.75148  -1304897.20642  24125509.4114   24125509.5174
      2992.3914
 04  9 13 21 28 30.0010000  0  8G 3G 8G13G19G23G27G10G28
    506833.54048    393333.32843  23269444.1064   23269442.8494
      -889.9224
  -3538031.56148  -2742094.01246  21958093.7944   21958091.8804
      1673.9224
   1618964.50549   1253226.01747  20675269.8804   20675266.3844
     -1383.5164
  -3388930.23148  -2625330.47644  23174650.6384   23174648.5404
      1397.2664
   5710688.88847   4420069.37644  22979211.7474   22979208.1184
     -3383.9844
  -1270806.97749   -987206.75846  21219642.9114   21219639.8684
       480.9694
  -1069990.33445   -826428.93642  24140047.4744   24140046.4074
      1614.8444
  -1736992.30847  -1339854.14942  24116972.6464   24116972.7554
      2989.2974
 04  9 13 21 28 45.0010000  0  8G 3G 8G13G19G23G27G10G28
    520259.43648    403795.06343  23271998.8724   23271998.4504
      -900.0164
  -3563111.78748  -2761637.03146  21953321.6064   21953319.6224
      1670.2664
   1639782.35449   1269447.72047  20679231.2474   20679227.2594
     -1392.0164
  -3409831.07048  -2641616.77544  23170673.7784   23170670.6854
      1389.6724
   5761489.79748   4459654.43244  22988879.8644   22988875.5134
     -3389.2344
  -1277995.13949   -992807.91146  21218275.0364   21218271.6964
       477.6254
  -1094144.04745   -845249.98342  24135451.4584   24135450.9034
      1605.9384
  -1781803.26647  -1374771.71842  24108445.4114   24108445.1534
      2985.6254
 04  9 13 21 29  0.0010000  0  8G 3G 8G13G19G23G27G10G28
    533833.85848    414372.55443  23274582.0994   23274582.0834
      -909.6564
  -3588140.50848  -2781139.91746  21948558.4744   21948556.2714
      1667.1564
   1660725.42549   1285766.98947  20683216.8724   20683212.9854
     -1400.0944
  -3430620.49248  -2657816.27044  23166717.1614   23166714.7824
      1382.4694
   5812364.01447   4499296.63844  22998560.2474   22998556.8214
     -3393.8124
  -1285136.77649   -998372.81946  21216916.0524   21216913.2744
       474.8284
  -1118168.23745   -863970.08442  24130879.2784   24130879.0874
      1597.5474
  -1826563.60747  -1409649.83642  24099926.8024   24099927.7594
      2982.6094
 04  9 13 21 29 15.0010000  0  8G 3G 8G13G19G23G27G10G28
    547552.60248    425062.48643  23277192.1224   23277192.5014
      -919.3444
  -3613121.90949  -2800605.92846  21943804.8024   21943802.4074
      1663.8134
   1681789.50249   1302180.55147  20687224.8174   20687220.7004
     -1408.2664
  -3451302.43648  -2673932.02444  23162781.2084   23162778.9814
      1375.1884
   5863307.24847   4538992.60944  23008254.8254   23008251.5134
     -3398.4374
  -1292236.03449  -1003904.70546  21215564.7244   21215562.1734
       471.8914
  -1142066.66946   -882592.22242  24126332.3644   24126331.2984
      1589.0634
  -1871277.24947  -1444491.52342  24091419.2944   24091418.6034
      2979.3284
 04  9 13 21 29 30.0010000  0  8G 3G 8G13G19G23G27G10G28
    561418.78648    435867.27143  23279831.6384   23279831.2904
      -929.3754
  -3638052.66749  -2820032.48246  21939060.9744   21939058.4034
      1660.2504
   1702977.87949   1318690.96046  20691256.9974   20691253.1344
     -1416.7974
  -3471873.48448  -2689961.34244  23158866.9504   23158864.1424
      1367.6414
   5914322.48948   4578744.67144  23017962.3254   23017958.6814
     -3403.5004
  -1299289.84049  -1009401.18046  21214222.6774   21214220.0604
       468.6724
  -1165836.15846   -901113.87342  24121808.8414   24121807.4584
      1580.3134
  -1915940.78547  -1479294.19342  24082919.9744   24082918.9624
      2975.8134
 04  9 13 21 29 45.0010000  0  8G 3G 8G13G19G23G27G10G28
    575434.48248    446788.61343  23282498.1614   23282498.4664
      -939.2344
  -3662930.71849  -2839417.95846  21934326.7164   21934324.6064
      1656.8754
   1724292.63449   1335299.85746  20695313.2554   20695308.9894
     -1425.1254
  -3492331.16548  -2705902.33844  23154973.8564   23154971.1144
      1360.2034
   5965411.49047   4618554.22644  23027684.0754   23027680.8844
     -3408.1874
  -1306295.97649  -1014860.50446  21212889.5134   21212886.5364
       465.6094
  -1189474.42646   -919533.29142  24117310.2394   24117309.4274
      1571.7814
  -1960551.97548  -1514056.06742  24074431.3024   24074429.5604
      2972.4384
 04  9 13 21 30  0.0010000  0  8G 3G 8G13G19G23G27G10G28
    589595.08348    457822.87043  23285192.9194   23285192.7674
      -948.7194
  -3687760.62749  -2858765.91746  21929601.4354   21929599.4544
      1653.9064
   1745729.12049   1352003.61046  20699392.2474   20699388.4114
     -1433.0004
  -3512679.66348  -2721758.24344  23151101.7474   23151099.1384
      1353.0474
   6016569.66247   4658417.66944  23037419.4194   23037416.1384
     -3412.7344
  -1313258.93749  -1020286.17846  21211564.4424   21211561.6384
       462.8914
  -1212985.80246   -937853.78542  24112836.0604   24112835.6184
      1563.3754
  -2005115.02948  -1548780.42242  24065951.1694   24065949.7824
      2969.3754
 04  9 13 21 30 15.0010000  0  8G 3G 8G13G19G23G27G10G28
    603899.44948    468969.12843  23287915.1064   23287915.2434
      -958.7034
  -3712543.57249  -2878077.29546  21924885.4354   21924883.3294
      1650.3914
   1767286.08649   1368801.23247  20703494.4744   20703490.3844
     -1441.4064
  -3532919.92448  -2737529.82744  23147250.0524   23147247.3294
      1345.4844
   6067795.58247   4698333.91044  23047167.6464   23047164.3994
     -3417.5314
  -1320180.04449  -1025679.25046  21210247.0134   21210244.3764
       459.7664
  -1236371.31346   -956076.28242  24108386.4584   24108385.4034
      1554.6414
  -2049631.06248  -1583468.17542  24057479.2394   24057478.4584
      2965.8594
 04  9 13 21 30 30.0010000  0  8G 3G 8G13G19G23G27G10G28
    618351.11348    480230.17443  23290664.6694   23290664.7124
      -968.2814
  -3737276.01849  -2897349.31946  21920178.9504   21920177.1184
      1647.2344
   1788967.13349   1385695.54947  20707619.9814   20707616.5214
     -1449.5004
  -3553048.13948  -2753214.09544  23143419.2394   23143416.9194
      1338.2194
   6119092.61347   4738305.56044  23056928.7394   23056925.8294
     -3422.1094
  -1327055.64249  -1031036.86446  21208939.0284   21208936.0714
       456.9224
  -1259627.12646   -974197.64142  24103960.2004   24103960.7084
      1546.1094
  -2094096.42547  -1618116.43842  24049018.0054   24049016.5364
      2962.6414
 04  9 13 21 30 45.0010000  0  8G 3G 8G13G19G23G27G10G28
    632948.98048    491605.10643  23293443.2784   23293442.7314
      -978.1414
  -3761958.73149  -2916582.58346  21915482.1304   21915479.8564
      1643.6884
   1810771.40449   1402685.88347  20711769.4114   20711766.0874
     -1457.8594
  -3573064.96748  -2768811.57644  23139610.0214   23139607.3534
      1330.5784
   6170459.64047   4778331.75844  23066703.2164   23066700.3134
     -3426.9694
  -1333886.61349  -1036359.69846  21207639.0284   21207636.0484
       453.8134
  -1282753.92446   -992218.50142  24099559.8024   24099559.4974
      1537.2814
  -2138511.72047  -1652725.67142  24040564.9894   24040564.4194
      2959.2034
 04  9 13 21 31  0.0010000  0  8G 3G 8G13G19G23G27G10G28
    647691.34248    503092.67243  23296248.1694   23296248.0874
      -988.0474
  -3786593.48749  -2935778.48746  21910794.3334   21910791.8964
      1640.2664
   1832697.04549   1419770.77947  20715941.8804   20715938.2164
     -1466.2344
  -3592971.81348  -2784323.32644  23135822.3964   23135819.6224
      1322.9224
   6221894.72547   4818410.95744  23076491.0134   23076488.6654
     -3431.7194
  -1340674.71849  -1041649.13046  21206347.4974   21206344.4934
       450.6414
  -1305753.15547  -1010139.99342  24095184.1224   24095182.4314
      1528.4534
  -2182878.60647  -1687297.17942  24032121.9894   24032121.6854
      2955.7664
 04  9 13 21 31 15.0010000  0  8G 3G 8G13G19G23G27G10G28
    662582.87448    514696.46343  23299081.9194   23299081.0324
      -997.1414
  -3811175.46649  -2954933.26646  21906116.3494   21906114.3564
      1637.5944
   1854748.83149   1436953.99947  20720138.2554   20720134.8494
     -1473.7814
  -3612763.62148  -2799745.47344  23132056.1144   23132053.4664
      1316.2034
   6273402.50347   4858546.85644  23086293.5994   23086289.9814
     -3435.7664
  -1347415.24649  -1046901.48146  21205064.8804   21205062.2474
       448.3284
  -1328619.96546  -1027958.25242  24090831.6144   24090830.9784
      1520.6884
  -2227192.05547  -1721827.03042  24023690.3724   24023689.7514
      2953.0164
 04  9 13 21 31 30.0010000  0  8G 3G 8G13G19G23G27G10G28
    677618.63948    526412.64443  23301943.3884   23301942.7434
     -1007.2344
  -3835709.53749  -2974050.69646  21901447.9504   21901445.1614
      1633.9694
   1876921.91749   1454231.70947  20724357.3724   20724353.9894
     -1482.2974
  -3632444.93948  -2815081.52544  23128310.8254   23128308.4894
      1308.3444
   6324977.85647   4898735.40344  23096107.3724   23096104.6184
     -3440.5474
  -1354112.95249  -1052120.47646  21203790.1144   21203786.8214
       445.0474
  -1351358.94347  -1045676.90342  24086505.1224   24086504.0014
      1511.5634
  -2271456.71347  -1756318.90942  24015267.1064   24015265.7314
      2949.2974
 04  9 13 21 31 45.0010000  0  8G 3G 8G13G19G23G27G10G28
    692800.68048    538242.81243  23304832.9584   23304831.2944
     -1017.0004
  -3860193.50149  -2993129.09745  21896788.5364   21896786.4194
      1630.6724
   1899218.29749   1471605.51147  20728599.8724   20728596.4464
     -1490.5474
  -3652013.53148  -2830329.72444  23124586.9504   23124583.8684
      1300.7974
   6376622.67648   4938978.03044  23105935.5524   23105932.7354
     -3445.3284
  -1360765.82649  -1057304.53446  21202524.4114   21202521.1884
       442.0004
  -1373967.87646  -1063294.23642  24082202.5524   24082201.9154
      1502.9844
  -2315670.38447  -1790771.00342  24006853.5284   24006852.7354
      2945.9064
 04  9 13 21 32  0.0010000  0  8G 3G 8G13G19G23G27G10G28
    708130.17548    550187.87343  23307749.7244   23307749.1464
     -1026.9064
  -3884626.16049  -3012167.52946  21892138.9664   21892136.6814
      1627.1414
   1921639.32049   1489076.42147  20732867.0054   20732863.1304
     -1498.8444
  -3671467.68948  -2845488.76044  23120884.6854   23120882.1064
      1293.0944
   6428338.08948   4979275.67844  23115776.3024   23115773.6464
     -3450.0474
  -1367372.49849  -1062452.58746  21201266.7864   21201264.0484
       438.9384
  -1396445.15846  -1080808.99842  24077925.3334   24077924.4624
      1494.0474
  -2359831.52047  -1825182.22742  23998449.4744   23998448.2984
      2942.3594
 04  9 13 21 32 15.0010000  0  8G 3G 8G13G19G23G27G10G28
    723602.81748    562244.47443  23310693.6144   23310692.9584
     -1036.0944
  -3909011.75149  -3031169.26946  21887498.5364   21887496.3684
      1624.3134
   1944180.59249   1506641.05546  20737156.3254   20737152.4424
     -1506.5474
  -3690811.49548  -2860561.79144  23117203.7004   23117201.7124
      1286.1254
   6480119.70048   5019624.94844  23125630.3024   23125627.8964
     -3454.0944
  -1373937.31148  -1067568.01946  21200017.8334   21200015.1494
       436.4534
  -1418794.97446  -1098224.41242  24073672.2164   24073671.5994
      1485.9384
  -2403944.24047  -1859555.65442  23990055.0134   23990053.9704
      2939.4534
 04  9 13 21 32 30.0010000  0  8G 3G 8G13G19G23G27G10G28
    739219.01648    574412.94143  23313665.0524   23313665.1264
     -1045.5474
  -3933349.87149  -3050134.02246  21882867.1384   21882864.9194
      1621.1884
   1966842.70149   1524299.82847  20741469.1384   20741464.6774
     -1514.5944
  -3710044.09148  -2875548.18044  23113544.2714   23113541.0484
      1278.7194
   6531967.72447   5060025.93744  23135496.8104   23135494.5444
     -3458.5164
  -1380459.71048  -1072650.40647  21198776.7554   21198773.9584
       433.6564
  -1441016.59147  -1115539.93242  24069443.6144   24069443.0324
      1477.4534
  -2448007.85947  -1893890.86842  23981669.4354   23981668.9744
      2936.2194
 04  9 13 21 32 45.0010000  0  8G 3G 8G13G19G23G27G10G28
    754978.69148    586693.19343  23316664.6694   23316663.5954
     -1055.4064
  -3957640.42149  -3069061.71246  21878244.8024   21878242.8294
      1617.7504
   1989625.35549   1542052.54047  20745804.0284   20745800.6654
     -1522.9064
  -3729165.35648  -2890447.83344  23109905.5604   23109902.7714
      1271.0164
   6583881.84448   5100478.43544  23145375.4584   23145373.1494
     -3463.1254
  -1386939.86149  -1077699.87846  21197543.2784   21197540.3104
       430.6094
  -1463109.95947  -1132755.54042  24065239.0364   24065238.6614
      1468.6094
  -2492022.34347  -1928187.77742  23973294.4504   23973292.9464
      2932.6254
 04  9 13 21 33  0.0010000  0  8G 3G 8G13G19G23G27G10G28
    770884.80948    599087.58743  23319691.6464   23319690.4464
     -1065.4844
  -3981880.33749  -3087949.93946  21873632.1534   21873630.1814
      1613.9844
   2012531.89049   1559901.77247  20750163.2004   20750159.1614
     -1531.4844
  -3748171.86248  -2905258.05544  23106288.4504   23106285.6654
      1262.9844
   6635865.01748   5140984.72044  23155268.1144   23155265.6304
     -3468.0944
  -1393374.45249  -1082713.84646  21196318.8964   21196315.8724
       427.2194
  -1485071.83346  -1149868.66742  24061059.9504   24061059.1574
      1459.4844
  -2535984.42848  -1962443.84242  23964927.8334   23964927.5134
      2928.8444
 04  9 13 21 33 15.0010000  0  8G 3G 8G13G19G23G27G10G28
    786937.26048    611595.98543  23322746.2944   23322745.1304
     -1075.1724
  -4006069.39949  -3106798.54846  21869029.5284   21869027.6964
      1610.6884
   2035562.21248   1577847.48346  20754545.5604   20754542.4074
     -1539.6414
  -3767063.33048  -2919978.63644  23102694.2244   23102690.5874
      1255.4384
   6687917.10748   5181544.73844  23165173.6534   23165170.4034
     -3472.5624
  -1399763.59848  -1087692.38646  21195103.3414   21195100.7594
       424.2034
  -1506901.83946  -1166879.03542  24056905.9504   24056904.9664
      1450.7974
  -2579893.77147  -1996658.81242  23956572.4894   23956571.7314
      2925.3594
 04  9 13 21 33 30.0010000  0  8G 3G 8G13G19G23G27G10G28
    803134.11248    624216.87843  23325828.5444   23325828.5834
     -1084.6414
  -4030209.82649  -3125609.25546  21864435.2314   21864433.0214
      1607.6414
   2058714.21548   1595887.99746  20758951.0604   20758948.3174
     -1547.5784
  -3785841.69148  -2934611.08245  23099119.8564   23099117.7314
      1248.0634
   6740035.67748   5222156.54644  23175090.6854   23175088.4384
     -3476.8124
  -1406109.41448  -1092637.18046  21193895.9034   21193892.7784
       421.5784
  -1528601.94246  -1183788.19942  24052776.6694   24052775.6104
      1442.3284
  -2623752.40947  -2030834.29042  23948225.7394   23948225.7594
      2922.1094
 04  9 13 21 33 45.0010000  0  8G 3G 8G13G19G23G27G10G28
    819476.51448    636951.20043  23328937.9274   23328937.4744
     -1094.5004
  -4054300.30849  -3144381.04246  21859851.2474   21859849.0564
      1604.1724
   2081989.17049   1614024.30747  20763380.2394   20763377.5564
     -1555.9694
  -3804505.26748  -2949154.09544  23095568.6064   23095566.1104
      1240.2504
   6792221.90948   5262821.08044  23185022.2784   23185018.7434
     -3481.4844
  -1412410.41048  -1097547.05546  21192696.3414   21192693.4114
       418.3134
  -1550170.67146  -1200594.99842  24048671.6064   24048671.4814
      1433.3914
  -2667558.76547  -2064969.03842  23939890.2394   23939889.4584
      2918.4694
 04  9 13 21 34  0.0010000  0  8G 3G 8G13G19G23G27G10G28
    835962.34148    649797.29643  23332075.3884   23332074.5174
     -1103.9694
  -4078343.00849  -3163115.59846  21855275.7474   21855273.7744
      1601.1094
   2105384.85848   1632254.71346  20767832.2864   20767828.7084
     -1563.8284
  -3823055.85548  -2963609.07044  23092038.8174   23092035.8454
      1232.7504
   6844473.58248   5303536.61444  23194965.9354   23194962.2354
     -3485.6874
  -1418668.79948  -1102423.72446  21191505.3644   21191502.7204
       415.6724
  -1571609.91046  -1217300.85142  24044592.0994   24044591.2864
      1424.8594
  -2711314.80647  -2099064.55242  23931563.9584   23931562.9544
      2915.2814
 04  9 13 21 34 15.0010000  0  8G 3G 8G13G19G23G27G10G28
    852592.70048    662756.00543  23335240.2084   23335239.7394
     -1113.3914
  -4102336.45149  -3181811.76946  21850710.0754   21850708.0794
      1598.0784
   2128902.60549   1650580.22346  20772307.9274   20772303.9894
     -1571.7814
  -3841491.90148  -2977974.77544  23088530.1224   23088526.9074
      1225.4224
   6896791.86748   5344304.03444  23204920.9814   23204918.2434
     -3489.9224
  -1424883.26349  -1107266.14946  21190322.5674   21190319.9854
       413.0004
  -1592918.07846  -1233904.60542  24040536.9584   24040536.8374
      1416.3284
  -2755018.93947  -2133119.61042  23923247.3964   23923246.8764
      2912.0314
 04  9 13 21 34 30.0010000  0  8G 3G 8G13G19G23G27G10G28
    869367.11148    675826.97343  23338431.9034   23338431.4584
     -1122.8124
  -4126280.77149  -3200469.66446  21846153.7164   21846151.2044
      1594.8914
   2152542.06449   1669000.56646  20776806.4114   20776802.8454
     -1579.7974
  -3859813.50248  -2992251.32344  23085044.1774   23085040.8134
      1217.8754
   6949176.05748   5385122.82244  23214889.5364   23214886.9354
     -3494.1724
  -1431054.15449  -1112074.63746  21189148.7784   21189145.7474
       410.1254
  -1614095.44846  -1250406.42642  24036507.4504   24036507.1614
      1407.6884
  -2798671.38947  -2167134.43242  23914940.0604   23914938.9664
      2908.7194
 04  9 13 21 34 45.0010000  0  8G 3G 8G13G19G23G27G10G28
    886283.08248    689008.23543  23341651.0444   23341650.5284
     -1132.5784
  -4150178.82449  -3219091.50946  21841605.9114   21841603.4704
      1591.5164
   2176300.55349   1687513.66447  20781327.2634   20781323.4974
     -1587.9844
  -3878022.97148  -3006440.48344  23081578.4894   23081575.0014
      1210.0474
   7001623.34948   5425990.77543  23224868.9354   23224866.8994
     -3498.6874
  -1437183.91049  -1116851.07847  21187982.5674   21187979.8254
       407.1414
  -1635144.29046  -1266808.13542  24032501.8024   24032500.7124
      1398.7974
  -2842274.52248  -2201110.81442  23906641.9424   23906642.0914
      2905.0634
 04  9 13 21 35  0.0010000  0  8G 3G 8G13G19G23G27G10G28
    903345.85148    702303.89443  23344898.4194   23344897.6034
     -1142.5474
  -4174024.89949  -3237672.85546  21837067.8024   21837066.1224
      1587.9384
   2200183.52849   1706123.76647  20785871.3174   20785869.0014
     -1596.4534
  -3896114.62348  -3020537.85144  23078135.8174   23078132.3454
      1202.1254
   7054139.00148   5466911.99044  23234863.5524   23234860.8964
     -3503.4064
  -1443267.29849  -1121591.38246  21186825.1144   21186821.8454
       403.8914
  -1656059.10346  -1283105.37242  24028522.4504   24028521.3024
      1389.7034
  -2885822.81848  -2235044.47842  23898356.0054   23898354.6614
      2901.2814
 04  9 13 21 35 15.0010000  0  8G 3G 8G13G19G23G27G10G28
    920549.25348    715709.13543  23348171.3024   23348171.3374
     -1151.7034
  -4197825.46849  -3256218.72646  21832538.8724   21832536.9504
      1585.0314
   2224184.80449   1724826.05246  20790439.3564   20790436.4114
     -1604.1874
  -3914094.39148  -3034548.03544  23074714.3174   23074711.4034
      1194.7344
   7106716.70848   5507881.55344  23244868.6464   23244865.4974
     -3507.4224
  -1449310.35149  -1126300.25946  21185674.7944   21185671.8884
       401.3594
  -1676845.83446  -1299302.79442  24024566.2004   24024565.5874
      1381.3914
  -2929322.32847  -2268940.13542  23890078.2784   23890076.9504
      2898.1724
 04  9 13 21 35 30.0010000  0  8G 3G 8G13G19G23G27G10G28
    937898.09248    729227.70143  23351473.6064   23351472.8294
     -1161.4374
  -4221575.55949  -3274725.28446  21828019.2944   21828017.4504
      1581.6254
   2248309.31049   1743624.35746  20795029.9274   20795026.7164
     -1612.3914
  -3931957.05348  -3048466.93545  23071314.8884   23071312.4584
      1186.9224
   7159361.19648   5548903.18343  23254886.4424   23254883.7514
     -3511.8914
  -1455308.17549  -1130973.87946  21184533.3104   21184530.3374
       398.3284
  -1697499.36346  -1315396.44243  24020635.9894   24020635.3604
      1372.4224
  -2972767.73748  -2302793.60443  23881810.3334   23881809.7314
      2894.5634
 04  9 13 21 35 45.0010000  0  8G 3G 8G13G19G23G27G10G28
    955393.64148    742860.56843  23354802.0134   23354801.6224
     -1171.6094
  -4245273.69049  -3293191.33846  21823509.4424   21823507.8024
      1577.8444
   2272558.25149   1762519.62746  20799644.7784   20799641.4234
     -1621.0474
  -3949700.99948  -3062293.35945  23067938.2944   23067935.6694
      1178.7814
   7212073.55648   5589977.67243  23264917.0914   23264913.8964
     -3516.9064
  -1461259.34048  -1135611.14846  21183400.8804   21183398.5714
       394.9224
  -1718018.31446  -1331385.23443  24016731.9194   24016730.5914
      1363.3284
  -3016157.73148  -2336603.91442  23873553.6694   23873552.8254
      2890.5314
 04  9 13 21 36  0.0010000  0  8G 3G 8G13G19G23G27G10G28
    973033.91448    756606.23843  23358159.4034   23358158.1614
     -1180.7034
  -4268921.67249  -3311618.31046  21819009.6774   21819007.9544
      1574.9534
   2296929.60648   1781510.28847  20804282.0524   20804279.2314
     -1628.6564
  -3967327.92648  -3076028.58744  23064584.4814   23064581.5634
      1171.3754
   7264851.64848   5631103.40743  23274961.0214   23274957.4784
     -3520.5314
  -1467165.87848  -1140213.64147  21182277.0134   21182274.0444
       392.4064
  -1738404.32546  -1347270.43042  24012852.0134   24012851.6884
      1354.7504
  -3059494.02847  -2370372.36843  23865307.2864   23865306.2314
      2887.4064
 04  9 13 21 36 15.0010000  0  8G 3G 8G13G19G23G27G10G28
    990815.77248    770462.23743  23361543.1064   23361542.8684
     -1190.2974
  -4292522.69149  -3330008.70346  21814518.6694   21814516.6654
      1571.6884
   2321420.33648   1800593.96747  20808942.5834   20808939.5014
     -1636.8594
  -3984840.47649  -3089674.71444  23061251.6384   23061248.1344
      1163.4534
   7317692.39148   5672277.94843  23285016.7314   23285013.4384
     -3524.9694
  -1473030.65148  -1144783.59547  21181160.8724   21181157.8804
       389.4224
  -1758660.17946  -1363054.17342  24008997.7244   24008996.6574
      1345.8914
  -3102779.44048  -2404101.23042  23857070.3414   23857068.8764
      2883.7974
 04  9 13 21 36 30.0010000  0  8G 3G 8G13G19G23G27G10G28
   1008738.31748    784427.83243  23364953.4034   23364952.6574
     -1199.7504
  -4316077.43249  -3348363.03746  21810036.3024   21810034.0444
      1568.5944
   2346029.68549   1819770.06647  20813625.6464   20813622.2084
     -1644.8124
  -4002239.29749  -3103232.20845  23057940.6534   23057938.0794
      1155.9224
   7370594.64048   5713500.39943  23295082.7864   23295080.8644
     -3529.0784
  -1478854.62549  -1149321.75847  21180052.9504   21180049.8804
       386.6414
  -1778786.58046  -1378737.05842  24005167.6924   24005166.7984
      1337.2194
  -3146014.60248  -2437790.88642  23848842.4504   23848841.8334
      2880.3594
 04  9 13 21 36 45.0010000  0  8G 3G 8G13G19G23G27G10G28
   1026807.83648    798507.97743  23368392.2164   23368391.5564
     -1209.4374
  -4339579.52249  -3366676.32846  21805564.0134   21805561.3924
      1565.1884
   2370763.92349   1839043.48847  20818332.6304   20818329.2824
     -1653.0474
  -4019517.67848  -3116695.84144  23054652.5284   23054650.2284
      1147.9694
   7423564.61048   5754775.63744  23305162.8414   23305160.4274
     -3533.4534
  -1484631.30349  -1153823.05646  21178953.2164   21178950.3374
       383.6724
  -1798776.91946  -1394313.95442  24001364.0914   24001363.0714
      1328.2344
  -3189192.85748  -2471436.24043  23840625.9744   23840625.1534
      2876.7344
 04  9 13 21 37  0.0010000  0  8G 3G 8G13G19G23G27G10G28
   1045022.85648    812701.50343  23371858.3494   23371857.7394
     -1219.0314
  -4363030.34949  -3384949.69246  21801101.5754   21801098.9544
      1561.8754
   2395621.56249   1858413.07446  20823062.6774   20823059.3254
     -1661.1724
  -4036676.82948  -3130066.58045  23051387.7474   23051384.2824
      1140.1094
   7476600.61248   5796102.33343  23315255.3414   23315252.7284
     -3537.7974
  -1490362.08948  -1158288.60346  21177862.9114   21177859.4934
       380.7034
  -1818632.50746  -1409785.80342  23997584.7554   23997584.1734
      1319.4384
  -3232315.52848  -2505038.24743  23832419.8964   23832419.3024
      2873.1724
 04  9 13 21 37 15.0010000  0  8G 3G 8G13G19G23G27G10G28
   1063382.33048    827007.57343  23375352.0524   23375350.9074
     -1228.7034
  -4386430.85849  -3403183.83246  21796648.9194   21796646.2984
      1558.4694
   2420601.59149   1877878.02247  20827816.3644   20827812.7284
     -1669.3124
  -4053717.47648  -3143344.96544  23048144.9814   23048141.4314
      1132.1254
   7529701.56848   5837479.62443  23325360.5994   23325357.4504
     -3542.0474
  -1496048.00449  -1162719.18846  21176780.6464   21176777.6264
       377.6724
  -1838354.07947  -1425153.26042  23993832.7864   23993831.7474
      1310.3914
  -3275383.50148  -2538597.64542  23824223.8494   23824223.4744
      2869.5314
 04  9 13 21 37 30.0010000  0  8G 3G 8G13G19G23G27G10G28
   1081887.02148    841426.80443  23378873.4814   23378872.8294
     -1238.3754
  -4409779.90649  -3421377.87546  21792205.0604   21792203.1884
      1555.0784
   2445704.97149   1897439.08546  20832592.8254   20832589.7164
     -1677.4534
  -4070638.49948  -3156530.16244  23044924.9974   23044921.8334
      1124.2664
   7582868.11048   5878908.04144  23335477.6534   23335474.7554
     -3546.5164
  -1501688.09748  -1167114.06746  21175707.0754   21175704.3414
       374.6254
  -1857940.57846  -1440415.44842  23990104.9194   23990104.7284
      1301.5784
  -3318395.56048  -2572113.45042  23816039.7084   23816038.8024
      2865.7344
 04  9 13 21 37 45.0010000  0  8G 3G 8G13G19G23G27G10G28
   1100538.78248    855960.63243  23382423.4194   23382422.3604
     -1248.3754
  -4433075.65249  -3439530.39746  21787772.1614   21787769.9034
      1551.2344
   2470933.55449   1917097.70846  20837393.6614   20837390.0564
     -1686.0784
  -4087437.57248  -3169620.30844  23041727.8334   23041724.8604
      1115.8914
   7636102.08848   5920388.97844  23345607.8644   23345604.6654
     -3551.2194
  -1507280.26449  -1171471.60546  21174643.3564   21174640.5954
       371.2034
  -1877389.79647  -1455570.68542  23986404.1694   23986403.5714
      1292.0164
  -3361349.59448  -2605584.09842  23807865.6064   23807864.3844
      2861.6094
 04  9 13 21 38  0.0010000  0  8G 3G 8G13G19G23G27G10G28
   1119334.93848    870606.99743  23385999.8884   23385998.4154
     -1257.7194
  -4456320.76849  -3457643.45446  21783348.7864   21783346.8964
      1548.1724
   2496284.77649   1936851.90246  20842217.9974   20842214.8104
     -1693.9534
  -4104117.04249  -3182617.28444  23038554.8884   23038551.0444
      1108.1094
   7689400.58148   5961920.20143  23355749.7314   23355747.1884
     -3555.3444
  -1512827.24149  -1175793.91546  21173588.1224   21173584.8724
       368.4384
  -1896704.20546  -1470620.85342  23982728.7394   23982727.9114
      1283.2974
  -3404247.98248  -2639011.35542  23799702.6144   23799701.7594
      2858.0944
 04  9 13 21 38 15.0010000  0  8G 3G 8G13G19G23G27G10G28
   1138272.70248    885363.67143  23389602.7714   23389602.4314
     -1267.3124
  -4479517.77849  -3475719.03746  21778934.7784   21778932.1774
      1544.8444
   2521755.74149   1956699.38146  20847065.2714   20847062.0634
     -1702.1414
  -4120679.48848  -3195523.05444  23035402.0754   23035398.9194
      1100.3134
   7742760.71147   6003499.46543  23365904.0444   23365901.5244
     -3559.4534
  -1518331.68449  -1180083.09946  21172540.3254   21172537.4664
       365.4694
  -1915886.44846  -1485568.01242  23979077.9194   23979077.0714
      1274.3444
  -3447093.46548  -2672397.38742  23791548.8174   23791547.8174
      2854.5474
 04  9 13 21 38 30.0010000  0  8G 3G 8G13G19G23G27G10G28
   1157354.81448    900232.87143  23393234.3254   23393233.7434
     -1276.9694
  -4502663.86949  -3493754.93646  21774529.9974   21774527.9894
      1541.3594
   2547349.34949   1976642.44147  20851935.0364   20851932.6104
     -1710.3594
  -4137121.75048  -3208335.15945  23032273.6384   23032270.3454
      1092.1564
   7796185.12248   6045128.80544  23376070.9114   23376068.4384
     -3563.8754
  -1523790.78449  -1184336.93346  21171501.9974   21171498.9934
       362.4064
  -1934933.47146  -1500409.84942  23975453.6224   23975452.8334
      1265.1564
  -3489882.78148  -2705739.65543  23783406.7004   23783405.3334
      2850.7504
 04  9 13 21 38 45.0010000  0  8G 3G 8G13G19G23G27G10G28
   1176582.37848    915215.37843  23396893.1614   23396892.2394
     -1286.5164
  -4525757.77849  -3511750.17246  21770135.0604   21770133.1694
      1538.0474
   2573066.73849   1996681.96646  20856829.3494   20856826.2044
     -1718.4064
  -4153442.35548  -3221052.48245  23029167.3494   23029164.1884
      1084.1724
   7849674.87448   6086809.05443  23386248.7784   23386247.1814
     -3568.0314
  -1529203.24449  -1188554.43846  21170471.5914   21170468.6184
       359.4224
  -1953843.78647  -1515145.11442  23971855.2634   23971854.5604
      1256.3594
  -3532614.64348  -2739037.12942  23775274.5444   23775273.6574
      2847.0634
 04  9 13 21 39  0.0010000  0  8G 3G 8G13G19G23G27G10G28
   1195952.93448    930309.32643  23400579.8414   23400579.1884
     -1296.3124
  -4548801.89049  -3529706.60646  21765750.5284   21765747.7864
      1534.5164
   2598905.57449   2016816.10746  20861746.2164   20861743.0874
     -1726.7504
  -4169643.30848  -3233676.57944  23026084.4354   23026081.6964
      1075.9694
   7903227.46248   6128538.27743  23396440.1464   23396438.1614
     -3572.4224
  -1534571.33049  -1192737.35146  21169450.1854   21169446.7784
       356.2664
  -1972619.60447  -1529775.61042  23968282.3024   23968281.4114
      1247.0944
  -3575291.12648  -2772291.46742  23767153.2004   23767152.2514
      2843.1564
 04  9 13 21 39 15.0010000  0  8G 3G 8G13G19G23G27G10G28
   1215465.56548    945513.97543  23404292.4814   23404292.2674
     -1305.7814
  -4571797.05449  -3547624.88946  21761374.7004   21761371.9314
      1531.2504
   2624864.87949   2037044.13646  20866686.0524   20866683.0524
     -1734.7814
  -4185725.41248  -3246208.06744  23023024.0914   23023021.1534
      1068.0164
   7956841.59948   6170315.48043  23406642.1614   23406640.5054
     -3576.4844
  -1539895.93849  -1196886.39146  21168436.7314   21168433.8644
       353.4064
  -1991261.69646  -1544301.88742  23964735.0054   23964733.9584
      1238.2034
  -3617912.97348  -2805503.22143  23759042.9034   23759041.4424
      2839.4534
 04  9 13 21 39 30.0010000  0  8G 3G 8G13G19G23G27G10G28
   1235119.34548    960828.60243  23408032.5674   23408031.2824
     -1314.8754
  -4594743.85649  -3565505.51846  21757007.8494   21757005.9384
      1528.2344
   2650943.80449   2057365.35746  20871648.6144   20871645.2124
     -1742.5474
  -4201689.15248  -3258647.32544  23019986.5914   23019983.5404
      1060.3284
   8010516.52447   6212140.01443  23416856.1774   23416853.8024
     -3580.2344
  -1545177.79449  -1201002.12346  21167431.8494   21167428.8454
       350.6884
  -2009770.54346  -1558724.35842  23961212.2864   23961211.6064
      1229.4694
  -3660480.77548  -2838672.87743  23750942.3884   23750941.3414
      2836.0004
 04  9 13 21 39 45.0010000  0  8G 3G 8G13G19G23G27G10G28
   1254916.55748    976254.99843  23411799.7864   23411799.0994
     -1324.8124
  -4617640.10049  -3583346.72246  21752650.7554   21752648.4154
      1524.5314
   2677144.71449   2077781.63846  20876634.4814   20876631.1464
     -1751.0164
  -4217531.93948  -3270992.31945  23016972.0284   23016968.4784
      1051.9694
   8064254.33548   6254013.56843  23427082.3024   23427079.6304
     -3584.7974
  -1550414.54049  -1205082.69846  21166435.0754   21166432.4114
       347.4534
  -2028143.74546  -1573041.11742  23957716.1774   23957714.9274
      1220.2344
  -3702992.11048  -2871798.51543  23742852.9354   23742851.4274
      2832.0164
 04  9 13 21 40  0.0010000  0  8G 3G 8G13G19G23G27G10G28
   1274855.62048    991791.94043  23415593.9504   23415593.2904
     -1333.9224
  -4640486.94549  -3601149.43946  21748303.2084   21748301.0604
      1521.6414
   2703466.03949   2098291.74446  20881643.5214   20881640.1224
     -1758.6414
  -4233254.66348  -3283243.76144  23013980.1774   23013976.2904
      1044.3444
   8118053.28947   6295934.76443  23437320.0604   23437317.6464
     -3588.4064
  -1555607.71749  -1209129.31947  21165446.9274   21165444.1964
       344.8914
  -2046382.57646  -1587253.19842  23954245.3724   23954244.1224
      1211.5944
  -3745448.23248  -2904881.15542  23734773.6854   23734771.9544
      2828.7344
 04  9 13 21 40 15.0010000  0  8G 3G 8G13G19G23G27G10G28
   1294939.45148   1007441.67143  23419415.8174   23419415.6694
     -1343.7504
  -4663281.54549  -3618911.46146  21743965.7394   21743963.3564
      1517.8594
   2729910.90949   2118898.12846  20886676.0834   20886672.1924
     -1767.1414
  -4248854.33949  -3295399.33844  23011011.2244   23011008.3454
      1035.8284
   8171916.31748   6337905.88543  23447570.2714   23447567.9354
     -3593.0624
  -1560754.13849  -1213139.52246  21164467.7084   21164464.8564
       341.5474
  -2064483.76246  -1601357.98442  23950800.4814   23950799.8884
      1202.0944
  -3787845.91048  -2937918.24042  23726705.2944   23726704.0284
      2824.5314
 04  9 13 21 40 30.0010000  0  8G 3G 8G13G19G23G27G10G28
   1315166.94748   1023203.35443  23423264.9814   23423264.3964
     -1353.2194
  -4686024.92449  -3636633.56346  21739637.3884   21739634.8334
      1514.6254
   2756478.13549   2139599.85146  20891731.4504   20891728.1104
     -1775.1254
  -4264331.61548  -3307459.51645  23008066.3564   23008063.0324
      1027.8914
   8225842.11848   6379925.91443  23457831.9974   23457829.1304
     -3597.0784
  -1565854.81949  -1217114.06346  21163496.9664   21163493.7044
       338.6254
  -2082448.18946  -1615356.23542  23947382.5284   23947381.8804
      1193.1724
  -3830185.91848  -2970910.36243  23718648.1924   23718646.8494
      2820.7974
 04  9 13 21 40 45.0010000  0  8G 3G 8G13G19G23G27G10G28
   1335536.85548   1039075.99643  23427140.1224   23427140.3804
     -1362.6724
  -4708718.13349  -3654316.57146  21735319.4194   21735317.1384
      1511.3134
   2783166.52149   2160395.97746  20896810.3414   20896806.7434
     -1783.0944
  -4279687.34849  -3319424.98644  23005143.8724   23005141.3414
      1019.7814
   8279829.34747   6421993.80143  23468105.3334   23468102.2984
     -3601.0314
  -1570910.93149  -1221053.89546  21162534.8884   21162531.7714
       335.7664
  -2100276.88847  -1629248.71042  23943990.1144   23943988.6964
      1184.0784
  -3872469.22148  -3003858.35043  23710602.1534   23710600.0444
      2817.1724
 04  9 13 21 41  0.0010000  0  8G 3G 8G13G19G23G27G10G28
   1356050.93448   1055060.99643  23431045.1534   23431043.8334
     -1372.5314
  -4731359.37549  -3671959.07946  21731010.5524   21731007.8764
      1507.5634
   2809977.80549   2181287.88147  20901912.1924   20901908.6964
     -1791.5784
  -4294919.60249  -3331294.25544  23002245.0834   23002242.3294
      1011.2504
   8333879.60547   6464110.82643  23478391.5674   23478388.6264
     -3605.5164
  -1575920.58249  -1224957.50846  21161581.8644   21161578.8374
       332.3594
  -2117967.93447  -1643033.90642  23940623.7394   23940622.5634
      1174.7504
  -3914693.96948  -3036760.68743  23702567.0604   23702565.3644
      2812.9844
 04  9 13 21 41 15.0010000  0  8G 3G 8G13G19G23G27G10G28
   1376707.14948   1071156.75143  23434975.1774   23434974.9234
     -1381.9224
  -4753950.35549  -3689562.43346  21726711.9584   21726709.3254
      1504.2504
   2836910.11349   2202274.08046  20907036.8494   20907033.7744
     -1799.7344
  -4310029.88549  -3343068.49545  22999369.8564   22999366.2354
      1003.1564
   8387990.84847   6506275.34143  23488687.4974   23488685.3334
     -3609.5784
  -1580885.68249  -1228826.42046  21160636.8254   21160633.9504
       329.3284
  -2135522.93446  -1656713.12742  23937282.6064   23937281.5954
      1165.6564
  -3956861.77848  -3069618.65243  23694542.4814   23694541.4194
      2809.1254
 04  9 13 21 41 30.0010000  0  8G 3G 8G13G19G23G27G10G28
   1397507.93648   1087365.16543  23438933.7004   23438933.3214
     -1391.6874
  -4776488.46749  -3707124.59146  21722422.6384   21722420.4464
      1500.7034
   2863965.92849   2223356.51346  20912186.1924   20912182.4274
     -1807.9374
  -4325015.49349  -3354745.56344  22996517.9354   22996514.2944
       994.7814
   8442165.34347   6548489.16243  23498997.2474   23498995.3414
     -3613.8124
  -1585803.58749  -1232658.55846  21159701.1224   21159697.6924
       326.1884
  -2152939.11147  -1670284.18642  23933968.4744   23933967.0174
      1156.4694
  -3998969.90948  -3102430.10143  23686529.2944   23686528.2904
      2805.1094
 04  9 13 21 41 45.0010000  0  8G 3G 8G13G19G23G27G10G28
   1418453.32348   1103686.25543  23442919.9894   23442918.6964
     -1400.7034
  -4798973.57949  -3724645.43446  21718144.2004   21718141.8844
      1497.6564
   2891145.20649   2244535.16446  20917357.5914   20917354.0834
     -1815.6564
  -4339876.09648  -3366325.22345  22993690.1614   22993687.1464
       986.9534
   8496402.98847   6590752.20543  23509317.5994   23509316.1424
     -3617.4534
  -1590674.24749  -1236453.87246  21158774.2394   21158771.1654
       323.5474
  -2170216.29847  -1683746.89642  23930680.8644   23930679.5054
      1147.7034
  -4041018.07448  -3135194.84843  23678528.3644   23678526.6734
      2801.6564
 04  9 13 21 42  0.0010000  0  8G 3G 8G13G19G23G27G10G28
   1439540.90048   1120118.12843  23446932.4034   23446932.1694
     -1410.5624
  -4821408.07249  -3742126.85646  21713875.3564   21713873.0094
      1493.9064
   2918445.67549   2265808.23746  20922553.2634   20922549.2434
     -1824.1254
  -4354613.73648  -3377809.08244  22990885.9354   22990882.5674
       978.3444
   8550701.42547   6633062.58643  23519650.7784   23519649.3134
     -3622.0004
  -1595499.87249  -1240214.10646  21157855.8644   21157852.4894
       320.1884
  -2187356.58347  -1697102.94642  23927419.2474   23927418.3414
      1138.0784
  -4083008.38748  -3167914.53243  23670537.3254   23670536.7984
      2797.3754
 04  9 13 21 42 15.0010000  0  8G 3G 8G13G19G23G27G10G28
   1460769.48448   1136659.86443  23450971.9894   23450972.1614
     -1420.0474
  -4843792.94949  -3759569.58946  21709615.3884   21709613.0484
      1490.6254
   2945866.24349   2287174.91546  20927770.7864   20927767.4664
     -1832.1254
  -4369229.19349  -3389197.72745  22988104.7474   22988101.3134
       970.1564
   8605059.37648   6675419.38543  23529994.3414   23529993.3024
     -3625.9374
  -1600281.45749  -1243939.99846  21156945.5524   21156942.3604
       317.1884
  -2204360.98846  -1710353.11142  23924182.7314   23924182.7084
      1129.0004
  -4124941.67948  -3200589.74243  23662558.1854   23662556.7984
      2793.5314
 04  9 13 21 42 30.0010000  0  8G 3G 8G13G19G23G27G10G28
   1482138.06748   1153310.70143  23455038.3964   23455038.2554
     -1429.4844
  -4866129.13949  -3776974.41046  21705364.8104   21705362.4744
      1487.1724
   2973406.11649   2308634.53946  20933011.7394   20933007.9114
     -1840.2344
  -4383723.08848  -3400491.65844  22985346.4114   22985343.2714
       961.8594
   8659475.82147   6717821.70143  23540350.0754   23540348.1184
     -3629.9844
  -1605019.82449  -1247632.24146  21156044.2554   21156041.0604
       314.1724
  -2221230.02746  -1723497.82542  23920973.0674   23920971.8064
      1119.8914
  -4166818.66648  -3233221.09543  23654588.5134   23654587.8924
      2789.6414
 04  9 13 21 42 45.0010000  0  8G 3G 8G13G19G23G27G10G28
   1503652.72548   1170075.35343  23459132.7084   23459131.8134
     -1438.6874
  -4888410.42949  -3794336.43746  21701124.6224   21701122.5634
      1484.1094
   3001071.22749   2330191.75846  20938275.9424   20938272.6384
     -1848.0474
  -4398089.14948  -3411685.95345  22982612.5214   22982609.5284
       953.9384
   8713956.43248   6760274.07243  23550717.5134   23550715.5174
     -3633.6724
  -1609708.91449  -1251286.06146  21155151.6144   21155148.4704
       311.4224
  -2237957.56246  -1736532.22642  23917789.7554   23917789.2514
      1110.8754
  -4208633.20748  -3265803.79143  23646631.4974   23646630.5214
      2786.0314
 04  9 13 21 43  0.0010000  0  8G 3G 8G13G19G23G27G10G28
   1525304.88047   1186947.17043  23463252.9974   23463252.3644
     -1448.1874
  -4910645.16549  -3811662.18446  21696893.7714   21696891.3174
      1480.5314
   3028853.07349   2351839.93746  20943563.0214   20943559.2124
     -1856.2664
  -4412335.57148  -3422787.05645  22979901.0914   22979898.2354
       945.5784
   8768492.77447   6802769.82343  23561095.4664   23561092.7204
     -3637.7814
  -1614357.07649  -1254908.00546  21154267.5134   21154264.3884
       308.3284
  -2254551.86346  -1749462.87042  23914631.8644   23914631.1534
      1101.6564
  -4250393.37448  -3298344.13143  23638684.6064   23638684.0754
      2782.0634
 04  9 13 21 43 15.0010000  0  8G 3G 8G13G19G23G27G10G28
   1547099.74248   1203930.16943  23467400.2864   23467399.3494
     -1457.5784
  -4932828.02849  -3828947.51446  21692672.6924   21692670.1734
      1477.2504
   3056756.88049   2373583.15546  20948872.7944   20948869.2204
     -1864.1874
  -4426456.65848  -3433790.47144  22977214.3174   22977210.7164
       937.3754
   8823089.88147   6845312.96443  23571485.1614   23571482.8494
     -3641.7664
  -1618958.98149  -1258493.89547  21153391.8644   21153388.9624
       305.3594
  -2271007.33147  -1762285.31242  23911501.2784   23911499.8374
      1092.5004
  -4292093.76748  -3330837.87343  23630749.8254   23630748.6034
      2778.1094
 04  9 13 21 43 30.0010000  0  8G 3G 8G13G19G23G27G10G28
   1569035.35347   1221022.81543  23471574.7634   23471573.3804
     -1467.4534
  -4954960.58349  -3846193.65246  21688460.8104   21688458.5564
      1473.4064
   3084780.70649   2395419.88147  20954205.3644   20954201.7044
     -1872.7194
  -4440454.15849  -3444697.59245  22974550.8254   22974547.4504
       928.6414
   8877745.61647   6887901.75243  23581885.8024   23581883.5324
     -3646.1254
  -1623516.49849  -1262045.21846  21152524.5754   21152521.8414
       301.8914
  -2287325.75547  -1775000.94742  23908395.4504   23908394.4814
      1082.8444
  -4333736.05448  -3363286.35943  23622825.7394   23622824.4584
      2773.8134
 04  9 13 21 43 45.0010000  0  8G 3G 8G13G19G23G27G10G28
   1591115.13047   1238227.82043  23475776.2474   23475775.5404
     -1476.9064
  -4977039.45649  -3863397.95546  21684259.2784   21684256.9234
      1470.0314
   3112928.14149   2417352.93546  20959561.7474   20959558.5604
     -1880.7034
  -4454324.14148  -3455505.34144  22971910.6614   22971907.7354
       920.3594
   8932463.47148   6930538.98443  23592298.2864   23592296.3764
     -3650.0624
  -1628025.96149  -1265559.08347  21151666.2714   21151663.6144
       298.9064
  -2303503.41147  -1787606.93042  23905316.9814   23905315.7714
      1073.7504
  -4375316.53248  -3395686.67643  23614913.0834   23614910.8724
      2769.9224
 04  9 13 21 44  0.0010000  0  8G 3G 8G13G19G23G27G10G28
   1613340.67147   1255546.40643  23480006.0914   23480005.9424
     -1486.3914
  -4999062.75649  -3880558.95246  21680068.4584   21680065.9194
      1466.5944
   3141200.85649   2439383.61447  20964941.6924   20964939.1064
     -1888.7974
  -4468064.67248  -3466212.21644  22969296.3884   22969292.7284
       911.9844
   8987244.99447   6973225.80843  23602723.1464   23602721.3494
     -3653.8914
  -1632485.53649  -1269034.07246  21150817.8564   21150814.6224
       295.9064
  -2319538.41647  -1800101.71842  23902265.7634   23902264.3924
      1064.4534
  -4416833.25748  -3428037.30843  23607012.4744   23607010.6494
      2765.8914
 04  9 13 21 44 15.0010000  0  8G 3G 8G13G19G23G27G10G28
   1635705.95347   1272973.89843  23484261.5444   23484261.3644
     -1495.7814
  -5021036.27549  -3897681.16046  21675886.7714   21675884.4544
      1463.1254
   3169592.88149   2461507.26346  20970344.4974   20970341.7314
     -1896.8754
  -4481681.37848  -3476822.62044  22966705.7784   22966701.5214
       903.4694
   9042084.16648   7015957.54443  23613159.0134   23613156.7744
     -3658.0944
  -1636901.19349  -1272474.84146  21149977.5604   21149973.8724
       292.7974
  -2335436.47447  -1812489.77942  23899239.6144   23899239.1574
      1055.0634
  -4458291.91648  -3460342.69743  23599123.5054   23599121.4854
      2761.8444
 04  9 13 21 44 30.0010000  0  8G 3G 8G13G19G23G27G10G28
   1658209.54947   1290509.15343  23488543.5134   23488543.3964
     -1504.8124
  -5042961.38549  -3914765.64846  21671714.7164   21671712.4504
      1460.0314
   3198102.79749   2483722.76146  20975769.7314   20975766.6144
     -1904.6414
  -4495175.40248  -3487337.41144  22964137.1064   22964134.5324
       895.5004
   9096979.27447   7058732.87043  23623604.5214   23623603.3684
     -3661.4694
  -1641274.09249  -1275882.29646  21149145.3564   21149142.4114
       290.1414
  -2351198.84547  -1824772.14642  23896240.6694   23896240.0284
      1046.2814
  -4499693.70248  -3492603.79743  23591244.5134   23591242.7004
      2758.2194
 04  9 13 21 44 45.0010000  0  8G 3G 8G13G19G23G27G10G28
   1680850.41847   1308151.37843  23492851.8564   23492852.0634
     -1513.9534
  -5064838.91049  -3931813.06546  21667551.7554   21667549.0754
      1456.9534
   3226729.71249   2506029.43146  20981217.6224   20981213.9384
     -1912.3754
  -4508547.39548  -3497757.13044  22961592.4274   22961589.3684
       887.4224
   9151929.29247   7101550.96643  23634062.0994   23634060.0094
     -3665.1094
  -1645605.20349  -1279257.18446  21148321.0214   21148317.6104
       287.2814
  -2366826.22047  -1836949.32142  23893267.1144   23893266.3804
      1037.3594
  -4541039.26948  -3524821.06243  23583376.5674   23583374.8104
      2754.4384
 04  9 13 21 45  0.0010000  0  8G 3G 8G13G19G23G27G10G28
   1703629.18147   1325901.03743  23497187.0364   23497185.8764
     -1523.0944
  -5086668.36449  -3948823.01046  21663397.6534   21663395.0404
      1453.7344
   3255474.26849   2528427.78646  20986687.4504   20986683.8684
     -1920.1724
  -4521796.43448  -3508081.04245  22959071.1924   22959068.1694
       879.2034
   9206934.65848   7144412.24243  23644529.4424   23644526.9314
     -3668.7974
  -1649893.83049  -1282598.96646  21147505.0754   21147501.7084
       284.5164
  -2382317.81947  -1849020.68842  23890318.4354   23890318.1614
      1028.2664
  -4582327.79948  -3556993.88843  23575519.7164   23575518.6654
      2750.7344
 04  9 13 21 45 15.0010000  0  8G 3G 8G13G19G23G27G10G28
   1726545.38648   1343757.80843  23501547.8024   23501546.3064
     -1532.4374
  -5108449.87849  -3965795.60346  21659252.4894   21659250.3844
      1450.3754
   3284335.87449   2550917.32946  20992179.4504   20992175.9464
     -1928.0944
  -4534922.57848  -3518309.17144  22956573.1384   22956570.8964
       870.8444
   9261994.82847   7187316.17843  23655006.0364   23655004.3764
     -3672.6414
  -1654140.20649  -1285907.84546  21146697.1614   21146693.6964
       281.5634
  -2397673.77847  -1860986.34942  23887397.3334   23887395.8104
      1019.1884
  -4623559.41448  -3589122.37643  23567674.3334   23567671.8844
      2746.7504
 04  9 13 21 45 30.0010000  0  8G 3G 8G13G19G23G27G10G28
   1749606.20647   1361727.25043  23505936.5054   23505935.2314
     -1542.3444
  -5130175.94649  -3982724.99546  21655118.0914   21655116.3064
      1446.4694
   3313322.02849   2573503.92446  20997695.1304   20997691.8454
     -1936.7194
  -4547918.29148  -3528435.67444  22954100.7784   22954097.7354
       861.9384
   9317116.95347   7230268.41343  23665495.2394   23665493.6464
     -3677.0164
  -1658336.85649  -1289177.96146  21145898.3564   21145895.5174
       278.0164
  -2412886.56947  -1872840.50542  23884501.6614   23884501.3534
      1009.2504
  -4664726.65448  -3621200.67843  23559839.6854   23559838.5674
      2742.2504
 04  9 13 21 45 45.0010000  0  8G 3G 8G13G19G23G27G10G28
   1772803.26947   1379802.86543  23510350.4424   23510349.8684
     -1550.9534
  -5151854.78649  -3999617.59346  21650992.7554   21650990.4034
      1443.7664
   3342424.27149   2596180.97946  21003233.3334   21003229.7744
     -1943.9844
  -4560791.61748  -3538466.82744  22951650.9354   22951647.8964
       854.1724
   9372292.49347   7273262.24443  23675995.1144   23675993.6344
     -3680.0164
  -1662492.17649  -1292415.87346  21145107.0754   21145104.4314
       275.7504
  -2427964.41347  -1884589.46242  23881633.0754   23881632.3604
      1000.6724
  -4705837.57348  -3653235.11643  23552016.7864   23552015.7394
      2738.8284
 04  9 13 21 46  0.0010000  0  8G 3G 8G13G19G23G27G10G28
   1796137.48647   1397985.35943  23514791.2004   23514790.9464
     -1560.6564
  -5173485.45249  -4016472.63946  21646876.8964   21646874.6494
      1439.8594
   3371643.60849   2618949.28346  21008793.6304   21008790.3134
     -1952.4534
  -4573541.19648  -3548401.52745  22949225.1924   22949221.5364
       845.2664
   9427522.40247   7316298.48943  23686505.2394   23686503.9034
     -3684.3124
  -1666605.01049  -1295620.66546  21144324.7944   21144321.6924
       272.2344
  -2442906.07247  -1896232.31042  23878789.4894   23878788.5244
       990.9694
  -4746891.03648  -3685224.77343  23544204.5214   23544202.4624
      2734.4534
 04  9 13 21 46 15.0010000  0  8G 3G 8G13G19G23G27G10G28
   1819612.53747   1416277.57343  23519257.8024   23519257.4744
     -1569.7034
  -5195063.95449  -4033287.03946  21642770.1694   21642768.2354
      1436.7974
   3400983.86549   2641811.81146  21014376.6614   21014373.7674
     -1960.0314
  -4586163.00848  -3558236.67845  22946822.8414   22946819.5604
       837.1414
   9482810.31847   7359379.86643  23697026.4504   23697024.3564
     -3687.7664
  -1670671.54149  -1298789.38746  21143551.1384   21143547.9504
       269.5004
  -2457707.62647  -1907765.94442  23875971.9034   23875971.7594
       982.0004
  -4787882.95748  -3717166.45643  23536403.4034   23536402.7674
      2730.7664
 04  9 13 21 46 30.0010000  0  8G 3G 8G13G19G23G27G10G28
   1843230.61547   1434681.23643  23523752.8024   23523751.4704
     -1579.0944
  -5216588.09249  -4050059.08446  21638674.5754   21638671.9354
      1433.4224
   3430447.38049   2664770.38146  21019983.6064   21019980.7204
     -1968.1254
  -4598654.60549  -3567970.37244  22944445.7164   22944442.3104
       828.6884
   9538158.28847   7402508.08143  23707559.6464   23707557.5214
     -3691.6094
  -1674689.38149  -1301920.17546  21142786.5364   21142783.7244
       266.4534
  -2472366.58647  -1919188.51542  23873183.0914   23873182.1614
       972.7814
  -4828810.84148  -3749058.27043  23528615.5604   23528614.1534
      2726.6094
 04  9 13 21 46 45.0010000  0  8G 3G 8G13G19G23G27G10G28
   1866989.18747   1453194.40943  23528272.8494   23528272.9854
     -1588.6724
  -5238060.11149  -4066790.50746  21634588.6614   21634586.4784
      1429.6414
   3460031.64949   2687823.04646  21025613.3494   21025610.4114
     -1976.3124
  -4611018.05848  -3577604.19545  22942092.7084   22942089.6694
       819.8914
   9593563.72647   7445681.07843  23718102.3174   23718100.3644
     -3695.6094
  -1678660.76649  -1305014.76046  21142030.4034   21142027.8844
       263.1724
  -2486885.11848  -1930501.65142  23870421.0134   23870419.6384
       963.1564
  -4869676.93148  -3780901.89943  23520839.0054   23520836.9894
      2722.2664
 04  9 13 21 47  0.0010000  0  8G 3G 8G13G19G23G27G10G28
   1890885.68647   1471815.01443  23532821.0364   23532819.9114
     -1597.6094
  -5259482.27649  -4083483.09946  21630512.0214   21630509.5364
      1426.5164
   3489734.02849   2710967.74046  21031265.3884   21031262.5524
     -1984.0624
  -4623255.64848  -3587139.95244  22939763.9194   22939760.9704
       811.6724
   9649023.97247   7488896.77543  23728656.1064   23728653.7634
     -3699.1564
  -1682588.27949  -1308075.15946  21141283.3254   21141280.4114
       260.3914
  -2501265.62247  -1941707.23242  23867683.4354   23867682.6144
       954.1254
  -4910483.44648  -3812699.12443  23513073.0444   23513071.8104
      2718.4694
 04  9 13 21 47 15.0010000  0  8G 3G 8G13G19G23G27G10G28
   1914920.48047   1490543.39243  23537394.1464   23537394.1694
     -1606.4694
  -5280854.00749  -4100136.38346  21626444.8494   21626442.8064
      1423.5164
   3519555.03849   2734204.87046  21036940.4664   21036937.0714
     -1991.6254
  -4635366.48848  -3596576.95445  22937459.8804   22937456.7944
       803.4844
   9704539.38247   7532155.44043  23739219.9424   23739217.9034
     -3702.4844
  -1686471.22549  -1311100.82947  21140544.8564   21140541.7824
       257.7974
  -2515507.36647  -1952804.70142  23864973.5754   23864973.0874
       945.1884
  -4951229.68348  -3844449.37143  23505320.2394   23505318.1574
      2714.8134
 04  9 13 21 47 30.0010000  0  8G 3G 8G13G19G23G27G10G28
   1939088.25547   1509375.39843  23541993.3414   23541993.4584
     -1615.6254
  -5302180.41149  -4116754.35846  21622386.8644   21622384.3994
      1420.3134
   3549489.47049   2757530.39146  21042636.7244   21042633.4424
     -1999.3444
  -4647355.50348  -3605919.02445  22935178.5604   22935175.0094
       795.2344
   9760104.74947   7575453.05543  23749793.7944   23749792.2824
     -3706.0164
  -1690314.67149  -1314095.73047  21139813.1534   21139810.3174
       254.9844
  -2529615.44947  -1963798.00943  23862289.0754   23862288.2594
       936.0314
  -4991920.55648  -3876156.49543  23497575.8254   23497575.2674
      2710.9064
 04  9 13 21 47 45.0010000  0  8G 3G 8G13G19G23G27G10G28
   1963392.65747   1528313.87843  23546618.7084   23546618.0364
     -1624.9064
  -5323457.92749  -4133334.22246  21618337.7944   21618335.7204
      1416.7974
   3579540.95349   2780947.12646  21048355.4584   21048351.8724
     -2007.3594
  -4659218.78549  -3615163.11045  22932921.3724   22932917.6814
       786.6564
   9815723.44747   7618792.22342  23760378.3564   23760375.7164
     -3709.7664
  -1694114.91949  -1317056.96146  21139089.8804   21139087.1534
       251.8754
  -2543585.85548  -1974684.03342  23859631.0914   23859630.2984
       926.7344
  -5032552.24248  -3907817.49643  23489844.4504   23489843.0834
      2706.7344
 04  9 13 21 48  0.0010000  0  8G 3G 8G13G19G23G27G10G28
   1987834.43547   1547359.39743  23551269.4584   23551269.0564
     -1634.2034
  -5344685.56749  -4149875.24146  21614298.2554   21614295.8604
      1413.3284
   3609710.27149   2804455.66546  21054096.6614   21054092.8844
     -2015.3594
  -4670955.33849  -3624308.44545  22930688.1064   22930684.1814
       778.0164
   9871395.97947   7662173.34343  23770972.3494   23770971.0874
     -3713.4844
  -1697871.08349  -1319983.83947  21138375.0834   21138372.2594
       248.8134
  -2557417.68847  -1985462.09542  23856999.0524   23856997.9074
       917.2814
  -5073123.78248  -3939431.62043  23482123.7634   23482122.5214
      2702.5784
 04  9 13 21 48 15.0010000  0  8G 3G 8G13G19G23G27G10G28
   2012416.33547   1566514.07443  23555947.1774   23555946.6304
     -1643.5004
  -5365860.48049  -4166375.15246  21610268.9744   21610266.3604
      1409.7664
   3640000.28349   2828058.25246  21059860.3644   21059856.6384
     -2023.4374
  -4682562.16048  -3633352.72345  22928478.8414   22928475.0364
       769.3444
   9927125.13947   7705598.56342  23781577.8334   23781575.4034
     -3717.2194
  -1701580.34049  -1322874.17746  21137669.1694   21137666.0994
       245.5944
  -2571107.97748  -1996129.87743  23854393.3254   23854392.2284
       907.9064
  -5113632.22148  -3970996.59743  23474415.3334   23474413.8214
      2698.4224
 04  9 13 21 48 30.0010000  0  8G 3G 8G13G19G23G27G10G28
   2037134.18947   1585774.72043  23560650.5054   23560650.6104
     -1652.4224
  -5386986.58249  -4182837.04546  21606248.5054   21606246.2434
      1406.7194
   3670406.77649   2851751.61146  21065646.3414   21065642.7354
     -2031.0004
  -4694042.94749  -3642298.75245  22926294.1534   22926290.6534
       761.1414
   9982906.73447   7749064.65543  23792192.7784   23792190.2984
     -3720.5784
  -1705246.54449  -1325730.95246  21136971.6924   21136968.4894
       242.9534
  -2584660.66547  -2006690.41242  23851814.4584   23851814.2594
       898.9064
  -5154081.31848  -4002515.29043  23466717.7474   23466716.7284
      2694.5314
 04  9 13 21 48 45.0010000  0  8G 3G 8G13G19G23G27G10G28
   2061989.83348   1605142.69943  23565380.7244   23565379.7244
     -1661.7504
  -5408061.73649  -4199259.22746  21602238.0054   21602235.5134
      1403.2344
   3700931.67749   2875537.23246  21071455.3564   21071451.6854
     -2039.1094
  -4705395.39548  -3651144.79045  22924133.3804   22924130.7674
       752.3914
  10038742.60147   7792573.04642  23802817.6774   23802815.5674
     -3724.3444
  -1708867.64849  -1328552.59646  21136282.6464   21136279.2944
       239.8284
  -2598073.57448  -2017142.02043  23849261.8804   23849261.1534
       889.4844
  -5194468.86648  -4033986.05943  23459032.3884   23459031.1384
      2690.3594
 04  9 13 21 49  0.0010000  0  8G 3G 8G13G19G23G27G10G28
   2086983.76147   1624618.48543  23570137.7084   23570137.5014
     -1670.7034
  -5429085.23049  -4215641.16746  21598237.5214   21598235.0444
      1400.0634
   3731575.74349   2899415.70946  21077286.8964   21077283.0994
     -2046.7974
  -4716618.58248  -3659890.11345  22921997.8414   22921994.7204
       744.0474
  10094633.13747   7836124.02543  23813452.6854   23813451.2944
     -3727.6564
  -1712442.93449  -1331338.53946  21135602.0054   21135598.7864
       236.9534
  -2611345.86548  -2027484.08243  23846735.9504   23846735.0874
       880.2814
  -5234793.96748  -4065408.17043  23451358.7394   23451357.1614
      2686.3754
 04  9 13 21 49 15.0010000  0  8G 3G 8G13G19G23G27G10G28
   2112116.35247   1644202.31543  23574919.3024   23574919.5794
     -1680.2194
  -5450056.54349  -4231982.45146  21594246.7314   21594244.2284
      1396.2034
   3762339.26049   2923387.26446  21083140.7474   21083137.7674
     -2055.0624
  -4727711.86248  -3668534.21145  22919887.2244   22919883.4894
       735.1254
  10150578.64647   7879717.86842  23824098.6774   23824096.6654
     -3731.7344
  -1715971.85849  -1334088.35146  21134930.6614   21134927.2714
       233.6094
  -2624476.92648  -2037716.06542  23844238.0914   23844236.6494
       870.5784
  -5275055.96348  -4096781.07743  23443697.0754   23443695.2634
      2681.8134
 04  9 13 21 49 30.0010000  0  8G 3G 8G13G19G23G27G10G28
   2137387.72247   1663894.24743  23579728.6384   23579727.9784
     -1689.1724
  -5470975.27149  -4248282.73346  21590266.2784   21590263.6064
      1393.0314
   3793222.45449   2947452.07646  21089017.6144   21089014.0794
     -2062.6724
  -4738674.78048  -3677076.72345  22917800.9424   22917797.3454
       726.7814
  10206579.13146   7923354.54142  23834754.3644   23834753.9234
     -3735.0314
  -1719454.15149  -1336801.82846  21134268.0994   21134264.6964
       230.8594
  -2637466.34948  -2047837.70643  23841766.1384   23841765.0954
       861.5004
  -5315254.37248  -4128104.47643  23436047.4354   23436046.1064
      2677.9534
 04  9 13 21 49 45.0010000  0  8G 3G 8G13G19G23G27G10G28
   2162795.46047   1683692.44943  23584563.6144   23584563.5834
     -1698.3594
  -5491843.72149  -4264543.84846  21586294.9744   21586292.8494
      1389.6884
   3824222.97749   2971608.31246  21094916.7714   21094913.7354
     -2070.5474
  -4749509.37848  -3685519.23845  22915739.3024   22915735.4894
       718.1724
  10262632.18147   7967032.12242  23845422.6384   23845419.8644
     -3738.5314
  -1722891.98749  -1339480.66046  21133613.7944   21133610.6224
       227.7974
  -2650316.28047  -2057850.63743  23839320.6534   23839319.4664
       852.0004
  -5355391.41748  -4159380.02944  23428410.3024   23428408.0014
      2673.8444
 04  9 13 21 50  0.0010000  0  8G 3G 8G13G19G23G27G10G28
   2188339.32947   1703596.72443  23589424.1304   23589423.8764
     -1707.5004
  -5512661.94649  -4280765.83846  21582333.6924   21582331.1494
      1386.1564
   3855340.71649   2995855.88846  21100838.5834   21100835.2004
     -2078.4534
  -4760215.49148  -3693861.64745  22913701.6144   22913698.6814
       709.4844
  10318737.51647   8010750.52343  23856098.3884   23856096.3964
     -3742.0474
  -1726285.42649  -1342124.89546  21132968.3564   21132965.0134
       224.7664
  -2663026.58147  -2067754.78542  23836901.8494   23836901.5284
       842.6884
  -5395466.98748  -4190607.68543  23420784.2314   23420782.0834
      2669.6094
 04  9 13 21 50 15.0010000  0  8G 3G 8G13G19G23G27G10G28
   2214018.03047   1723606.08643  23594310.3334   23594310.2984
     -1716.7194
  -5533431.08149  -4296949.56546  21578381.3414   21578378.6384
      1382.6414
   3886574.35049   3020193.76346  21106782.1854   21106778.6654
     -2086.4694
  -4770794.05048  -3702104.66845  22911689.0134   22911684.9934
       700.5944
  10374893.74346   8054508.52942  23866784.4584   23866783.0714
     -3745.6874
  -1729635.57849  -1344735.41446  21132330.8724   21132327.8764
       221.5634
  -2675598.31348  -2077550.93742  23834510.0054   23834509.1034
       833.1414
  -5435482.09648  -4221788.24243  23413168.9194   23413167.4934
      2665.3754
 04  9 13 21 50 30.0010000  0  8G 3G 8G13G19G23G27G10G28
   2239831.44947   1743720.41343  23599222.7634   23599222.9504
     -1725.5004
  -5554151.01749  -4313094.96146  21574437.9424   21574435.4314
      1379.6884
   3917923.75249   3044621.85346  21112747.8724   21112743.9274
     -2093.8914
  -4781245.04248  -3710248.28945  22909700.0524   22909696.1104
       692.4534
  10431100.58546   8098305.96242  23877481.2714   23877479.9314
     -3748.8444
  -1732942.36749  -1347312.13046  21131701.2944   21131698.0634
       218.9844
  -2688031.54748  -2087239.15642  23832143.3804   23832142.9354
       824.2344
  -5475436.56448  -4252921.55643  23405566.0444   23405564.1814
      2661.5164
 04  9 13 21 50 45.0010000  0  8G 3G 8G13G19G23G27G10G28
   2265778.82547   1763939.11343  23604160.9504   23604160.7784
     -1734.2814
  -5574822.30549  -4329202.44046  21570504.4974   21570501.6464
      1376.5474
   3949388.37749   3069139.73446  21118735.2164   21118731.7044
     -2101.3754
  -4791568.66248  -3718292.63745  22907734.9974   22907731.9194
       684.0944
  10487357.18047   8142142.18043  23888187.0994   23888184.6264
     -3751.9844
  -1736206.47249  -1349855.58446  21131079.9894   21131077.1734
       216.2814
  -2700326.65748  -2096819.77942  23829803.7944   23829803.2554
       815.1254
  -5515330.83448  -4284007.92143  23397974.4034   23397972.2864
      2657.6724
 04  9 13 21 51  0.0010000  0  8G 3G 8G13G19G23G27G10G28
   2291864.86447   1784265.84643  23609124.4814   23609125.1424
     -1743.9534
  -5595440.11249  -4345268.27146  21566581.1144   21566578.3414
      1372.4224
   3980973.02849   3093751.12946  21124745.5284   21124741.8884
     -2109.9374
  -4801759.76248  -3726233.74845  22905796.0054   22905792.5954
       674.7034
  10543668.35347   8186020.91843  23898901.7244   23898900.7474
     -3756.2194
  -1739422.78249  -1352361.81446  21130467.9274   21130464.8214
       212.5314
  -2712478.51448  -2106288.75342  23827491.7244   23827491.1184
       805.0004
  -5555159.69548  -4315043.37843  23390394.8414   23390393.3334
      2652.7664
 04  9 13 21 51 15.0010000  0  8G 3G 8G13G19G23G27G10G28
   2318087.11447   1804698.74942  23614114.0674   23614114.3334
     -1752.4374
  -5616006.42149  -4361293.94146  21562667.7474   21562665.1654
      1369.5784
   4012675.30049   3118454.18446  21130778.2394   21130774.9464
     -2117.1564
  -4811820.58148  -3734073.32845  22903881.3564   22903877.8254
       666.5164
  10600031.60246   8229940.23542  23909626.9974   23909626.7824
     -3759.1874
  -1742593.65149  -1354832.61246  21129864.5914   21129861.1304
       210.0314
  -2724489.41748  -2115647.88242  23825205.9424   23825204.7434
       796.1564
  -5594925.45248  -4346029.60743  23382827.9354   23382826.3414
      2649.1564
 04  9 13 21 51 30.0010000  0  8G 3G 8G13G19G23G27G10G28
   2344443.22846   1825235.95442  23619129.6694   23619129.6104
     -1761.7664
  -5636523.68749  -4377281.41646  21558763.4814   21558760.8334
      1365.9064
   4044492.75149   3143246.98146  21136832.9814   21136828.9624
     -2125.3124
  -4821753.15548  -3741812.97145  22901991.3724   22901987.8804
       657.6414
  10656444.45247   8273898.23842  23920362.7554   23920360.7124
     -3762.8754
  -1745721.17249  -1357269.65146  21129269.6534   21129266.5604
       206.7344
  -2736361.48848  -2124898.86643  23822947.1694   23822945.9274
       786.5944
  -5634630.09348  -4376968.24343  23375271.4584   23375270.5054
      2644.7504
 04  9 13 21 51 45.0010000  0  8G 3G 8G13G19G23G27G10G28
   2370941.32446   1845883.81143  23624172.3024   23624172.3884
     -1771.3594
  -5656983.59349  -4393224.19446  21554870.1144   21554867.2284
      1362.0474
   4076433.52049   3168135.86546  21142910.7784   21142907.1144
     -2133.4844
  -4831548.88248  -3749445.98845  22900127.0364   22900123.9314
       648.4534
  10712914.91647   8317901.11543  23931109.4814   23931107.3804
     -3766.5624
  -1748797.05949  -1359666.45246  21128684.0524   21128681.7084
       203.3444
  -2748086.41248  -2134035.15842  23820715.4274   23820714.3804
       776.7664
  -5674265.22448  -4407852.70543  23367729.3494   23367728.1654
      2639.9844
 04  9 13 21 52  0.0010000  0  8G 3G 8G13G19G23G27G10G28
   2397571.10647   1866634.25442  23629239.8494   23629239.9584
     -1780.0314
  -5677396.02549  -4409129.96846  21550985.5674   21550983.0794
      1358.9384
   4108487.52949   3193113.00046  21149011.2474   21149007.1734
     -2140.9844
  -4841217.81449  -3756980.21645  22898288.2864   22898284.2204
       640.1094
  10769432.55547   8361940.73542  23941862.8174   23941862.8214
     -3769.7034
  -1751831.53449  -1362030.98246  21128107.0994   21128103.7124
       200.6564
  -2759674.18247  -2143064.59442  23818510.2394   23818509.3564
       767.6254
  -5713840.80648  -4438690.75944  23360199.2084   23360197.0244
      2636.0474
 04  9 13 21 52 15.0010000  0  8G 3G 8G13G19G23G27G10G28
   2424335.01847   1887489.24143  23634333.0754   23634333.7204
     -1788.8284
  -5697758.33349  -4424996.69146  21547110.9034   21547108.4544
      1355.6724
   4140657.25549   3218180.31146  21155132.6614   21155128.5174
     -2148.6724
  -4850757.10248  -3764413.41545  22896472.3104   22896468.4384
       631.5164
  10825999.81447   8406019.03942  23952628.1144   23952626.8374
     -3772.9064
  -1754821.83449  -1364361.07646  21127537.9664   21127534.3374
       197.7664
  -2771121.91447  -2151984.90842  23816331.9504   23816330.8994
       758.4224
  -5753354.03548  -4469480.24044  23352679.2784   23352677.7744
      2631.9064
 04  9 13 21 52 30.0010000  0  8G 3G 8G13G19G23G27G10G28
   2451230.97147   1908447.06942  23639450.2784   23639451.2984
     -1797.4064
  -5718072.54249  -4440825.93646  21543245.1464   21543242.4464
      1352.7974
   4172940.77049   3243336.27946  21161275.8494   21161272.4544
     -2155.9374
  -4860168.43748  -3771746.90145  22894681.2474   22894677.6104
       623.2504
  10882614.73846   8450134.48443  23963402.1694   23963400.5994
     -3775.7814
  -1757769.79649  -1366658.19846  21126976.6614   21126973.4034
       195.1884
  -2782431.53148  -2160797.58642  23814180.2004   23814179.1534
       749.4694
  -5792806.71748  -4500222.53043  23345172.1384   23345170.1344
      2628.2504
 04  9 13 21 52 45.0010000  0  8G 3G 8G13G19G23G27G10G28
   2478254.37446   1929504.26243  23644592.8254   23644592.9154
     -1805.8444
  -5738342.90249  -4456621.00746  21539387.4504   21539385.1884
      1349.8284
   4205333.51749   3268577.35946  21167440.0994   21167436.5564
     -2163.2194
  -4869455.96148  -3778983.91544  22892913.2944   22892909.9314
       615.0314
  10939272.65947   8494283.41542  23974184.1534   23974182.6064
     -3778.6414
  -1760679.78649  -1368925.73046  21126422.9974   21126419.9114
       192.5634
  -2793607.31247  -2169505.99242  23812053.4424   23812052.1304
       740.5314
  -5832203.05948  -4530920.93244  23337675.4584   23337673.7354
      2624.4384
 04  9 13 21 53  0.0010000  0  8G 3G 8G13G19G23G27G10G28
   2505407.59946   1950662.58442  23649760.2474   23649760.0914
     -1814.4374
  -5758566.92249  -4472379.98846  21535538.9114   21535536.5404
      1346.7504
   4237837.90549   3293905.42646  21173625.4504   21173622.0404
     -2170.6564
  -4878617.17448  -3786122.51345  22891170.3334   22891166.2984
       606.6254
  10995975.74947   8538467.56042  23984973.6064   23984973.1424
     -3781.5944
  -1763549.26049  -1371161.69647  21125877.3174   21125874.2244
       189.9534
  -2804646.67348  -2178108.09642  23809953.0134   23809951.5714
       731.3754
  -5871540.51548  -4561573.41843  23330189.9354   23330187.0134
      2620.5164
 04  9 13 21 53 15.0010000  0  8G 3G 8G13G19G23G27G10G28
   2532691.14447   1971922.45143  23654953.6774   23654952.0674
     -1822.9374
  -5778743.68249  -4488102.12846  21531699.6224   21531697.4544
      1343.8444
   4270454.42449   3319320.87346  21179832.0364   21179829.3334
     -2177.8284
  -4887651.13248  -3793161.93945  22889451.4504   22889447.7244
       598.3284
  11052724.49947   8582687.27743  23995773.1924   23995772.2244
     -3784.4534
  -1766377.57249  -1373365.58546  21125338.6064   21125335.8414
       187.4844
  -2815548.86147  -2186603.30242  23807877.6384   23807877.1574
       722.5004
  -5910818.18848  -4592179.35044  23322714.7314   23322713.0714
      2616.8754
 04  9 13 21 53 30.0010000  0  8G 3G 8G13G19G23G27G10G28
   2560104.59247   1993283.53742  23660168.5444   23660168.6614
     -1831.7664
  -5798873.60149  -4503787.77946  21527869.0364   21527866.4974
      1340.5784
   4303182.83049   3344823.51046  21186060.3104   21186056.8334
     -2185.4534
  -4896557.80248  -3800102.18545  22887756.0444   22887752.8884
       589.6564
  11109518.40347   8626942.12542  24006581.1224   24006579.6614
     -3787.6414
  -1769164.84549  -1375537.49346  21124808.3024   21124805.3764
       184.5634
  -2826314.05548  -2194991.77643  23805829.0054   23805828.2044
       713.2504
  -5950036.11548  -4622738.73943  23315252.4194   23315250.5284
      2612.6724
 04  9 13 21 53 45.0010000  0  8G 3G 8G13G19G23G27G10G28
   2587650.24046   2014747.68042  23665410.2554   23665410.2314
     -1840.6724
  -5818953.92849  -4519434.76346  21524047.4424   21524045.5674
      1337.2344
   4336025.41149   3370415.11546  21192309.9034   21192306.3064
     -2193.0474
  -4905334.60548  -3806941.23545  22886086.2554   22886082.6854
       580.9694
  11166359.69247   8671233.98543  24017398.0994   24017396.4854
     -3790.8124
  -1771908.67449  -1377675.53247  21124286.3334   21124283.7284
       181.6564
  -2836939.70048  -2203271.49643  23803806.5754   23803806.2714
       703.9224
  -5989191.68748  -4653249.51044  23307800.9974   23307799.5324
      2608.4534
 04  9 13 21 54  0.0010000  0  8G 3G 8G13G19G23G27G10G28
   2615326.62447   2036313.67742  23670677.5134   23670677.8254
     -1849.3914
  -5838986.02749  -4535044.18446  21520235.6144   21520233.0324
      1333.8914
   4368981.00649   3396094.77746  21198581.0914   21198577.8454
     -2200.7344
  -4913982.46548  -3813679.83845  22884440.6064   22884437.2244
       572.2344
  11223247.05047   8715561.72443  24028223.0444   24028221.6424
     -3793.9224
  -1774610.12049  -1379780.55946  21123772.1534   21123769.2674
       178.7504
  -2847426.86548  -2211443.30143  23801811.7474   23801810.9664
       694.5784
  -6028285.97348  -4683712.54044  23300361.3494   23300359.6304
      2604.3444
 04  9 13 21 54 15.0010000  0  8G 3G 8G13G19G23G27G10G28
   2643136.28546   2057983.49943  23675969.1924   23675970.4704
     -1858.5314
  -5858967.14949  -4550613.88246  21516433.4894   21516430.8804
      1330.2034
   4402052.13649   3421864.46646  21204874.5284   21204871.1104
     -2208.7664
  -4922498.56048  -3820315.73045  22882819.9664   22882816.5244
       563.1564
  11280183.02547   8759927.32043  24039057.3644   24039056.3134
     -3797.4844
  -1777266.26449  -1381850.28246  21123266.5754   21123263.8884
       175.3754
  -2857772.66148  -2219504.97343  23799842.7244   23799842.4784
       684.8594
  -6067316.02948  -4714125.52944  23292934.0284   23292932.7634
      2599.6564
 04  9 13 21 54 30.0010000  0  8G 3G 8G13G19G23G27G10G28
   2671077.46547   2079755.79643  23681286.4894   23681287.4154
     -1867.2344
  -5878898.72449  -4566144.97646  21512640.9194   21512637.7044
      1327.0314
   4435237.19949   3447722.93746  21211189.5834   21211185.3804
     -2216.2664
  -4930884.28248  -3826850.03845  22881224.1774   22881220.5634
       554.5634
  11337165.71547   8804329.33643  24049900.7784   24049900.3294
     -3800.5624
  -1779878.93649  -1383886.13646  21122769.5214   21122766.5134
       172.6724
  -2867978.72148  -2227457.75942  23797900.4664   23797900.0714
       675.5784
  -6106283.27648  -4744489.55543  23285518.8024   23285517.1924
      2595.6414
 04  9 13 21 54 45.0010000  0  8G 3G 8G13G19G23G27G10G28
   2699148.73547   2101629.51742  23686628.4194   23686628.6614
     -1875.4374
  -5898782.04349  -4581638.45646  21508856.7944   21508854.5094
      1324.0634
   4468534.61549   3473668.95246  21217525.6464   21217522.5014
     -2223.4064
  -4939140.78448  -3833283.66245  22879653.3334   22879649.3994
       546.2664
  11394193.57347   8848766.52742  24060752.2554   24060751.6184
     -3803.2664
  -1782449.17149  -1385888.91946  21122280.6694   21122277.5754
       170.0634
  -2878046.24747  -2235302.58442  23795984.0674   23795984.3534
       666.7344
  -6145189.03948  -4774805.68944  23278115.4894   23278113.2394
      2591.7974
 04  9 13 21 55  0.0010000  0  8G 3G 8G13G19G23G27G10G28
   2727351.44346   2123605.61742  23691994.6694   23691995.1854
     -1884.5004
  -5918615.45849  -4597093.05146  21505082.7164   21505080.8064
      1320.5944
   4501945.89849   3499703.70646  21223883.7314   21223879.8604
     -2231.2194
  -4947266.30448  -3839615.21445  22878106.7244   22878103.0484
       537.3594
  11451267.92347   8893239.98043  24071614.0674   24071613.0524
     -3806.4374
  -1784975.49549  -1387857.47946  21121799.8414   21121796.8804
       166.9534
  -2887973.40648  -2243038.05943  23794095.8254   23794095.4894
       657.1254
  -6184031.52848  -4805072.51944  23270724.1924   23270721.8994
      2587.3914
 04  9 13 21 55 15.0010000  0  8G 3G 8G13G19G23G27G10G28
   2755689.28148   2145687.04443  23697388.2164   23697387.7284
     -1893.8914
  -5938395.08549  -4612505.74046  21501318.9744   21501316.3684
      1316.6884
   4535474.85849   3525830.14446  21230264.2864   21230260.3454
     -2239.3444
  -4955256.80348  -3845841.55845  22876585.6304   22876582.7714
       527.9844
  11508392.38947   8937752.46143  24082484.1924   24082482.8604
     -3810.1564
  -1787454.01649  -1389788.80146  21121327.9584   21121324.5994
       163.4384
  -2897756.45547  -2250661.19243  23792234.4114   23792233.2204
       647.1414
  -6222806.73748  -4835286.91243  23263345.3024   23263342.5214
      2582.6254
 04  9 13 21 55 30.0010000  0  8G 3G 8G13G19G23G27G10G28
   2784157.81047   2167870.28442  23702804.9664   23702805.0794
     -1902.3284
  -5958125.37649  -4627879.99646  21497564.2784   21497561.9114
      1313.7034
   4569116.92449   3552044.71946  21236665.6924   21236663.0834
     -2246.5784
  -4963116.41748  -3851965.92345  22875090.4034   22875087.3964
       519.6254
  11565562.58147   8982300.53643  24093362.9894   24093362.1924
     -3812.7664
  -1789888.93949  -1391686.15346  21120864.8334   21120861.9384
       160.8914
  -2907399.57547  -2258175.32643  23790398.5674   23790398.5674
       638.2974
  -6261518.86448  -4865452.17244  23255978.5604   23255976.4034
      2578.7034
 04  9 13 21 55 45.0010000  0  8G 3G 8G13G19G23G27G10G28
   2812756.88948   2190155.22443  23708248.1144   23708247.2824
     -1911.2344
  -5977805.83749  -4643215.40346  21493819.0914   21493816.7904
      1310.1724
   4602872.13349   3578347.45846  21243089.7164   21243086.0714
     -2254.3754
  -4970844.85348  -3857988.06345  22873619.7554   22873616.2944
       510.6254
  11622778.14647   9026884.05042  24104250.3104   24104250.1574
     -3816.1094
  -1792280.10949  -1393549.41346  21120409.4664   21120406.8134
       157.7034
  -2916902.59747  -2265580.29943  23788590.6304   23788590.1494
       628.6564
  -6300167.65348  -4895568.05044  23248623.3804   23248622.0524
      2574.2194
 04  9 13 21 56  0.0010000  0  8G 3G 8G13G19G23G27G10G28
   2841488.23947   2212543.24543  23713715.3644   23713715.0794
     -1919.9064
  -5997434.66049  -4658510.58546  21490083.6924   21490081.5794
      1306.7974
   4636742.44249   3604739.88546  21249534.5834   21249532.2514
     -2261.8594
  -4978440.00248  -3863906.34645  22872174.2164   22872171.0444
       501.8914
  11680040.93146   9071504.29142  24115147.7944   24115146.4664
     -3819.1874
  -1794625.68149  -1395377.12246  21119963.3254   21119960.1734
       154.7664
  -2926263.46047  -2272874.47843  23786809.4194   23786808.7164
       619.2814
  -6338750.89048  -4925632.86044  23241281.7944   23241279.2634
      2569.9224
 04  9 13 21 56 15.0010000  0  8G 3G 8G13G19G23G27G10G28
   2870352.02847   2235034.49142  23719207.5994   23719207.1464
     -1928.5784
  -6017011.47449  -4673765.24546  21486358.7474   21486356.5794
      1303.5474
   4670727.81149   3631221.96146  21256001.9194   21255999.2314
     -2269.4374
  -4985901.33049  -3869720.35445  22870754.4664   22870751.3414
       493.0474
  11737351.01847   9116161.41342  24126054.3254   24126051.9744
     -3822.2344
  -1796925.08249  -1397168.86947  21119525.8644   21119522.9384
       151.8444
  -2935481.76847  -2280057.56242  23785055.6924   23785055.1264
       609.9064
  -6377268.26848  -4955646.36244  23233952.0994   23233950.3254
      2565.7664
 04  9 13 21 56 30.0010000  0  8G 3G 8G13G19G23G27G10G28
   2899345.66648   2257626.91842  23724725.1144   23724724.1264
     -1937.3284
  -6036538.70449  -4688981.26546  21482642.8414   21482640.0324
      1300.0004
   4704826.11849   3657792.04946  21262490.6064   21262487.2124
     -2277.1564
  -4993231.07948  -3875431.83745  22869359.6304   22869356.3604
       484.1094
  11794705.87747   9160853.40842  24136967.3884   24136966.8884
     -3825.3284
  -1799180.78449  -1398926.56646  21119096.8414   21119093.6184
       148.7504
  -2944559.82847  -2287131.39243  23783328.2084   23783326.6264
       600.3134
  -6415721.84848  -4985610.15644  23226634.6534   23226632.0914
      2561.3134
 04  9 13 21 56 45.0010000  0  8G 3G 8G13G19G23G27G10G28
   2928472.74648   2280323.30142  23730268.7864   23730267.3844
     -1946.3914
  -6056012.32649  -4704155.51646  21478936.8804   21478934.2744
      1296.3134
   4739040.87749   3684452.89046  21269001.4504   21268998.4274
     -2285.0004
  -5000425.30248  -3881037.69945  22867990.9114   22867987.4784
       474.9064
  11852109.02846   9205583.06042  24147891.3884   24147890.6854
     -3828.6254
  -1801388.80949  -1400647.11446  21118676.5914   21118673.3994
       145.4694
  -2953493.80247  -2294092.92043  23781627.7084   23781626.8924
       590.6884
  -6454107.79948  -5015521.23344  23219329.7314   23219327.7354
      2556.6094
 04  9 13 21 57  0.0010000  0  8G 3G 8G13G19G23G27G10G28
   2957728.19448   2303119.73343  23735835.3104   23735834.3064
     -1955.1094
  -6075437.25449  -4719291.82046  21475240.4504   21475237.8604
      1292.8914
   4773366.95449   3711200.45846  21275533.2164   21275529.8844
     -2292.6724
  -5007488.82048  -3886541.72445  22866646.5604   22866643.5634
       466.0004
  11909555.29947   9250346.30842  24158823.1464   24158822.3804
     -3831.7194
  -1803554.12849  -1402334.37846  21118264.3564   21118261.3454
       142.4064
  -2962288.44847  -2300945.87843  23779953.6854   23779953.1344
       581.1254
  -6492430.81048  -5045383.26744  23212037.6854   23212035.5134
      2552.2974
 04  9 13 21 57 15.0010000  0  8G 3G 8G13G19G23G27G10G28
   2987114.47848   2326018.12543  23741426.9424   23741426.7674
     -1963.4224
  -6094810.95749  -4734388.19946  21471553.6384   21471551.2714
      1289.9064
   4807806.92149   3738036.77946  21282087.0134   21282083.9894
     -2299.7194
  -5014418.73048  -3891941.62745  22865327.3644   22865324.4354
       457.5784
  11967047.00347   9295144.95142  24169764.0754   24169763.0444
     -3834.2194
  -1805674.09449  -1403986.30046  21117861.0134   21117857.7044
       139.8914
  -2970941.13748  -2307688.25842  23778307.6774   23778306.8684
       572.1884
  -6530688.30748  -5075194.24944  23204756.8884   23204754.4234
      2548.3594
 04  9 13 21 57 30.0010000  0  8G 3G 8G13G19G23G27G10G28
   3016630.79148   2349017.81842  23747043.7084   23747044.2674
     -1972.0314
  -6114133.81049  -4749444.96146  21467876.8564   21467874.2244
      1286.5164
   4842360.10049   3764961.32446  21288662.3494   21288659.1884
     -2307.3124
  -5021215.42448  -3897237.73345  22864035.1064   22864030.9974
       448.6564
  12024583.44846   9339978.46942  24180712.4974   24180711.6964
     -3837.1254
  -1807749.21849  -1405603.27646  21117466.4424   21117463.1344
       136.8914
  -2979452.33147  -2314320.33943  23776688.2714   23776687.5284
       562.7504
  -6568880.50248  -5104954.37744  23197489.4114   23197487.2554
      2544.0314
 04  9 13 21 57 45.0010000  0  8G 3G 8G13G19G23G27G10G28
   3046277.48348   2372119.10342  23752685.0444   23752685.3724
     -1980.8754
  -6133405.30949  -4764461.71946  21464209.5214   21464207.1344
      1283.0004
   4877026.68049   3791974.22146  21295259.2634   21295255.9384
     -2315.0164
  -5027878.35348  -3902429.60745  22862766.3334   22862762.7864
       439.5634
  12082164.86746   9384846.96242  24191670.5054   24191669.1144
     -3840.4064
  -1809778.99949  -1407184.93246  21117079.8964   21117076.9154
       133.6564
  -2987821.58048  -2320841.86443  23775095.4114   23775094.2434
       553.0634
  -6607006.92248  -5134663.23344  23190233.6144   23190231.8494
      2539.4064
 04  9 13 21 58  0.0010000  0  8G 3G 8G13G19G23G27G10G28
   3076057.66448   2395324.41842  23758352.4744   23758351.9894
     -1990.1254
  -6152622.03849  -4779435.77646  21460553.0134   21460550.5914
      1278.9224
   4911810.11349   3819078.17246  21301878.3494   21301875.4704
     -2323.1094
  -5034404.01549  -3907514.53545  22861525.4424   22861521.3254
       430.0474
  12139794.39146   9429753.01742  24202637.2474   24202635.8724
     -3843.9694
  -1811759.88649  -1408728.48746  21116702.8254   21116699.7744
       130.0634
  -2996045.30548  -2327249.97543  23773530.6064   23773529.1774
       543.0634
  -6645063.92448  -5164317.99044  23182992.1614   23182989.4074
      2534.4844
 04  9 13 21 58 15.0010000  0  8G 3G 8G13G19G23G27G10G28
   3105967.48048   2418630.73642  23764044.2554   23764043.4154
     -1998.0314
  -6171787.55849  -4794369.94846  21456905.7864   21456903.5284
      1276.2504
   4946706.61849   3846270.23146  21308518.5134   21308515.9034
     -2329.8914
  -5040795.84548  -3912495.15545  22860308.3564   22860305.0244
       421.9534
  12197468.03946   9474693.44342  24213611.7714   24213610.4974
     -3846.1094
  -1813695.53649  -1410236.78146  21116334.4274   21116331.9034
       127.7344
  -3004127.13447  -2333547.51143  23771992.2004   23771991.8604
       534.2664
  -6683055.14448  -5193921.50244  23175762.6924   23175760.0524
      2530.8134
 04  9 13 21 58 30.0010000  0  8G 3G 8G13G19G23G27G10G28
   3136005.79348   2442037.18642  23769760.6774   23769760.0174
     -2007.1564
  -6190902.76749  -4809264.90646  21453267.9894   21453265.4384
      1272.2664
   4981715.11049   3873549.56246  21315180.5674   21315177.9854
     -2338.0004
  -5047054.48148  -3917371.99545  22859117.7084   22859114.0604
       412.4844
  12255184.79946   9519667.45042  24224595.0134   24224592.4744
     -3849.5314
  -1815586.80849  -1411710.50046  21115974.6774   21115971.5874
       124.2194
  -3012067.98548  -2339735.18143  23770481.7474   23770480.5364
       524.4384
  -6720981.26748  -5223474.28444  23168544.9034   23168543.0564
      2525.8444
 04  9 13 21 58 45.0010000  0  8G 3G 8G13G19G23G27G10G28
   3166177.87048   2465547.88243  23775501.5754   23775501.4664
     -2015.7664
  -6209962.19149  -4824116.40446  21449641.1774   21449638.9114
      1268.8754
   5016840.90649   3900920.29546  21321864.6614   21321861.8024
     -2345.5004
  -5053174.46548  -3922140.77945  22857952.5754   22857949.5634
       403.5004
  12312949.90246   9564679.11742  24235586.2554   24235585.4194
     -3852.4694
  -1817428.20749  -1413145.36146  21115624.1304   21115620.9274
       121.2194
  -3019862.27848  -2345808.65043  23768998.6694   23768998.0674
       514.7814
  -6758836.72348  -5252971.99444  23161341.6304   23161339.3804
      2521.4844
 04  9 13 21 59  0.0010000  0  8G 3G 8G13G19G23G27G10G28
   3196479.11848   2489159.21242  23781268.3884   23781268.1734
     -2024.5314
  -6228970.30349  -4838927.90446  21446024.3024   21446021.9194
      1265.2974
   5052079.56749   3928378.97746  21328570.5214   21328567.3844
     -2353.1874
  -5059159.96748  -3926804.79945  22856813.6774   22856810.5094
       394.3284
  12370758.74046   9609724.84942  24246588.5994   24246586.4934
     -3855.5784
  -1819224.12249  -1414544.77946  21115282.6614   21115279.2944
       118.0474
  -3027514.34648  -2351771.32243  23767541.4034   23767541.5834
       505.2344
  -6796625.69548  -5282417.90544  23154150.6144   23154148.2004
      2516.9224
 04  9 13 21 59 15.0010000  0  8G 3G 8G13G19G23G27G10G28
   3226909.41648   2512871.09042  23787058.7394   23787058.8764
     -2033.2664
  -6247926.69449  -4853699.11947  21442417.1304   21442414.8174
      1261.8284
   5087430.89149   3955925.44546  21335298.0834   21335294.8064
     -2360.7194
  -5065010.92448  -3931363.96645  22855700.7244   22855697.5954
       385.3134
  12428611.13446   9654804.54642  24257596.4354   24257594.5284
     -3858.5164
  -1820974.41449  -1415908.65446  21114949.5914   21114946.0754
       114.9384
  -3035024.17147  -2357623.13243  23766112.6694   23766112.4034
       495.6254
  -6834348.09249  -5311811.94444  23146972.7714   23146969.8134
      2512.3754
 04  9 13 21 59 30.0010000  0  8G 3G 8G13G19G23G27G10G28
   3257468.66448   2536683.45042  23792874.1694   23792874.0914
     -2041.3594
  -6266831.46749  -4868430.09446  21438819.3964   21438816.8804
      1258.7974
   5122894.96949   3983559.78046  21342046.1064   21342043.1344
     -2367.8594
  -5070726.93148  -3935817.98345  22854613.2474   22854609.6034
       376.7344
  12486506.83346   9699917.97342  24268614.7474   24268612.1384
     -3861.0314
  -1822679.01349  -1417236.92146  21114625.1464   21114622.0014
       112.2974
  -3042391.51647  -2363363.93442  23764711.1384   23764710.4894
       486.5784
  -6872003.62948  -5341153.87244  23139806.4894   23139803.7394
      2508.2664
 04  9 13 21 59 45.0010000  0  8G 3G 8G13G19G23G27G10G28
   3288156.68248   2560596.18842  23798713.9744   23798713.4974
     -2050.4374
  -6285684.34149  -4883120.64647  21435231.8494   21435229.3764
      1254.9534
   5158471.67149   4011281.85146  21348816.2244   21348813.1104
     -2375.7194
  -5076307.68948  -3940166.61545  22853550.3414   22853547.0214
       367.2974
  12544445.68846   9745065.05442  24279640.0444   24279638.4814
     -3864.2504
  -1824337.82749  -1418529.49746  21114309.2864   21114305.9664
       108.8594
  -3049616.20947  -2368993.56043  23763336.6304   23763335.6224
       476.6094
  -6909592.20748  -5370443.63544  23132653.8104   23132651.4784
      2503.4064
 04  9 13 22  0  0.0010000  0  8G 3G 8G13G19G23G27G10G28
   3318978.24148   2584612.95842  23804579.0364   23804578.6774
     -2059.0164
  -6304480.22549  -4897766.78146  21431655.4034   21431652.2984
      1251.3914
   5194165.79949   4039095.44246  21355608.9034   21355605.8924
     -2383.3444
  -5081748.24448  -3944405.98545  22852515.3494   22852511.8454
       358.1724
  12602432.55846   9790249.50442  24290674.4354   24290673.6464
     -3867.1414
  -1825945.61449  -1419782.32846  21114003.5284   21114000.4664
       105.6564
  -3056693.26347  -2374508.16143  23761989.7164   23761989.1224
       467.1414
  -6947108.66548  -5399677.18844  23125514.5364   23125512.3534
      2498.9534
 04  9 13 22  0 15.0010000  0  8G 3G 8G13G19G23G27G10G28
   3349925.68348   2608727.83342  23810468.0444   23810467.9234
     -2066.9374
  -6323226.69049  -4912374.41147  21428087.6774   21428085.4384
      1248.4224
   5229969.80249   4066994.65046  21362422.4584   21362419.1574
     -2390.3124
  -5087055.83449  -3948541.73945  22851505.5674   22851502.4034
       349.7194
  12660459.67047   9835465.35742  24301717.2004   24301716.5754
     -3869.5624
  -1827509.94449  -1421001.27846  21113705.9114   21113703.0244
       103.1564
  -3063630.06547  -2379913.46043  23760669.3024   23760668.7864
       458.1254
  -6984560.24648  -5428860.19844  23118387.7784   23118385.1184
      2494.8754
 04  9 13 22  0 30.0010000  0  8G 3G 8G13G19G23G27G10G28
   3380997.21548   2632939.40442  23816380.9194   23816380.2124
     -2075.8594
  -6341925.28649  -4926944.73346  21424529.4354   21424526.9154
      1244.6254
   5265881.98249   4094978.14846  21369256.1464   21369253.0604
     -2398.0944
  -5092231.92448  -3952575.04745  22850520.3804   22850517.7004
       340.3754
  12718525.22446   9880711.11042  24312766.1534   24312765.6264
     -3872.7504
  -1829032.40849  -1422187.62746  21113416.1614   21113413.0634
        99.7344
  -3070428.21247  -2385210.69242  23759375.7634   23759375.4664
       448.2974
  -7021948.39148  -5457993.78244  23111273.1924   23111270.4464
      2490.0634
 04  9 13 22  0 45.0010000  0  8G 3G 8G13G19G23G27G10G28
   3412198.48048   2657252.00742  23822317.5364   23822317.6694
     -2084.2504
  -6360570.13849  -4941473.18346  21420981.7554   21420979.0214
      1241.2664
   5301907.98449   4123050.34146  21376111.5994   21376108.7084
     -2405.4224
  -5097270.50449  -3956501.19545  22849561.8804   22849558.7554
       331.4384
  12776634.77046   9925991.11442  24323824.1854   24323824.0244
     -3875.3444
  -1830507.06349  -1423336.70746  21113135.3494   21113132.6574
        96.7974
  -3077081.91547  -2390395.40843  23758109.8254   23758109.5174
       438.9534
  -7059267.26548  -5487073.36444  23104171.2714   23104169.1924
      2485.7344
 04  9 13 22  1  0.0010000  0  8G 3G 8G13G19G23G27G10G28
   3443531.98548   2681667.71542  23828281.4894   23828281.0994
     -2093.1874
  -6379158.45949  -4955957.59546  21417444.0674   21417441.8064
      1237.5004
   5338050.46149   4151213.29446  21382989.1064   21382986.0754
     -2413.2504
  -5102168.75948  -3960318.01645  22848629.5674   22848626.0134
       321.9844
  12834790.87547   9971307.48742  24334891.0994   24334890.4704
     -3878.4534
  -1831931.04349  -1424446.31446  21112864.7394   21112861.7674
        93.3754
  -3083588.18847  -2395465.24643  23756871.9974   23756871.6344
       429.0474
  -7096513.89548  -5516096.67644  23097083.2314   23097081.0014
      2480.8914
 04  9 13 22  1 15.0010000  0  8G 3G 8G13G19G23G27G10G28
   3474995.19648   2706184.46142  23834268.0604   23834268.6104
     -2101.8754
  -6397692.30849  -4970399.54746  21413917.0914   21413914.8644
      1233.7194
   5374306.95149   4179465.08246  21389888.9194   21389885.2354
     -2420.8754
  -5106928.86148  -3964027.17645  22847723.2004   22847720.4934
       312.7664
  12892990.97547  10016658.10742  24345965.9424   24345965.5754
     -3881.3594
  -1833306.59849  -1425518.18246  21112602.8724   21112599.3334
        90.1414
  -3089949.34247  -2400422.01343  23755661.2474   23755660.4664
       419.2974
  -7133690.44648  -5545065.38544  23090008.5754   23090006.6884
      2476.1254
 04  9 13 22  1 30.0010000  0  8G 3G 8G13G19G23G27G10G28
   3506588.75848   2730802.80042  23840280.1384   23840279.9934
     -2110.5624
  -6416171.05949  -4984798.57246  21410401.2004   21410398.3804
      1230.1724
   5410678.17849   4207806.27646  21396809.8724   21396806.9744
     -2428.5314
  -5111549.68048  -3967627.79345  22846844.7474   22846840.2004
       303.4694
  12951235.69447  10062043.52043  24357050.5364   24357049.2944
     -3884.4064
  -1834632.85349  -1426551.63346  21112349.9664   21112347.1464
        86.8134
  -3096164.54248  -2405265.01943  23754478.6924   23754477.5874
       409.5634
  -7170795.98348  -5573978.73344  23082948.0754   23082946.0874
      2471.4064
 04  9 13 22  1 45.0010000  0  8G 3G 8G13G19G23G27G10G28
   3538311.31348   2755521.65942  23846316.9504   23846316.3764
     -2118.8914
  -6434595.51249  -4999155.28746  21406895.0284   21406892.4194
      1226.6254
   5447162.95849   4236235.94846  21403752.5834   21403749.5914
     -2435.9224
  -5116032.30048  -3971120.73645  22845992.2634   22845987.9814
       294.3594
  13009523.70047  10107462.63243  24368142.1464   24368141.0714
     -3887.1414
  -1835910.95549  -1427547.56046  21112107.0054   21112103.8924
        83.7814
  -3102234.73147  -2409995.05543  23753323.8414   23753322.7434
       399.8914
  -7207831.41648  -5602837.46944  23075900.5914   23075897.8134
      2466.8134
 04  9 13 22  2  0.0010000  0  8G 3G 8G13G19G23G27G10G28
   3570160.43648   2780339.11742  23852376.9744   23852376.8884
     -2127.4694
  -6452968.10449  -5013471.59246  21403398.6224   21403396.2084
      1223.1414
   5483758.84349   4264752.20846  21410716.6064   21410713.4854
     -2443.3914
  -5120378.78148  -3974507.59045  22845164.1534   22845161.0324
       285.2344
  13067852.58647  10152913.61343  24379241.9894   24379241.2824
     -3889.9694
  -1837143.00949  -1428507.61346  21111872.7244   21111869.4974
        80.6414
  -3108162.20847  -2414613.85643  23752194.7474   23752194.4074
       390.3754
  -7244798.79348  -5631643.17744  23068865.9034   23068863.7984
      2462.2664
 04  9 13 22  2 15.0010000  0  8G 3G 8G13G19G23G27G10G28
   3602134.90948   2805254.25143  23858463.0604   23858461.6774
     -2135.9844
  -6471289.49049  -5027747.98746  21399912.2634   21399910.3454
      1219.5784
   5520464.59449   4293354.06246  21417701.3414   21417698.2204
     -2450.8124
  -5124590.09848  -3977789.12645  22844362.9274   22844359.3964
       276.1254
  13126220.98347  10198395.35542  24390349.1304   24390348.3494
     -3892.6254
  -1838330.03049  -1429432.56146  21111647.0604   21111643.9314
        77.4844
  -3113947.88647  -2419122.18743  23751094.0604   23751093.6574
       380.8754
  -7281699.20848  -5660396.71044  23061843.5524   23061841.8294
      2457.7664
 04  9 13 22  2 30.0010000  0  8G 3G 8G13G19G23G27G10G28
   3634236.01848   2830268.05942  23864570.6304   23864570.9034
     -2144.3124
  -6489558.27149  -5041983.39446  21396435.4974   21396433.5634
      1216.1884
   5557281.76049   4322042.74846  21424707.5994   21424704.7244
     -2458.1254
  -5128664.45548  -3980963.94645  22843587.1614   22843584.1694
       267.1094
  13184630.19547  10243908.92843  24401464.0914   24401462.9424
     -3895.2814
  -1839470.28849  -1430321.08246  21111429.7474   21111427.2314
        74.4844
  -3119590.23047  -2423518.83942  23750020.9114   23750020.3844
       371.4064
  -7318530.83048  -5689096.63144  23054835.4814   23054832.5094
      2453.1724
 04  9 13 22  2 45.0010000  0  8G 3G 8G13G19G23G27G10G28
   3666464.72648   2855381.31643  23870703.7554   23870703.7824
     -2152.7504
  -6507773.07449  -5056176.75046  21392969.7944   21392967.4624
      1212.6414
   5594211.35949   4350819.02646  21431734.7084   21431732.0324
     -2465.6414
  -5132600.46448  -3984030.96945  22842838.6144   22842835.3534
       257.8284
  13243081.38747  10289455.20542  24412587.4584   24412586.5364
     -3898.0784
  -1840562.67549  -1431172.30046  21111221.8724   21111219.2634
        71.2504
  -3125087.93847  -2427802.75343  23748973.8174   23748973.8104
       361.7664
  -7355292.32548  -5717741.90844  23047839.4744   23047837.8804
      2448.4694
 04  9 13 22  3  0.0010000  0  8G 3G 8G13G19G23G27G10G28
   3698821.08948   2880594.03742  23876860.9354   23876861.4894
     -2161.2664
  -6525933.94049  -5070328.06247  21389513.7244   21389511.3174
      1209.0474
   5631253.32849   4379682.87646  21438783.7474   21438781.0564
     -2473.1094
  -5136397.95148  -3986990.04145  22842116.0284   22842112.7474
       248.7034
  13301574.29146  10335034.00342  24423717.1304   24423718.0834
     -3900.8594
  -1841606.96849  -1431986.03846  21111023.3414   21111020.4504
        68.1414
  -3130440.83848  -2431973.84043  23747955.9274   23747954.9464
       352.1094
  -7391983.48348  -5746332.37544  23040857.2784   23040855.2784
      2443.7974
 04  9 13 22  3 15.0010000  0  8G 3G 8G13G19G23G27G10G28
   3731303.31448   2905904.82942  23883041.9894   23883041.8374
     -2169.9694
  -6544042.10449  -5084438.32646  21386067.8414   21386065.5484
      1205.2194
   5668406.18549   4408633.12146  21445853.9664   21445851.0214
     -2480.7814
  -5140058.35147  -3989842.30645  22841419.2474   22841415.4314
       239.2344
  13360107.18446  10380643.93842  24434855.9504   24434855.5954
     -3903.7974
  -1842604.58349  -1432763.41046  21110833.7084   21110830.3844
        64.7814
  -3135650.47747  -2436033.30942  23746964.5674   23746963.1884
       342.2974
  -7428605.63548  -5774869.09144  23033888.4744   23033885.9584
      2438.8914
 04  9 13 22  3 30.0010000  0  8G 3G 8G13G19G23G27G10G28
   3763912.54848   2931314.55142  23889247.2634   23889246.9974
     -2177.9224
  -6562096.24149  -5098506.46446  21382632.6924   21382630.2284
      1202.0634
   5705671.08549   4437670.69346  21452945.0754   21452942.5754
     -2487.8594
  -5143580.02348  -3992586.45145  22840749.4274   22840745.4664
       230.4224
  13418681.18147  10426285.88542  24446002.9894   24446002.3724
     -3906.0784
  -1843554.08149  -1433503.27846  21110653.2004   21110649.5524
        61.8594
  -3140715.41648  -2439980.03543  23746001.0754   23745999.5484
       333.0784
  -7465157.25448  -5803350.83044  23026932.9424   23026930.5094
      2434.6094
 04  9 13 22  3 45.0010000  0  8G 3G 8G13G19G23G27G10G28
   3796646.72148   2956821.66942  23895476.6614   23895476.3134
     -2186.5164
  -6580098.14049  -5112533.91547  21379206.6774   21379204.5754
      1198.2504
   5743045.97649   4466793.95646  21460057.0834   21460054.6104
     -2495.4374
  -5146964.66848  -3995223.83645  22840104.9814   22840101.5604
       220.9694
  13477294.33946  10471958.33042  24457156.5214   24457155.8334
     -3909.0944
  -1844457.27049  -1434207.06546  21110480.9274   21110477.6854
        58.5474
  -3145637.44847  -2443815.36742  23745064.5604   23745062.9544
       323.2504
  -7501640.03748  -5831778.91844  23019990.2244   23019987.9894
      2429.8284
 04  9 13 22  4  0.0010000  0  7G 3G 8G13G19G27G10G28
   3829507.28248   2982427.29443  23901729.6534   23901729.6574
     -2195.0314
  -6598045.84049  -5126519.13547  21375791.6854   21375788.9074
      1194.6414
   5780532.53349   4496004.23846  21467190.9584   21467188.2284
     -2502.8594
  -5150210.39648  -3997752.97545  22839486.8254   22839483.5914
       211.6724
  -1845312.34449  -1434873.34046  21110318.2864   21110315.1304
        55.2974
  -3150414.81647  -2447538.01542  23744155.1614   23744153.4704
       313.6564
  -7538052.07448  -5860151.91544  23013060.9744   23013058.7554
      2424.9844
 04  9 13 22  4 15.0010000  0  7G 3G 8G13G19G27G10G28
   3862491.77048   3008129.44742  23908006.3564   23908006.1304
     -2203.1094
  -6615941.71249  -5140463.97447  21372385.9274   21372383.4934
      1191.3284
   5818128.19249   4525299.52646  21474345.4584   21474342.1854
     -2509.9844
  -5153319.51948  -4000175.65445  22838894.9354   22838892.1104
       202.7664
  -1846121.41349  -1435503.80147  21110164.1464   21110161.1964
        52.4224
  -3155049.78347  -2451149.66743  23743272.9894   23743272.5094
       304.2664
  -7574395.80048  -5888471.66644  23006145.1924   23006143.3534
      2420.6414
 04  9 13 22  4 30.0010000  0  7G 3G 8G13G19G27G10G28
   3895601.06748   3033928.85442  23914306.1924   23914307.3064
     -2211.6254
  -6633784.85549  -5154367.70847  21368990.2164   21368987.9624
      1187.6884
   5855833.98849   4554680.64146  21481520.1224   21481517.5284
     -2517.4534
  -5156290.84348  -4002490.98345  22838330.4194   22838327.1384
       193.3754
  -1846883.56349  -1436097.67746  21110019.1924   21110015.5484
        49.1094
  -3159541.20547  -2454649.50042  23742417.6614   23742417.6304
       294.4534
  -7610669.75748  -5916737.06344  22999242.5134   22999240.1224
      2415.8754
 04  9 13 22  4 45.0010000  0  7G 3G 8G13G19G27G10G28
   3928835.41948   3059825.72942  23920631.0444   23920631.2284
     -2219.9224
  -6651574.37549  -5168229.66647  21365605.1854   21365602.9314
      1184.1254
   5893650.18249   4584147.78146  21488716.4504   21488713.7674
     -2524.7974
  -5159123.69748  -4004698.39745  22837791.5674   22837787.7674
       184.0474
  -1847598.20349  -1436654.55446  21109883.2004   21109879.7514
        46.0164
  -3163888.72748  -2458037.17443  23741591.0054   23741590.3414
       284.9694
  -7646873.49148  -5944947.73544  22992353.4974   22992350.6654
      2411.1564
 04  9 13 22  5  0.0010000  0  7G 3G 8G13G19G27G10G28
   3962199.96948   3085824.03742  23926980.4894   23926979.9354
     -2228.6414
  -6669304.84649  -5182045.61647  21362231.0914   21362228.8294
      1180.0634
   5931582.05849   4613705.05546  21495935.1464   21495931.5714
     -2532.7504
  -5161812.53548  -4006793.59245  22837279.8644   22837275.9154
       174.4844
  -1848259.86349  -1437170.13946  21109757.2864   21109753.9074
        42.3284
  -3168086.78147  -2461308.39242  23740791.8024   23740791.0134
       274.8754
  -7683001.35348  -5973099.27244  22985478.4584   22985476.2674
      2405.9694
 04  9 13 22  5 15.0010000  0  7G 3G 8G13G19G27G10G28
   3995689.00448   3111919.35442  23933354.1144   23933353.0134
     -2236.7194
  -6686981.84949  -5195819.89946  21358867.3644   21358865.1184
      1176.7504
   5969623.97649   4643348.07746  21503173.9274   21503171.0284
     -2539.7344
  -5164362.85948  -4008780.85445  22836794.9504   22836790.7044
       165.4694
  -1848873.98549  -1437648.68046  21109640.7084   21109637.3294
        39.4694
  -3172140.89047  -2464467.42842  23740020.3724   23740020.0404
       265.4694
  -7719058.85548  -6001196.00044  22978616.3174   22978614.8764
      2401.5314
 04  9 13 22  5 30.0010000  0  7G 3G 8G13G19G27G10G28
   4029302.27248   3138111.47742  23939749.8804   23939749.8294
     -2245.3124
  -6704605.08149  -5209552.27946  21355513.7474   21355511.5674
      1172.7344
   6007775.85749   4673076.79346  21510434.0674   21510431.2984
     -2547.5004
  -5166774.40548  -4010659.98145  22836335.6694   22836332.0214
       155.8444
  -1849440.37049  -1438090.01146  21109532.5914   21109529.6264
        35.8134
  -3176050.97047  -2467514.26043  23739276.9354   23739276.2594
       255.5314
  -7755045.66848  -6029237.62844  22971768.4584   22971766.2984
      2396.3914
 04  9 13 22  5 45.0010000  0  7G 3G 8G13G19G27G10G28
   4063043.70848   3164403.46843  23946170.5524   23946170.7434
     -2253.4374
  -6722170.69849  -5223239.76546  21352171.1224   21352168.9814
      1169.3594
   6046041.72749   4702894.31846  21517715.7474   21517712.7044
     -2554.6094
  -5169042.93048  -4012427.67045  22835903.7004   22835900.4354
       146.6414
  -1849954.97049  -1438490.99746  21109434.7554   21109431.9314
        32.8134
  -3179812.87648  -2470445.61443  23738561.6144   23738560.3064
       246.1884
  -7790957.50248  -6057220.84244  22964934.4114   22964932.4074
      2391.9224
 04  9 13 22  6  0.0010000  0  7G 3G 8G13G19G27G10G28
   4096911.51148   3190793.92042  23952614.8804   23952615.5094
     -2261.9694
  -6739679.78049  -5236883.19846  21348839.2784   21348836.6304
      1165.4064
   6084419.79749   4732799.28446  21525018.9504   21525016.2594
     -2562.2344
  -5171169.85448  -4014085.00945  22835499.0524   22835495.0524
       137.1414
  -1850419.15549  -1438852.69846  21109346.4744   21109343.5604
        29.3134
  -3183428.03647  -2473262.62642  23737872.2784   23737871.8174
       236.1884
  -7826795.78448  -6085146.74944  22958114.8414   22958112.7124
      2386.7974
 04  9 13 22  6 15.0010000  0  7G 3G 8G13G19G27G10G28
   4130902.91748   3217280.67843  23959084.0284   23959083.4584
     -2270.4844
  -6757135.24549  -5250484.86346  21345517.7474   21345515.0014
      1161.5944
   6122907.38749   4762789.58246  21532342.9114   21532339.5954
     -2569.8444
  -5173157.57948  -4015633.89845  22835120.2474   22835117.1614
       127.5314
  -1850835.46649  -1439177.11446  21109267.0134   21109264.1884
        25.7664
  -3186899.20146  -2475967.45142  23737212.1614   23737211.3454
       226.2194
  -7862563.18548  -6113017.41944  22951308.8414   22951305.7474
      2381.7974
 04  9 13 22  6 30.0010000  0  7G 3G 8G13G19G27G10G28
   4165015.04348   3243861.52443  23965575.4194   23965574.8534
     -2278.2034
  -6774539.33549  -5264046.48346  21342205.7314   21342203.2354
      1158.4384
   6161501.92349   4792863.22446  21539687.2314   21539684.6064
     -2576.6414
  -5175008.65048  -4017076.29145  22834768.7244   22834764.9234
       118.7504
  -1851206.55349  -1439466.27046  21109196.6694   21109193.7314
        23.1414
  -3190228.81147  -2478561.96543  23736578.8884   23736578.2084
       217.1414
  -7898261.96548  -6140834.61444  22944515.2864   22944513.2284
      2377.5634
 04  9 13 22  6 45.0010000  0  7G 3G 8G13G19G27G10G28
   4199251.50748   3270539.24343  23972090.1774   23972090.5604
     -2286.9534
  -6791888.19249  -5277565.06446  21338904.2714   21338901.4974
      1154.3444
   6200206.79249   4823022.83746  21547052.3644   21547049.8604
     -2584.4064
  -5176719.17347  -4018409.16445  22834443.0364   22834439.5094
       108.8754
  -1851528.44349  -1439717.09446  21109135.3644   21109132.4894
        19.4064
  -3193413.07147  -2481043.18643  23735972.5994   23735971.7714
       207.0004
  -7933888.28948  -6168595.34944  22937736.0444   22937733.9234
      2372.2974
 04  9 13 22  7  0.0010000  0  7G 3G 8G13G19G27G10G28
   4233613.31548   3297314.62642  23978629.2944   23978629.2314
     -2294.9064
  -6809180.75649  -5291039.79347  21335613.8884   21335611.1884
      1151.0634
   6239022.94749   4853269.15946  21554439.0994   21554436.2554
     -2591.3754
  -5178287.83948  -4019631.49545  22834144.4974   22834140.9034
        99.8754
  -1851799.93149  -1439928.63746  21109083.8884   21109080.8254
        16.4534
  -3196450.80047  -2483410.29543  23735393.8334   23735394.0834
       197.7664
  -7969440.86848  -6196298.64744  22930970.6224   22930968.2514
      2367.7344
 04  9 13 22  7 15.0010000  0  7G 3G 8G13G19G27G10G28
   4268098.50648   3324186.17542  23985190.5524   23985191.2744
     -2303.2664
  -6826418.46549  -5304471.78147  21332333.7714   21332331.4704
      1147.2194
   6277948.66249   4883600.84546  21561846.7084   21561843.7904
     -2598.8754
  -5179716.11648  -4020744.46145  22833872.6854   22833868.7394
        90.3594
  -1852022.53449  -1440102.11746  21109041.5364   21109038.2714
        13.0474
  -3199343.60547  -2485664.43943  23734844.1384   23734843.4464
       187.9224
  -8004921.13548  -6223945.58244  22924219.2164   22924216.7084
      2362.7814
 04  9 13 22  7 30.0010000  0  7G 3G 8G13G19G27G10G28
   4302704.27348   3351151.67242  23991776.5284   23991776.6654
     -2311.3914
  -6843603.91049  -5317863.02446  21329063.2244   21329060.8294
      1143.7344
   6316981.21349   4914015.79746  21569273.8644   21569271.2044
     -2605.9844
  -5181006.63048  -4021750.04845  22833627.1854   22833623.6494
        81.1564
  -1852198.85049  -1440239.50046  21109007.4814   21109004.5604
         9.9224
  -3202094.16347  -2487807.71043  23734321.5444   23734320.8534
       178.4224
  -8040331.66348  -6251538.15244  22917480.2394   22917477.6494
      2358.0784
 04  9 13 22  7 45.0010000  0  7G 3G 8G13G19G27G10G28
   4337434.01148   3378213.74442  23998385.5914   23998385.1614
     -2319.2344
  -6860733.49549  -5331210.75547  21325803.8494   21325801.0284
      1140.2344
   6356124.20149   4944516.80146  21576722.5994   21576720.0754
     -2613.0314
  -5182155.55148  -4022645.31745  22833408.9504   22833405.1534
        72.0314
  -1852325.19849  -1440337.96146  21108983.5364   21108980.6064
         6.9384
  -3204698.68147  -2489837.22143  23733825.2244   23733824.6034
       168.9224
  -8075668.53748  -6279073.33744  22910755.9354   22910753.5954
      2353.4384
 04  9 13 22  8  0.0010000  0  7G 3G 8G13G19G27G10G28
   4372286.78048   3405371.70242  24005018.1694   24005017.1464
     -2327.8594
  -6877807.90249  -5344515.48046  21322553.8494   21322551.5874
      1136.2034
   6395376.71649   4975103.15346  21584192.2714   21584189.5174
     -2620.7344
  -5183163.43748  -4023430.68745  22833216.8174   22833213.2044
        62.1884
  -1852402.04448  -1440397.85146  21108969.4034   21108965.9784
         3.2194
  -3207157.91647  -2491753.50642  23733356.9354   23733356.6264
       158.8444
  -8110932.38648  -6306551.63144  22904045.5214   22904043.0674
      2348.1884
 04  9 13 22  8 15.0010000  0  7G 3G 8G13G19G27G10G28
   4407260.76547   3432624.15442  24011673.0214   24011672.6464
     -2335.2034
  -6894828.33449  -5357778.15546  21319315.8644   21319313.0524
      1133.2504
   6434736.91549   5005773.40746  21591682.4114   21591679.7944
     -2627.2034
  -5184031.81447  -4024107.34545  22833051.4974   22833048.5014
        53.7034
  -1852431.07748  -1440420.47446  21108963.8964   21108960.5994
         0.6254
  -3209473.50747  -2493557.90143  23732916.3964   23732916.1734
       149.9384
  -8146124.73948  -6333974.21944  22897348.7244   22897346.7474
      2344.1254
 04  9 13 22  8 30.0010000  0  7G 3G 8G13G19G27G10G28
   4442353.69747   3459969.22342  24018351.0284   24018350.6694
     -2343.3284
  -6911796.91349  -5371000.42946  21316086.1774   21316083.9354
      1129.6564
   6474202.72149   5036525.96946  21599192.4894   21599189.9974
     -2634.4224
  -5184762.67548  -4024676.85045  22832912.6774   22832909.0634
        44.2814
  -1852414.33448  -1440407.43246  21108966.6064   21108963.3294
        -2.5314
  -3211647.50447  -2495251.92643  23732503.1144   23732502.7594
       140.4224
  -8181247.49748  -6361342.56544  22890664.7314   22890662.5054
      2339.2974
 04  9 13 22  8 45.0010000  0  7G 3G 8G13G19G27G10G28
   4477567.69847   3487408.63142  24025052.3564   24025052.4894
     -2351.6724
  -6928711.09049  -5384180.29846  21312867.8564   21312865.7784
      1125.7034
   6513776.35449   5067362.52246  21606723.0364   21606720.0524
     -2641.9534
  -5185353.40648  -4025137.17845  22832799.9974   22832796.7284
        34.4844
  -1852349.18549  -1440356.67146  21108979.1854   21108976.2944
        -6.0944
  -3213677.33647  -2496833.63842  23732116.8254   23732116.2244
       130.3754
  -8216298.08248  -6388654.68344  22883994.7554   22883992.6614
      2334.1884
 04  9 13 22  9  0.0010000  0  7G 3G 8G13G19G27G10G28
   4512903.78348   3514943.24243  24031776.7864   24031776.7434
     -2359.8754
  -6945569.81949  -5397316.96246  21309659.6774   21309657.5284
      1122.0474
   6553458.83549   5098283.91146  21614274.0754   21614271.7634
     -2649.1724
  -5185802.70948  -4025487.27845  22832714.3254   22832711.2554
        25.1724
  -1852234.43649  -1440267.25946  21109001.0284   21108998.0754
        -9.3444
  -3215561.84447  -2498302.09943  23731758.5604   23731756.9624
       120.7504
  -8251275.15348  -6415909.51844  22877338.4814   22877337.0874
      2329.3134
 04  9 13 22  9 15.0010000  0  7G 3G 8G13G19G27G10G28
   4548360.83347   3542572.05442  24038523.6854   24038524.1464
     -2368.0944
  -6962373.71849  -5410410.90947  21306462.1224   21306459.3764
      1118.2344
   6593249.10249   5129289.29346  21621846.1464   21621843.3564
     -2656.5004
  -5186111.39149  -4025727.81845  22832656.1854   22832652.2744
        15.6414
  -1852070.85549  -1440139.80046  21109031.8494   21109029.5834
       -12.7664
  -3217301.92847  -2499658.02543  23731426.8414   23731425.8724
       110.9064
  -8286179.60648  -6443107.77644  22870697.2004   22870694.7124
      2324.3754
 04  9 13 22  9 30.0010000  0  7G 3G 8G13G19G27G10G28
   4583942.58347   3570298.04142  24045294.4584   24045294.4814
     -2375.9224
  -6979118.78549  -5423459.01146  21303275.5754   21303272.8564
      1114.7664
   6633151.02549   5160381.67546  21629438.9664   21629436.7744
     -2663.4374
  -5186275.40348  -4025855.61645  22832624.8254   22832620.6964
         6.5004
  -1851854.46449  -1439971.19146  21109073.4354   21109070.0284
       -15.8284
  -3218893.71448  -2500898.40842  23731124.4034   23731123.3024
       101.5784
  -8321007.29048  -6470246.20444  22864069.4894   22864066.7164
      2319.6564
 04  9 13 22  9 45.0010000  0  7G 3G 8G13G19G27G10G28
   4619644.61448   3598117.75142  24052088.7084   24052088.2314
     -2384.1094
  -6995809.25449  -5436464.57646  21300099.3024   21300096.8254
      1110.9384
   6673160.17349   5191557.59846  21637052.6384   21637049.9784
     -2670.7814
  -5186298.87549  -4025873.90445  22832620.1064   22832616.4784
        -3.1254
  -1851589.37849  -1439764.63446  21109123.6924   21109120.7784
       -19.2664
  -3220341.36946  -2502026.45043  23730848.1304   23730847.7244
        91.7664
  -8355762.27548  -6497327.97044  22857455.5444   22857453.3884
      2314.6254
 04  9 13 22 10  0.0010000  0  7G 3G 8G13G19G27G10G28
   4655466.75047   3626031.05442  24058905.1924   24058905.1534
     -2392.0784
  -7012444.92849  -5449427.42947  21296933.7244   21296931.3334
      1107.3134
   6713276.56349   5222817.10846  21644687.0364   21644683.9584
     -2677.9064
  -5186181.65949  -4025782.56445  22832642.8494   22832639.2394
       -12.3754
  -1851275.44249  -1439520.00946  21109183.5604   21109180.5324
       -22.3914
  -3221644.71747  -2503042.06542  23730600.6924   23730599.8764
        82.1094
  -8390444.32448  -6524352.92144  22850855.9504   22850853.8174
      2309.7664
 04  9 13 22 10 15.0010000  0  7G 3G 8G13G19G27G10G28
   4691407.41047   3654036.71442  24065744.3884   24065745.0564
     -2399.9064
  -7029027.00549  -5462348.53546  21293778.2784   21293775.4464
      1103.7814
   6753498.60949   5254158.93346  21652341.0994   21652337.8134
     -2684.8594
  -5185924.88348  -4025582.47845  22832691.0134   22832687.7044
       -21.5624
  -1850913.79249  -1439238.21546  21109252.4814   21109249.0014
       -25.5784
  -3222805.10047  -2503946.26143  23730379.8174   23730379.2164
        72.7504
  -8425054.69948  -6551322.01244  22844269.8334   22844267.9074
      2305.0474
 04  9 13 22 10 30.0010000  0  7G 3G 8G13G19G27G10G28
   4727466.84947   3682134.91942  24072606.4034   24072606.2044
     -2407.7664
  -7045554.97149  -5475227.47246  21290633.4814   21290630.5674
      1100.2034
   6793826.69349   5285583.37646  21660014.6774   21660011.6694
     -2691.9534
  -5185527.89749  -4025273.14145  22832766.0524   22832763.1034
       -30.9844
  -1850504.00449  -1438918.92246  21109330.3964   21109327.6464
       -28.7504
  -3223822.05647  -2504738.68743  23730186.0914   23730185.3604
        63.1724
  -8459592.71748  -6578234.73244  22837697.8334   22837695.1884
      2300.2664
 04  9 13 22 10 45.0010000  0  7G 3G 8G13G19G27G10G28
   4763644.12847   3710324.97142  24079490.8174   24079491.0874
     -2415.9374
  -7062029.46349  -5488064.71946  21287498.1304   21287495.6184
      1096.2814
   6834259.93949   5317089.78846  21667709.5994   21667706.6574
     -2699.2034
  -5184991.36748  -4024855.07645  22832868.8174   22832865.9234
       -40.5944
  -1850046.70149  -1438562.57046  21109417.1854   21109414.2044
       -32.2974
  -3224696.19147  -2505419.86243  23730020.1854   23730019.7904
        53.2504
  -8494058.86248  -6605091.42744  22831138.6614   22831137.0174
      2295.0784
 04  9 13 22 11  0.0010000  0  7G 3G 8G13G19G27G10G28
   4799942.17847   3738609.07542  24086397.6774   24086398.4544
     -2424.1254
  -7078447.15949  -5500857.74747  21284374.0054   21284371.8294
      1092.3594
   6874801.48349   5348680.55846  21675424.1534   21675420.8254
     -2706.6874
  -5184311.99749  -4024325.70445  22832998.8494   22832994.6064
       -50.2974
  -1849538.63649  -1438166.69546  21109514.3334   21109510.9544
       -35.8284
  -3225424.43247  -2505987.33942  23729881.3804   23729880.6184
        43.4534
  -8528449.89548  -6631889.61344  22824594.2784   22824591.9154
      2290.1094
 04  9 13 22 11 15.0010000  0  7G 3G 8G13G19G27G10G28
   4836359.31347   3766986.03142  24093328.3174   24093328.0524
     -2432.1414
  -7094809.32649  -5513607.47046  21281260.0284   21281257.5444
      1088.5944
   6915449.71249   5380354.48246  21683159.5134   21683156.1534
     -2713.8284
  -5183491.13849  -4023686.07345  22833154.3964   22833150.6064
       -59.8124
  -1848981.07549  -1437732.22946  21109619.7004   21109617.1614
       -39.2194
  -3226008.13647  -2506442.17143  23729769.9744   23729769.4584
        33.7504
  -8562767.08748  -6658630.24244  22818063.8254   22818062.0444
      2284.9224
 04  9 13 22 11 30.0010000  0  7G 3G 8G13G19G27G10G28
   4872899.86047   3795459.11742  24100282.2944   24100282.3564
     -2439.8914
  -7111111.40449  -5526310.39447  21278158.2784   21278155.6064
      1085.1094
   6956208.93449   5412114.86646  21690915.6464   21690912.3414
     -2720.6414
  -5182524.09449  -4022932.54945  22833338.4894   22833335.0994
       -69.0314
  -1848369.33549  -1437255.56646  21109736.4354   21109733.3024
       -42.3124
  -3226442.77047  -2506780.86543  23729687.9814   23729686.2634
        24.4064
  -8597005.81949  -6685309.75745  22811548.2004   22811546.1694
      2280.3134
 04  9 13 22 11 45.0010000  0  7G 3G 8G13G19G27G10G28
   4909558.86847   3824024.51842  24107256.8644   24107257.8334
     -2447.6874
  -7127358.13649  -5538970.18147  21275066.7944   21275063.8294
      1081.3914
   6997074.20349   5443957.91146  21698691.8024   21698688.6574
     -2727.7664
  -5181415.55049  -4022068.74145  22833549.2004   22833546.2084
       -78.4844
  -1847708.27249  -1436740.45346  21109862.2084   21109859.5094
       -45.5784
  -3226733.09846  -2507007.10743  23729632.0914   23729631.7944
        14.6724
  -8631170.76248  -6711931.76044  22805047.3804   22805044.7164
      2275.3284
 04  9 13 22 12  0.0010000  0  7G 3G 8G13G19G27G10G28
   4946334.54747   3852680.82342  24114255.6464   24114255.9704
     -2455.9224
  -7143550.87549  -5551587.89746  21271984.9744   21271982.5994
      1077.4064
   7038043.90849   5475882.31846  21706488.0214   21706485.0484
     -2735.0944
  -5180166.92948  -4021095.78545  22833786.8024   22833783.4314
       -88.2034
  -1846999.17849  -1436187.91646  21109997.2084   21109994.4464
       -49.1254
  -3226880.67247  -2507122.12342  23729604.4584   23729603.5174
         4.8914
  -8665263.28048  -6738497.32844  22798558.8804   22798557.1424
      2270.0784
 04  9 13 22 12 15.0010000  0  7G 3G 8G13G19G27G10G28
   4983229.74947   3881430.30442  24121276.8564   24121277.0404
     -2463.7504
  -7159686.55349  -5564161.14647  21268914.3564   21268911.8064
      1073.7194
   7079120.98149   5507890.40446  21714305.1144   21714302.4544
     -2742.1724
  -5178775.05048  -4020011.21645  22834052.1144   22834048.1034
       -97.6254
  -1846238.81549  -1435595.43146  21110141.8494   21110139.1184
       -52.5474
  -3226882.30147  -2507123.41243  23729603.1144   23729603.1464
        -4.9374
  -8699280.08249  -6765003.90844  22792086.0674   22792084.1534
      2265.1414
 04  9 13 22 12 30.0010000  0  7G 3G 8G13G19G27G10G28
   5020242.75047   3910271.53842  24128320.1774   24128319.9074
     -2471.3284
  -7175766.53749  -5576690.99647  21265854.5284   21265851.7284
      1070.2664
   7120303.71949   5539980.80946  21722142.2944   21722138.8334
     -2748.8914
  -5177241.32347  -4018816.11145  22834343.7714   22834340.0094
      -106.8284
  -1845428.69548  -1434964.18046  21110296.2314   21110293.1814
       -55.4694
  -3226739.51346  -2507012.14342  23729630.4974   23729630.4504
       -14.1254
  -8733222.59148  -6791452.59444  22785627.3024   22785624.5214
      2260.5944
 04  9 13 22 12 45.0010000  0  7G 3G 8G13G19G27G10G28
   5057372.23747   3939203.56542  24135385.2084   24135386.5174
     -2479.3124
  -7191791.69349  -5589178.12247  21262805.1064   21262802.3064
      1066.3284
   7161590.98749   5572152.68646  21729998.3964   21729995.9584
     -2756.1254
  -5175566.72648  -4017511.21945  22834662.2164   22834658.2124
      -116.4374
  -1844569.79448  -1434294.91146  21110459.3644   21110456.6534
       -59.0474
  -3226453.45146  -2506789.24243  23729685.8724   23729684.7204
       -23.9694
  -8767091.64048  -6817844.02744  22779182.0284   22779179.7674
      2255.2814
 04  9 13 22 13  0.0010000  0  7G 3G 8G13G19G27G10G28
   5094620.08547   3968227.78642  24142473.5524   24142474.9234
     -2486.9534
  -7207759.93149  -5601620.90446  21259766.4664   21259764.0444
      1062.6884
   7202984.78549   5604407.56346  21737875.4424   21737872.6064
     -2763.0784
  -5173749.06248  -4016094.87045  22835008.3414   22835004.4034
      -125.9694
  -1843659.96148  -1433585.94846  21110632.8414   21110629.9464
       -62.3284
  -3226022.04747  -2506453.10243  23729767.9354   23729766.8684
       -33.5784
  -8800885.00348  -6844176.48744  22772751.3964   22772749.3804
      2250.4384
 04  9 13 22 13 15.0010000  0  7G 3G 8G13G19G27G10G28
   5131984.20048   3997342.62542  24149583.9034   24149584.8764
     -2494.9064
  -7223673.04449  -5614020.73047  21256738.3254   21256736.0014
      1058.9064
   7244483.08749   5636743.86546  21745772.4504   21745769.7634
     -2770.1094
  -5171789.99648  -4014568.32045  22835380.9744   22835377.7314
      -135.3914
  -1842700.77849  -1432838.54446  21110815.2714   21110811.7674
       -65.7194
  -3225446.95847  -2506005.00543  23729877.2864   23729875.8994
       -43.2344
  -8834604.36948  -6870451.29044  22766334.5284   22766332.0484
      2245.3284
 04  9 13 22 13 30.0010000  0  7G 3G 8G13G19G27G10G28
   5169466.11747   4026549.24542  24156716.4034   24156717.3644
     -2502.7974
  -7239528.98149  -5626376.00147  21253721.1144   21253718.1344
      1055.1094
   7286087.54349   5669162.88646  21753689.3804   21753687.0874
     -2777.2814
  -5169687.71148  -4012930.18545  22835780.7554   22835777.6184
      -145.0474
  -1841690.55649  -1432051.36546  21111007.6774   21111004.1854
       -69.1564
  -3224726.49248  -2505443.61343  23730014.1464   23730013.6224
       -52.9534
  -8868247.99648  -6896667.07544  22759932.3644   22759929.9464
      2240.2344
 04  9 13 22 13 45.0010000  0  7G 3G 8G13G19G27G10G28
   5207064.59147   4055846.69442  24163870.6924   24163871.5914
     -2510.4694
  -7255328.88849  -5638687.62247  21250714.1774   21250711.4744
      1051.3754
   7327796.84349   5701663.61646  21761626.6224   21761623.6694
     -2784.1724
  -5167443.09348  -4011181.14445  22836208.6144   22836205.1574
      -154.5004
  -1840630.19549  -1431225.12146  21111209.1464   21111206.0794
       -72.4374
  -3223861.79748  -2504769.84943  23730178.4274   23730178.7284
       -62.5624
  -8901816.76548  -6922824.52144  22753544.0834   22753542.1654
      2235.3914
 04  9 13 22 14  0.0010000  0  7G 3G 8G13G19G27G10G28
   5244779.33548   4085234.77942  24171049.1064   24171048.7244
     -2518.1094
  -7271072.68349  -5650955.50047  21247718.4894   21247716.0244
      1047.6884
   7369610.89249   5734245.96846  21769583.5444   21769580.6924
     -2791.0314
  -5165056.08149  -4009321.12445  22836662.6304   22836659.0134
      -163.8914
  -1839519.59049  -1430359.71746  21111420.3024   21111417.6534
       -75.5944
  -3222852.83548  -2503983.66343  23730371.0524   23730370.6774
       -72.0624
  -8935310.48748  -6948923.49444  22747170.6464   22747168.2394
      2230.4384
 04  9 13 22 14 15.0010000  0  7G 3G 8G13G19G27G10G28
   5282607.41847   4114711.09242  24178246.3494   24178247.3644
     -2525.8754
  -7286762.89149  -5663181.64646  21244732.7784   21244730.1144
      1044.0164
   7411526.72849   5766907.60446  21777559.7864   21777556.5754
     -2797.9374
  -5162529.40748  -4007352.31045  22837143.6384   22837139.6534
      -173.2504
  -1838361.36549  -1429457.22546  21111641.1384   21111638.0634
       -78.9694
  -3221702.35048  -2503087.17743  23730590.0284   23730589.1774
       -81.5474
  -8968731.83248  -6974966.08644  22740811.2164   22740808.0714
      2225.5004
 04  9 13 22 14 30.0010000  0  7G 3G 8G13G19G27G10G28
   5320552.11548   4144278.38142  24185467.8334   24185468.8374
     -2533.2974
  -7302396.05949  -5675363.33447  21241758.1924   21241755.5714
      1040.6254
   7453547.66149   5799651.17245  21785556.0674   21785553.8884
     -2804.5624
  -5159859.42848  -4005271.79345  22837651.2084   22837648.6224
      -182.5164
  -1837152.03349  -1428514.87746  21111871.1064   21111868.3994
       -82.0004
  -3220406.77248  -2502077.63943  23730836.3964   23730835.4664
       -90.9534
  -9002077.06448  -7000949.34045  22734465.3024   22734463.1854
      2220.7504
 04  9 13 22 14 45.0010000  0  7G 3G 8G13G19G27G10G28
   5358610.36948   4173934.08642  24192710.2714   24192711.3104
     -2541.0624
  -7317974.89449  -5687502.68147  21238793.4424   21238790.9384
      1036.7814
   7495670.85349   5832474.39546  21793572.0914   21793569.2904
     -2811.6874
  -5157048.90549  -4003081.77645  22838185.7314   22838182.6184
      -192.1094
  -1835894.14349  -1427534.71446  21112110.4974   21112107.8334
       -85.5164
  -3218968.95948  -2500957.26543  23731110.1614   23731109.5954
      -100.7504
  -9035348.81848  -7026875.36744  22728133.8724   22728131.1774
      2215.6414
 04  9 13 22 15  0.0010000  0  7G 3G 8G13G19G27G10G28
   5396780.83548   4203677.24842  24199973.7474   24199974.2904
     -2548.6254
  -7333500.19149  -5699600.31347  21235838.7634   21235836.3644
      1033.0314
   7537895.11149   5865376.38246  21801607.2784   21801604.4854
     -2818.4844
  -5154098.80249  -4000782.99945  22838747.2394   22838743.6614
      -201.5164
  -1834588.70549  -1426517.49046  21112358.9664   21112356.1344
       -88.7814
  -3217390.04748  -2499726.96443  23731410.1924   23731410.0834
      -110.1094
  -9068548.18548  -7052744.97445  22721816.5054   22721813.9114
      2210.7034
 04  9 13 22 15 15.0010000  0  7G 3G 8G13G19G27G10G28
   5435062.35947   4233506.95842  24207258.2714   24207258.5174
     -2555.9374
  -7348972.67349  -5711656.79247  21232894.6924   21232891.5874
      1029.6094
   7580219.33749   5898356.26745  21809660.6464   21809658.5324
     -2825.0944
  -5151009.81148  -3998375.99845  22839335.3804   22839331.6264
      -210.7664
  -1833236.54949  -1425463.87746  21112616.4504   21112613.1534
       -91.8444
  -3215670.75447  -2498387.27443  23731737.6064   23731737.6104
      -119.4844
  -9101675.76848  -7078558.64745  22715511.8964   22715509.7514
      2205.9064
 04  9 13 22 15 30.0010000  0  7G 3G 8G13G19G27G10G28
   5473459.47248   4263426.71042  24214565.1384   24214565.6464
     -2563.8444
  -7364387.84549  -5723668.61546  21229961.3024   21229958.4424
      1025.5784
   7622647.97949   5931417.52545  21817734.4974   21817731.9464
     -2832.2504
  -5147777.20948  -3995857.08245  22839951.4354   22839946.9154
      -220.5314
  -1831832.97249  -1424370.17446  21112883.4194   21112880.6694
       -95.4694
  -3213806.49946  -2496934.62143  23732092.5994   23732091.3374
      -129.2814
  -9134726.83048  -7104312.68544  22709222.6924   22709220.8064
      2200.7194
 04  9 13 22 15 45.0010000  0  7G 3G 8G13G19G27G10G28
   5511972.01448   4293436.46742  24221894.6534   24221894.8174
     -2571.2814
  -7379745.48549  -5735635.60747  21227038.4974   21227035.9544
      1021.9224
   7665180.96649   5964560.07746  21825828.5134   21825825.5134
     -2839.0474
  -5144400.86949  -3993226.17145  22840592.9744   22840589.3024
      -229.8754
  -1830377.66348  -1423236.17646  21113159.9274   21113157.3994
       -98.8124
  -3211797.30246  -2495369.00943  23732474.4814   23732473.4894
      -138.8124
  -9167701.19848  -7130006.97544  22702948.3884   22702945.6814
      2195.7194
 04  9 13 22 16  0.0010000  0  7G 3G 8G13G19G27G10G28
   5550597.76148   4323534.39143  24229244.8564   24229245.0634
     -2579.0474
  -7395047.49449  -5747559.25747  21224126.4664   21224124.4934
      1018.0004
   7707816.23649   5997782.32046  21833941.7784   21833939.1614
     -2846.0004
  -5140882.68048  -3990484.73045  22841262.2004   22841258.7944
      -239.5624
  -1828872.56149  -1422063.37946  21113446.4354   21113444.3374
      -102.2344
  -3209645.07947  -2493691.96843  23732884.4424   23732882.9274
      -148.4694
  -9200600.76248  -7155642.97644  22696687.9894   22696684.8724
      2190.5314
 04  9 13 22 16 15.0010000  0  7G 3G 8G13G19G27G10G28
   5589338.19448   4353721.65942  24236615.9894   24236617.4664
     -2586.3594
  -7410291.84449  -5759437.96847  21221225.8804   21221223.4784
      1014.4534
   7750555.27549   6031085.42846  21842074.9114   21842072.1304
     -2852.6414
  -5137220.81949  -3987631.34545  22841959.4034   22841955.4704
      -248.7814
  -1827315.77249  -1420850.31146  21113743.0054   21113740.0634
      -105.4064
  -3207348.12648  -2491902.14343  23733321.8564   23733320.1774
      -157.8444
  -9233423.59248  -7181219.19244  22690441.2714   22690438.9664
      2185.7344
 04  9 13 22 16 30.0010000  0  7G 3G 8G13G19G27G10G28
   5628193.59047   4383998.50342  24244010.1614   24244011.3254
     -2593.9694
  -7425477.98649  -5771271.32347  21218335.8104   21218333.6104
      1010.7664
   7793398.54549   6064469.76646  21850227.9194   21850224.9934
     -2859.3754
  -5133414.70548  -3984665.56245  22842683.6384   22842679.7044
      -258.2814
  -1825706.80849  -1419596.58346  21114049.2004   21114045.9154
      -108.7504
  -3204906.02147  -2489999.20343  23733786.2864   23733785.5634
      -167.2664
  -9266169.01848  -7206735.07644  22684210.3174   22684207.6384
      2180.7504
 04  9 13 22 16 45.0010000  0  7G 3G 8G13G19G27G10G28
   5667157.78947   4414360.20842  24251424.4504   24251425.8644
     -2601.0944
  -7440611.82549  -5783063.92747  21215456.3254   21215453.7164
      1007.2344
   7836339.94849   6097930.56745  21858399.2714   21858396.7394
     -2866.0004
  -5129470.08849  -3981591.81845  22843434.3414   22843430.6924
      -267.6254
  -1824051.36349  -1418306.63546  21114363.9664   21114361.0054
      -111.8594
  -3202324.58947  -2487987.70543  23734277.3104   23734276.9894
      -176.6564
  -9298842.77848  -7232195.12144  22677992.9424   22677989.8214
      2175.8444
 04  9 13 22 17  0.0010000  0  7G 3G 8G13G19G27G10G28
   5706233.12848   4444808.42842  24258861.3024   24258861.2284
     -2609.1094
  -7455690.59649  -5794813.61147  21212586.8964   21212584.5954
      1003.0474
   7879381.89749   6131469.71146  21866590.1304   21866587.2354
     -2873.1874
  -5125384.39849  -3978408.17145  22844212.2784   22844207.9584
      -277.4064
  -1822346.82349  -1416978.42046  21114688.6924   21114685.8644
      -115.6254
  -3199601.36848  -2485865.75543  23734796.2394   23734795.4194
      -186.5474
  -9331442.24948  -7257597.29445  22671789.3494   22671786.4854
      2170.5164
 04  9 13 22 17 15.0010000  0  7G 3G 8G13G19G27G10G28
   5745421.35748   4475344.65642  24266318.5364   24266318.0214
     -2616.5944
  -7470712.16949  -5806518.73246  21209728.2864   21209725.3534
       999.2974
   7922526.13849   6165088.58646  21874799.9504   21874797.8804
     -2879.9224
  -5121155.51749  -3975112.93445  22845016.5674   22845012.9384
      -286.9534
  -1820590.98149  -1415610.23946  21115022.3564   21115019.8644
      -119.0004
  -3196734.22948  -2483631.62943  23735341.6534   23735341.2394
      -196.1724
  -9363965.20048  -7282939.81844  22665600.4424   22665598.0954
      2165.4384
 04  9 13 22 17 30.0010000  0  7G 3G 8G13G19G27G10G28
   5784724.29748   4505970.28442  24273797.5134   24273797.6614
     -2623.8754
  -7485674.38349  -5818177.59147  21206880.7944   21206878.5134
       995.5944
   7965774.74549   6198788.76045  21883030.2314   21883027.7124
     -2886.6414
  -5116781.25949  -3971704.42545  22845848.7864   22845845.7084
      -296.3594
  -1818781.76249  -1414200.45846  21115366.7634   21115364.0714
      -122.2974
  -3193721.28348  -2481283.86543  23735914.9504   23735914.2594
      -205.6564
  -9396409.46448  -7308221.03944  22659426.3254   22659423.9544
      2160.3134
 04  9 13 22 17 45.0010000  0  7G 3G 8G13G19G27G10G28
   5824141.02147   4536684.57942  24281297.7634   24281298.6854
     -2631.3754
  -7500577.79649  -5829790.64347  21204044.9114   21204042.9194
       991.8134
   8009126.80449   6232569.55246  21891279.8104   21891277.0954
     -2893.3914
  -5112262.25849  -3968183.12645  22846708.8174   22846705.5054
      -305.8594
  -1816919.60349  -1412749.44046  21115721.0914   21115718.3604
      -125.7194
  -3190563.16748  -2478823.03943  23736515.8254   23736514.8644
      -215.1874
  -9428775.52548  -7333441.31744  22653267.2554   22653264.3604
      2155.3444
 04  9 13 22 18  0.0010000  0  7G 3G 8G13G19G27G10G28
   5863669.73247   4567486.09242  24288819.9744   24288820.5604
     -2638.6564
  -7515423.80349  -5841358.94347  21201219.9424   21201217.8134
       988.1564
   8052580.70349   6266429.70345  21899548.4504   21899546.3844
     -2900.0164
  -5107599.89849  -3964550.12145  22847596.1224   22847593.0014
      -315.4064
  -1815006.09149  -1411258.38946  21116085.1224   21116082.4814
      -128.9224
  -3187261.32348  -2476250.18443  23737143.5524   23737143.2004
      -224.6254
  -9461064.86948  -7358601.80844  22647122.8724   22647120.1884
      2150.4534
 04  9 13 22 18 15.0010000  0  7G 3G 8G13G19G27G10G28
   5903310.23948   4598374.70342  24296363.8024   24296364.4034
     -2646.3594
  -7530212.44249  -5852882.57147  21198405.9744   21198403.2634
       984.0634
   8096136.20349   6300369.02645  21907837.0914   21907834.6734
     -2907.0314
  -5102794.15849  -3960805.40745  22848510.5914   22848507.0444
      -325.0944
  -1813041.04849  -1409727.18846  21116459.3964   21116456.6424
      -132.6724
  -3183815.84148  -2473565.41243  23737799.9034   23737799.6264
      -234.4534
  -9493277.39448  -7383702.45645  22640992.9894   22640991.0284
      2145.0004
 04  9 13 22 18 30.0010000  0  7G 3G 8G13G19G27G10G28
   5943063.06447   4629350.87942  24303928.1854   24303928.8374
     -2653.7664
  -7544942.97249  -5864360.89846  21195602.6384   21195600.0364
       980.2504
   8139793.73349   6334387.84145  21916144.5674   21916142.7514
     -2913.7664
  -5097844.30849  -3956948.38045  22849452.5284   22849448.2784
      -334.7034
  -1811023.73449  -1408155.27146  21116843.2634   21116840.6654
      -136.1414
  -3180226.11448  -2470768.24843  23738482.7244   23738482.5874
      -243.9534
  -9525412.27748  -7408742.60944  22634878.0364   22634875.0214
      2139.8754
 04  9 13 22 18 45.0010000  0  7G 3G 8G13G19G27G10G28
   5982926.28648   4660413.06942  24311514.6854   24311514.3534
     -2661.0624
  -7559616.72349  -5875795.00247  21192810.2474   21192807.3804
       976.5634
   8183551.54949   6368484.80745  21924471.4744   21924468.7474
     -2920.5004
  -5092751.95549  -3952980.31145  22850421.8804   22850417.6224
      -344.1564
  -1808955.64449  -1406543.77946  21117236.3024   21117233.9274
      -139.4534
  -3176493.89348  -2467860.02843  23739193.2084   23739192.6734
      -253.4224
  -9557471.10748  -7433723.50045  22628777.4194   22628774.6884
      2134.8134
 04  9 13 22 19  0.0010000  0  7G 3G 8G13G19G27G10G28
   6022904.08847   4691564.56342  24319121.5914   24319122.5444
     -2669.0314
  -7574229.15549  -5887181.30546  21190029.9744   21190026.8764
       972.0634
   8227413.93549   6402663.26845  21932818.6924   21932816.1344
     -2927.7504
  -5087512.56249  -3948897.68445  22851418.3804   22851414.7714
      -354.2974
  -1806832.25849  -1404889.20246  21117641.1224   21117637.9504
      -143.5314
  -3172614.59148  -2464837.20543  23739930.7714   23739930.6064
      -263.5784
  -9589449.14448  -7458641.41445  22622692.0134   22622689.2634
      2129.0634
 04  9 13 22 19 15.0010000  0  7G 3G 8G13G19G27G10G28
   6062993.89147   4722803.26842  24326749.2164   24326751.3644
     -2676.5004
  -7588782.76149  -5898521.78346  21187260.3564   21187257.8174
       968.1414
   8271378.53249   6436921.35545  21941184.8024   21941182.1734
     -2934.5164
  -5082128.27649  -3944702.13745  22852442.4814   22852439.4814
      -363.8754
  -1804655.66649  -1403193.16246  21118055.3104   21118052.3724
      -147.0004
  -3168590.63648  -2461701.68743  23740697.3254   23740696.5364
      -273.2344
  -9621348.64748  -7483498.16145  22616621.7164   22616619.0754
      2123.8284
 04  9 13 22 19 30.0010000  0  7G 3G 8G13G19G27G10G28
   6103189.95247   4754124.79442  24334399.7084   24334400.8064
     -2683.2344
  -7603282.61049  -5909820.36347  21184501.2164   21184498.3294
       964.9694
   8315439.81149   6471254.78645  21949569.1384   21949567.1144
     -2940.5624
  -5076604.50049  -3940397.90545  22853494.0914   22853490.8564
      -372.8594
  -1802431.34349  -1401459.92546  21118478.6384   21118475.5364
      -149.7974
  -3164427.56248  -2458457.73643  23741488.9664   23741487.9664
      -282.0944
  -9653174.93748  -7508297.84345  22610565.2394   22610562.5284
      2119.4064
 04  9 13 22 19 45.0010000  0  7G 3G 8G13G19G27G10G28
   6143499.61448   4785534.87542  24342071.6304   24342070.9744
     -2690.8914
  -7617720.98049  -5921071.05747  21181753.6064   21181751.1424
       960.6884
   8359604.95449   6505669.15345  21957973.3494   21957971.5404
     -2947.5314
  -5070933.73949  -3935979.14545  22854573.7474   22854569.8294
      -382.6724
  -1800151.61949  -1399683.52946  21118911.8724   21118909.2904
      -153.6094
  -3160117.73948  -2455099.46543  23742309.3414   23742308.4464
      -291.8754
  -9684920.31248  -7533034.46745  22604524.2244   22604521.7204
      2113.9534
 04  9 13 22 20  0.0010000  0  7G 3G 8G13G19G27G10G28
   6183918.83147   4817030.30842  24349762.4894   24349762.8724
     -2698.4534
  -7632101.73249  -5932276.83247  21179017.2944   21179014.5284
       956.5004
   8403870.03349   6540161.38745  21966397.6064   21966394.5524
     -2954.5474
  -5065119.58149  -3931448.65045  22855680.5364   22855676.1884
      -392.6254
  -1797819.99649  -1397866.69946  21119355.7244   21119352.9934
      -157.3754
  -3155665.01148  -2451629.83143  23743156.6614   23743155.8964
      -301.8124
  -9716588.37048  -7557710.86245  22598498.6924   22598495.6184
      2108.3914
 04  9 13 22 20 15.0010000  0  7G 3G 8G13G19G27G10G28
   6224449.23747   4848612.37942  24357474.9664   24357475.7124
     -2705.3594
  -7646422.85949  -5943436.14347  21176291.7244   21176289.2244
       952.9844
   8448236.67849   6574732.76445  21974839.8334   21974836.9974
     -2960.8914
  -5059160.09149  -3926804.89745  22856813.8024   22856810.2164
      -401.8444
  -1795434.68549  -1396008.01146  21119809.8724   21119806.9424
      -160.4694
  -3151067.47648  -2448047.34743  23744031.5444   23744030.9894
      -310.9844
  -9748177.10848  -7582325.42945  22592487.0604   22592483.9894
      2103.5634
 04  9 13 22 20 30.0010000  0  7G 3G 8G13G19G27G10G28
   6265085.95247   4880277.27142  24365207.4034   24365209.1924
     -2712.6254
  -7660688.73749  -5954552.41347  21173577.3254   21173574.4504
       949.2344
   8492700.33349   6609379.73745  21983300.5524   21983298.5404
     -2967.4224
  -5053059.69949  -3922051.34745  22857975.3724   22857971.2244
      -411.3594
  -1793000.06149  -1394110.91846  21120272.9894   21120270.1034
      -163.8914
  -3146329.77448  -2444355.64543  23744932.8254   23744932.7164
      -320.3914
  -9779690.92348  -7606881.62245  22586489.8174   22586487.0634
      2098.4694
 04  9 13 22 20 45.0010000  0  7G 3G 8G13G19G27G10G28
   6305827.81947   4912024.13342  24372961.2314   24372961.8254
     -2720.0624
  -7674900.39649  -5965626.44947  21170872.9744   21170870.1464
       945.2344
   8537259.71149   6644101.30045  21991780.0914   21991778.0874
     -2974.2344
  -5046819.55149  -3917188.90445  22859162.7784   22859158.9624
      -421.1094
  -1790516.91549  -1392176.00346  21120745.5444   21120742.5674
      -167.5784
  -3141453.00948  -2440555.57343  23745860.6854   23745860.1654
      -330.0944
  -9811130.88148  -7631380.28745  22580507.5364   22580504.5994
      2093.1094
 04  9 13 22 21  0.0010000  0  7G 3G 8G13G19G27G10G28
   6346681.32447   4943857.96642  24380734.5364   24380735.3454
     -2727.4694
  -7689050.84449  -5976652.75647  21168179.8964   21168177.3604
       941.1564
   8581921.38949   6678902.57546  22000279.0834   22000276.9384
     -2981.0624
  -5040432.77848  -3912212.21345  22860377.4034   22860374.7474
      -430.8594
  -1787978.62149  -1390198.11546  21121228.9664   21121225.7284
      -171.2034
  -3136430.46148  -2436641.91643  23746816.7784   23746816.2594
      -339.9064
  -9842490.07348  -7655815.99644  22574539.4274   22574537.3334
      2087.7664
 04  9 13 22 21 15.0010000  0  7G 3G 8G13G19G27G10G28
   6387643.26247   4975776.31942  24388529.8884   24388530.1694
     -2734.9844
  -7703142.94749  -5987633.61747  21165498.3964   21165496.0054
       936.9224
   8626682.29549   6713781.16845  22008797.1064   22008794.2554
     -2987.9224
  -5033902.17249  -3907123.43945  22861620.3104   22861617.3604
      -440.7504
  -1785387.85249  -1388179.34546  21121721.7554   21121718.9384
      -175.0004
  -3131265.06248  -2432616.95443  23747799.3804   23747799.6494
      -349.7344
  -9873771.34849  -7680190.97545  22568586.9814   22568584.6034
      2082.2034
 04  9 13 22 21 30.0010000  0  7G 3G 8G13G19G27G10G28
   6428712.82647   5007778.47342  24396345.3494   24396345.3564
     -2741.8914
  -7717176.99549  -5998569.23747  21162827.4274   21162824.8644
       933.4694
   8671541.74749   6748736.55245  22017333.2554   22017331.4624
     -2994.0944
  -5027228.26749  -3901923.00045  22862890.5364   22862886.9504
      -449.8914
  -1782745.11749  -1386120.08446  21122224.7004   21122221.7004
      -178.1414
  -3125957.29548  -2428481.02043  23748809.6854   23748808.7084
      -358.8594
  -9904975.00148  -7704505.49745  22562649.2004   22562646.6424
      2077.4694
 04  9 13 22 21 45.0010000  0  7G 3G 8G13G19G27G10G28
   6469886.35047   5039861.67642  24404179.0524   24404180.5244
     -2748.4844
  -7731156.48049  -6009462.34947  21160167.5604   21160164.7864
       930.0004
   8716496.04949   6783765.84745  22025887.9354   22025885.8214
     -3000.2974
  -5020414.47749  -3896613.56245  22864187.6464   22864183.4544
      -459.0624
  -1780053.66849  -1384022.84846  21122737.0994   21122734.4974
      -181.2504
  -3120510.81548  -2424237.02443  23749846.0604   23749845.7474
      -367.9694
  -9936104.33848  -7728762.09945  22556725.5054   22556722.4784
      2072.6564
 04  9 13 22 22  0.0010000  0  7G 3G 8G13G19G27G10G28
   6511166.98347   5072028.28942  24412036.0284   24412036.2904
     -2755.7664
  -7745077.96549  -6020310.25047  21157518.3964   21157516.0214
       925.9694
   8761548.61349   6818871.70245  22034461.2944   22034458.7904
     -3007.0624
  -5013457.20449  -3891192.31845  22865511.1304   22865507.6614
      -468.8594
  -1777309.93149  -1381884.87946  21123258.8174   21123256.0714
      -184.9064
  -3114922.17048  -2419882.29843  23750909.2474   23750909.2394
      -377.5784
  -9967155.81848  -7752958.04145  22550816.7164   22550814.0524
      2067.3134
 04  9 13 22 22 15.0010000  0  7G 3G 8G13G19G27G10G28
   6552553.10546   5104277.18642  24419911.2714   24419912.6924
     -2762.3754
  -7758942.69249  -6031113.94147  21154880.1144   21154877.5794
       922.7344
   8806697.89948   6854052.93245  22043052.3964   22043050.0284
     -3012.9224
  -5006357.79748  -3885660.33145  22866861.2164   22866858.2864
      -477.7194
  -1774515.11049  -1379707.09946  21123790.6384   21123787.8764
      -187.7344
  -3109192.78148  -2415417.84243  23751999.8644   23751999.5834
      -386.2974
  -9998130.66849  -7777094.27945  22544922.1464   22544919.5484
      2062.7504
 04  9 13 22 22 30.0010000  0  7G 3G 8G13G19G27G10G28
   6594044.19647   5136607.83642  24427807.2394   24427808.3174
     -2769.6094
  -7772750.69749  -6041873.41847  21152252.3804   21152249.6344
       918.5634
   8851943.30249   6889309.06045  22051662.9894   22051660.2084
     -3019.6094
  -4999116.66249  -3880017.87945  22868240.2244   22868236.6884
      -487.5624
  -1771669.62049  -1377489.84247  21124332.4194   21124329.5604
      -191.3444
  -3103323.12148  -2410844.12543  23753117.6774   23753116.2204
      -396.0314
 -10029029.09349  -7801170.93545  22539042.3964   22539040.0324
      2057.3284
 04  9 13 22 22 45.0010000  0  7G 3G 8G13G19G27G10G28
   6635639.29146   5169019.50042  24435721.3414   24435722.8104
     -2776.6874
  -7786502.52549  -6052589.13547  21149635.5914   21149632.8454
       914.7194
   8897283.95349   6924639.40445  22060290.9274   22060288.0284
     -3026.0474
  -4991734.35149  -3874265.45445  22869644.7084   22869640.9234
      -497.0314
  -1768773.91849  -1375233.46246  21124883.0284   21124880.3414
      -194.9224
  -3097313.74248  -2406161.50343  23754259.7244   23754259.7824
      -405.4064
 -10059851.69049  -7825188.53945  22533177.3174   22533174.7984
      2052.1094
 04  9 13 22 23  0.0010000  0  7G 3G 8G13G19G27G10G28
   6677339.05746   5201512.79942  24443656.5674   24443658.5214
     -2783.4844
  -7800197.16749  -6063260.28846  21147029.4894   21147027.3134
       911.0474
   8942720.74148   6960044.66245  22068937.3884   22068934.4894
     -3032.3594
  -4984209.80149  -3868402.17245  22871076.6304   22871072.7944
      -506.3124
  -1765826.96749  -1372937.14846  21125444.2394   21125441.3564
      -198.1874
  -3091163.78948  -2401369.35343  23755430.5604   23755430.2044
      -414.7194
 -10090597.41149  -7849146.21345  22527326.3804   22527323.6144
      2047.0944
 04  9 13 22 23 15.0010000  0  7G 3G 8G13G19G27G10G28
   6719143.59247   5234087.67042  24451612.2944   24451613.6534
     -2790.8754
  -7813834.06949  -6073886.44947  21144434.6614   21144431.5014
       906.9064
   8988253.64748   6995524.80345  22077601.8334   22077599.9114
     -3039.0314
  -4976542.76549  -3862427.88645  22872535.1614   22872531.9784
      -516.2504
  -1762828.40249  -1370600.61546  21126014.7084   21126012.0364
      -201.9374
  -3084873.03648  -2396467.51043  23756628.4114   23756627.5244
      -424.3754
 -10121265.85748  -7873043.69045  22521490.6614   22521487.3534
      2041.6564
 04  9 13 22 23 30.0010000  0  7G 3G 8G13G19G27G10G28
   6761055.04447   5266745.89342  24459587.6854   24459589.1814
     -2797.5944
  -7827411.05849  -6084465.92747  21141850.9744   21141848.1734
       903.1094
   9033884.96749   7031081.65545  22086285.7474   22086282.5954
     -3045.3444
  -4968730.73749  -3856340.61345  22874022.6224   22874018.7164
      -525.5944
  -1759775.49749  -1368221.73946  21126595.6924   21126592.7044
      -205.3594
  -3078439.12748  -2391454.08843  23757852.4504   23757851.6384
      -433.5944
 -10151854.33849  -7896878.85845  22515669.5914   22515666.7514
      2036.5634
 04  9 13 22 23 45.0010000  0  7G 3G 8G13G19G27G10G28
   6803071.45547   5299485.84242  24467583.8024   24467584.9314
     -2804.5624
  -7840929.49749  -6094999.76947  21139278.1534   21139275.5714
       899.2814
   9079612.88649   7066713.76245  22094987.0994   22094984.2124
     -3051.7344
  -4960775.29949  -3850141.57145  22875535.7554   22875532.2394
      -535.1254
  -1756670.04149  -1365801.90746  21127186.5364   21127184.1064
      -208.7974
  -3071863.83848  -2386330.51643  23759103.8024   23759102.9664
      -443.0004
 -10182364.54249  -7920653.00245  22509863.4424   22509860.8494
      2031.4224
 04  9 13 22 24  0.0010000  0  7G 3G 8G13G19G27G10G28
   6845192.18147   5332307.10842  24475598.9504   24475599.5914
     -2811.8444
  -7854389.69949  -6105488.25347  21136716.9354   21136714.4194
       895.0634
   9125436.77048   7102420.64545  22103707.0364   22103704.7044
     -3058.4694
  -4952676.90048  -3843831.15245  22877076.5754   22877073.2394
      -544.9844
  -1753512.30749  -1363341.35246  21127787.3104   21127784.6104
      -212.5474
  -3065147.66648  -2381097.18243  23760381.9894   23760381.4784
      -452.8124
 -10212796.85049  -7944366.47645  22504073.0674   22504069.8564
      2025.9224
 04  9 13 22 24 15.0010000  0  7G 3G 8G13G19G27G10G28
   6887418.97847   5365211.01742  24483634.5134   24483635.5214
     -2818.6564
  -7867789.61249  -6115929.73247  21134166.8724   21134164.3564
       891.3284
   9171358.37248   7138203.67745  22112445.4894   22112443.6574
     -3064.7194
  -4944433.54748  -3837407.75445  22878645.5994   22878642.0364
      -554.4064
  -1750300.23549  -1360838.44246  21128398.6144   21128395.9464
      -215.9224
  -3058288.74448  -2375752.60443  23761686.9894   23761686.3884
      -462.0314
 -10243149.09649  -7968017.56945  22498296.6464   22498293.7904
      2020.7974
 04  9 13 22 24 30.0010000  0  7G 3G 8G13G19G27G10G28
   6929749.86247   5398196.03842  24491689.5994   24491690.8334
     -2825.3284
  -7881130.77349  -6126325.45847  21131628.5834   21131626.0054
       887.5634
   9217375.78348   7174061.36545  22121202.7714   22121200.1884
     -3070.8754
  -4936046.90049  -3830872.71945  22880241.5134   22880238.0054
      -563.7504
  -1747035.28449  -1358294.33646  21129019.8254   21129016.8454
      -219.3124
  -3051288.77248  -2370298.07843  23763018.3804   23763018.7634
      -471.2344
 -10273422.85349  -7991607.49245  22492536.1614   22492533.0214
      2015.7974
 04  9 13 22 24 45.0010000  0  7G 3G 8G13G19G27G10G28
   6972183.74947   5431261.39342  24499765.4114   24499766.1264
     -2832.2344
  -7894413.98949  -6136676.00147  21129100.5284   21129098.4074
       883.7664
   9263488.17748   7209993.06445  22129977.6614   22129974.8964
     -3077.1254
  -4927517.63349  -3824226.54945  22881865.0214   22881861.4894
      -573.2344
  -1743718.06749  -1355709.49646  21129651.2244   21129648.3844
      -222.6874
  -3044148.50148  -2364734.24443  23764377.5444   23764377.8804
      -480.5624
 -10303618.75949  -8015136.74345  22486789.8414   22486786.7204
      2010.6254
 04  9 13 22 25  0.0010000  0  7G 3G 8G13G19G27G10G28
   7014721.85147   5464407.86742  24507858.4424   24507860.7434
     -2839.3284
  -7907637.42849  -6146979.98447  21126584.2314   21126582.2634
       879.5314
   9309696.91548   7245999.83645  22138770.9744   22138767.7244
     -3083.8594
  -4918844.17649  -3817468.03345  22883515.5284   22883511.7594
      -583.0624
  -1740347.13549  -1353082.80246  21130293.0994   21130289.5994
      -226.5944
  -3036866.45248  -2359059.96643  23765764.0214   23765762.9384
      -490.2814
 -10333735.20749  -8038604.08345  22481058.5914   22481056.3564
      2005.1094
 04  9 13 22 25 15.0010000  0  7G 3G 8G13G19G27G10G28
   7057360.82547   5497632.94842  24515972.8804   24515974.4424
     -2846.1254
  -7920804.27749  -6157239.87847  21124078.6464   21124076.3294
       875.7194
   9355998.51548   7282078.95545  22147581.4814   22147578.8134
     -3090.0314
  -4910029.66549  -3810599.59945  22885192.5054   22885188.8604
      -592.5004
  -1736925.45249  -1350416.57846  21130943.8964   21130941.1854
      -229.9374
  -3029445.98248  -2353277.78443  23767175.9194   23767175.4424
      -499.5004
 -10363775.18649  -8062011.85045  22475342.0134   22475339.3024
      1999.9844
 04  9 13 22 25 30.0010000  0  6G 8G13G19G27G10G28
  -7933910.98249  -6167452.88847  21121584.3644   21121582.0834
       871.7194
   9402396.18349   7318232.94945  22156410.8494   22156408.2244
     -3096.5164
  -4901070.69649  -3803618.58845  22886897.5134   22886893.6424
      -602.1414
  -1733449.52649  -1347708.07246  21131605.2084   21131602.1814
      -233.6414
  -3021883.70848  -2347385.14543  23768614.5604   23768614.5214
      -509.0004
 -10393735.25949  -8085357.33945  22469640.5754   22469638.2824
      1994.5634
 04  9 13 22 25 45.0010000  0  6G 8G13G19G27G10G28
  -7946957.47448  -6177618.99247  21119101.7164   21119099.4814
       868.1094
   9448889.89048   7354461.77345  22165258.4584   22165255.9074
     -3102.4064
  -4891967.27649  -3796525.02745  22888629.9354   22888626.2474
      -611.3594
  -1729919.19849  -1344957.17047  21132277.1064   21132273.9114
      -236.7974
  -3014179.68348  -2341382.04143  23770081.5994   23770080.4234
      -517.9224
 -10423615.24149  -8108640.41445  22463955.5054   22463952.7204
      1989.6884
 04  9 13 22 26  0.0010000  0  6G 8G13G19G27G10G28
  -7959942.11149  -6187736.88347  21116631.0674   21116628.3064
       863.1094
   9495480.70748   7390766.26945  22174123.9744   22174121.7314
     -3109.6724
  -4882717.97849  -3789317.79545  22890390.1854   22890387.3104
      -621.9224
  -1726332.92649  -1342162.68646  21132959.4034   21132956.8134
      -241.4064
  -3006332.53748  -2335267.39443  23771573.8964   23771573.7044
      -528.4064
 -10453413.59249  -8131859.89945  22458284.7164   22458281.3884
      1983.4064
 04  9 13 22 26 15.0010000  0  6G 8G13G19G27G10G28
  -7972867.63649  -6197808.74047  21114171.5054   21114168.7784
       859.4224
   9542165.69948   7427144.13645  22183008.2784   22183005.7744
     -3115.7974
  -4873325.62749  -3781999.10445  22892177.6224   22892173.4074
      -631.2504
  -1722693.53349  -1339326.81946  21133652.4814   21133649.6034
      -244.7664
  -2998345.32548  -2329043.61343  23773094.2474   23773093.6034
      -537.4064
 -10483133.17549  -8155018.00545  22452629.2164   22452625.9704
      1978.3594
 04  9 13 22 26 30.0010000  0  6G 8G13G19G27G10G28
  -7985733.60449  -6207834.16147  21111723.0054   21111720.6774
       856.0164
   9588945.23848   7463595.69245  22191909.5364   22191907.7824
     -3121.4844
  -4863789.62249  -3774568.46445  22893991.9114   22893987.9544
      -640.3444
  -1719000.31249  -1336448.98646  21134354.7944   21134351.9934
      -247.7194
  -2990217.48448  -2322710.24343  23774640.6304   23774640.1224
      -546.2504
 -10512773.37249  -8178114.24845  22446988.9034   22446985.9194
      1973.6564
 04  9 13 22 26 45.0010000  0  6G 8G13G19G27G10G28
  -7998539.34849  -6217812.66947  21109286.4584   21109283.4894
       851.9694
   9635819.57148   7500121.09845  22200829.7474   22200827.4504
     -3127.8444
  -4854109.36649  -3767025.41245  22895833.7634   22895830.6344
      -649.8594
  -1715252.62149  -1333528.71347  21135068.2244   21135065.2514
      -251.3754
  -2981948.49048  -2316266.88743  23776214.6464   23776213.8064
      -555.7194
 -10542333.37749  -8201148.00045  22441363.3884   22441360.6034
      1968.2194
 04  9 13 22 27  0.0010000  0  6G 8G13G19G27G10G28
  -8011284.32749  -6227743.83347  21106861.1924   21106858.3104
       847.4844
   9682788.91948   7536720.55045  22209767.8334   22209765.8174
     -3134.6094
  -4844284.48449  -3759369.67345  22897703.8024   22897700.1694
      -659.9374
  -1711449.99049  -1330565.64447  21135791.7394   21135788.8764
      -255.5314
  -2973538.06448  -2309713.34043  23777814.6774   23777813.8964
      -565.5164
 -10571812.76649  -8224118.93845  22435754.0994   22435751.3994
      1962.4844
 04  9 13 22 27 15.0010000  0  6G 8G13G19G27G10G28
  -8023965.80449  -6237625.50247  21104448.3104   21104445.3764
       843.3134
   9729855.54448   7573395.80445  22218724.4034   22218722.1104
     -3141.0624
  -4834312.65548  -3751599.43245  22899601.2004   22899597.5754
      -669.6414
  -1707589.90549  -1327557.79246  21136526.2394   21136523.8764
      -259.2034
  -2964983.99048  -2303047.84143  23779442.6144   23779442.0874
      -575.1094
 -10601209.03648  -8247025.10445  22430160.4114   22430157.1854
      1957.0474
 04  9 13 22 27 30.0010000  0  6G 8G13G19G27G10G28
  -8036587.00249  -6247460.21046  21102045.7164   21102043.0014
       839.3134
   9777016.02849   7610144.19245  22227699.0134   22227696.4664
     -3147.3594
  -4824196.92949  -3743717.05045  22901525.8334   22901522.5524
      -679.3444
  -1703675.47449  -1324507.60446  21137271.1144   21137268.0714
      -262.9224
  -2956289.57648  -2296273.00843  23781097.0834   23781096.4464
      -584.3754
 -10630525.23249  -8269868.89145  22424581.4194   22424578.6224
      1951.6254
 04  9 13 22 27 45.0010000  0  6G 8G13G19G27G10G28
  -8049149.59349  -6257249.24346  21099655.4744   21099652.7824
       835.3914
   9824268.54749   7646964.30245  22236690.6924   22236688.3884
     -3153.4064
  -4813938.91749  -3735723.80745  22903478.1534   22903474.9624
      -688.7974
  -1699708.04549  -1321416.10546  21138026.1854   21138023.1464
      -266.4694
  -2947456.40648  -2289390.01743  23782777.5914   23782777.2204
      -593.6094
 -10659762.87049  -8292651.44345  22419017.7314   22419014.8414
      1946.3754
 04  9 13 22 28  0.0010000  0  6G 8G13G19G27G10G28
  -8061650.16549  -6266989.95347  21097276.5994   21097273.9974
       831.1414
   9871616.08549   7683858.43345  22245700.7164   22245698.7514
     -3159.7664
  -4803535.44749  -3727617.21145  22905457.7004   22905454.4934
      -698.5474
  -1695684.43449  -1318280.83646  21138791.7864   21138789.2004
      -270.2504
  -2938481.54148  -2282396.66843  23784485.6614   23784485.4274
      -603.2344
 -10688918.69049  -8315370.26245  22413469.6464   22413466.3294
      1940.8594
 04  9 13 22 28 15.0010000  0  6G 8G13G19G27G10G28
  -8074088.78249  -6276682.38347  21094909.7864   21094907.8374
       827.5634
   9919058.22449   7720826.29845  22254728.3024   22254726.6464
     -3165.6094
  -4792986.78249  -3719397.48345  22907465.5284   22907461.6574
      -707.7034
  -1691604.81849  -1315101.93646  21139568.5994   21139565.7124
      -273.5164
  -2929365.19148  -2275293.03143  23786220.1144   23786220.0954
      -612.0944
 -10717992.84349  -8338025.42645  22407936.8024   22407933.7004
      1935.9384
 04  9 13 22 28 30.0010000  0  6G 8G13G19G27G10G28
  -8086468.66449  -6286329.03947  21092553.7944   21092551.1574
       823.2814
   9966591.44148   7757865.13845  22263773.9894   22263771.0794
     -3172.0004
  -4782296.28249  -3711067.23645  22909499.5674   22909496.3414
      -717.5164
  -1687472.39549  -1311881.87646  21140355.0364   21140351.7744
      -277.4064
  -2920110.85448  -2268081.89843  23787982.1384   23787981.7044
      -621.7034
 -10746988.68949  -8360619.58145  22402418.8884   22402416.1344
      1930.2974
 04  9 13 22 28 45.0010000  0  6G 8G13G19G27G10G28
  -8098788.24749  -6295928.71147  21090209.6384   21090207.1494
       819.5784
  10014216.92249   7794975.85645  22272836.9504   22272834.6424
     -3177.8444
  -4771462.37848  -3702625.24045  22911561.4894   22911557.4854
      -726.7974
  -1683285.57949  -1308619.43246  21141151.4894   21141148.8724
      -280.6254
  -2910717.02148  -2260762.04343  23789769.1614   23789768.7944
      -630.5474
 -10775904.54249  -8383151.40345  22396916.5364   22396913.8764
      1925.3134
 04  9 13 22 29  0.0010000  0  6G 8G13G19G27G10G28
  -8111047.73249  -6305481.56947  21087876.9194   21087874.1104
       815.4534
  10061934.04849   7832157.98845  22281916.8104   22281914.9194
     -3184.0624
  -4760485.46849  -3694071.83045  22913650.4664   22913646.1774
      -736.4224
  -1679044.56449  -1305314.75846  21141958.4814   21141955.7714
      -284.3914
  -2901184.15647  -2253333.86143  23791583.1304   23791583.4074
      -639.9534
 -10804740.58949  -8405621.03745  22391429.2864   22391426.6224
      1919.8914
 04  9 13 22 29 15.0010000  0  6G 8G13G19G27G10G28
  -8123249.83549  -6314989.69947  21085554.5364   21085552.2244
       811.7504
  10109740.26849   7869409.54445  22291013.8104   22291012.2554
     -3189.8124
  -4749368.10849  -3685408.95545  22915766.3564   22915762.4784
      -745.7344
  -1674751.91749  -1301969.84846  21142775.2004   21142772.7634
      -287.7974
  -2891515.05548  -2245799.51943  23793423.1464   23793423.3924
      -648.9844
 -10833499.38049  -8428030.46245  22385956.4354   22385953.7944
      1914.8754
 04  9 13 22 29 30.0010000  0  6G 8G13G19G27G10G28
  -8135393.91749  -6324452.62347  21083244.0364   21083241.3334
       807.5634
  10157635.81749   7906730.68445  22300128.1774   22300126.5874
     -3196.0784
  -4738109.95649  -3676636.38445  22917908.0754   22917904.5174
      -755.3124
  -1670407.03149  -1298584.23946  21143602.4504   21143599.1884
      -291.5164
  -2881709.38748  -2238158.76243  23795289.1774   23795288.9934
      -658.4534
 -10862180.35749  -8450379.27145  22380498.7944   22380496.0174
      1909.3754
 04  9 13 22 29 45.0010000  0  6G 8G13G19G27G10G28
  -8147470.97349  -6333863.32547  21080945.4354   21080942.5834
       803.0634
  10205629.07049   7944127.98645  22309261.2084   22309258.9934
     -3202.6094
  -4726702.25549  -3667747.26945  22920078.6854   22920075.2984
      -765.3124
  -1666001.08449  -1295151.03847  21144440.1854   21144437.6104
      -295.6254
  -2871758.43748  -2230404.78843  23797182.6614   23797182.0284
      -668.0624
 -10890774.74649  -8472660.60045  22375057.5914   22375054.5404
      1903.5784
 04  9 13 22 30  0.0010000  0  6G 8G13G19G27G10G28
  -8159487.95149  -6343227.20747  21078658.7634   21078656.2714
       799.1414
  10253712.98149   7981595.94345  22318411.2084   22318409.0364
     -3208.5314
  -4715151.85348  -3658746.95945  22922276.4034   22922273.7394
      -774.7034
  -1661540.88749  -1291675.57447  21145289.3884   21145286.4544
      -299.0624
  -2861669.16348  -2222543.05143  23799102.5754   23799102.4074
      -677.1414
 -10919289.29549  -8494879.70045  22369631.2634   22369628.1424
      1898.4224
 04  9 13 22 30 15.0010000  0  6G 8G13G19G27G10G28
  -8171445.87749  -6352545.07047  21076383.3174   21076380.4624
       794.9224
  10301886.16549   8019133.44145  22327578.3024   22327576.1534
     -3214.8914
  -4703459.89649  -3649636.35945  22924501.5134   22924497.7744
      -784.4064
  -1657027.41549  -1288158.60546  21146148.4584   21146145.1534
      -303.0004
  -2851442.96548  -2214574.61443  23801048.8804   23801048.7784
      -686.6254
 -10947725.09349  -8517037.46445  22364220.3024   22364217.2904
      1892.7194
 04  9 13 22 30 30.0010000  0  6G 8G13G19G27G10G28
  -8183344.84849  -6361817.00046  21074118.9744   21074116.4934
       791.4064
  10350147.97348   8056739.99845  22336762.5524   22336760.6574
     -3220.2814
  -4691626.71749  -3640415.71545  22926753.4504   22926749.7594
      -793.5164
  -1652461.08549  -1284600.43246  21147017.3494   21147014.4384
      -306.1094
  -2841080.30648  -2206499.82643  23803021.1144   23803020.1464
      -695.2664
 -10976082.50949  -8539134.13045  22358824.2944   22358821.0404
      1887.9064
 04  9 13 22 30 45.0010000  0  6G 8G13G19G27G10G28
  -8195181.54249  -6371040.41147  21071866.3254   21071864.1774
       787.0004
  10398501.78548   8094418.24245  22345963.7084   22345962.0284
     -3226.6414
  -4679649.09449  -3631082.50645  22929032.9504   22929029.1104
      -803.2814
  -1647838.26049  -1280998.25646  21147897.0054   21147893.3334
      -310.0474
  -2830577.89948  -2198316.17543  23805018.7244   23805018.9704
      -704.8754
 -11004357.99449  -8561166.97445  22353443.1854   22353440.6654
      1882.2974
 04  9 13 22 31  0.0010000  0  6G 8G13G19G27G10G28
  -8206956.63549  -6380215.80947  21069625.8804   21069623.1924
       782.7974
  10446946.50148   8132167.33545  22355183.1694   22355180.8214
     -3232.7974
  -4667527.70149  -3621637.26445  22931339.0364   22931335.9154
      -813.0474
  -1643159.59849  -1277352.55246  21148787.0134   21148784.5404
      -313.9694
  -2819936.50148  -2190024.19243  23807044.1384   23807044.3294
      -714.2344
 -11032552.14549  -8583136.42045  22348078.0444   22348075.2084
      1876.7814
 04  9 13 22 31 15.0010000  0  6G 8G13G19G27G10G28
  -8218665.18049  -6389339.35247  21067397.3334   21067395.2044
       778.3284
  10495486.61048   8169990.74645  22364419.6774   22364417.6694
     -3239.2034
  -4655257.93449  -3612076.42445  22933674.3334   22933671.1424
      -822.8914
  -1638420.37749  -1273659.66046  21149688.6614   21149686.4744
      -317.9534
  -2809151.61348  -2181620.38043  23809097.0524   23809096.4704
      -723.8594
 -11060660.22849  -8605038.81445  22342729.2004   22342726.1924
      1871.0164
 04  9 13 22 31 30.0010000  0  6G 8G13G19G27G10G28
  -8230316.73849  -6398418.49747  21065180.7474   21065177.9584
       774.7034
  10544112.31348   8207880.86545  22373673.0214   22373670.8884
     -3244.6564
  -4642849.31249  -3602407.39145  22936035.1144   22936031.9744
      -831.9694
  -1633630.01049  -1269926.92346  21150600.4034   21150597.6064
      -321.1254
  -2798232.95948  -2173112.37843  23811174.3964   23811174.0054
      -732.5164
 -11088691.73249  -8626881.52946  22337394.6534   22337392.1104
      1866.0784
 04  9 13 22 31 45.0010000  0  6G 8G13G19G27G10G28
  -8241907.15149  -6407449.98747  21062975.0914   21062972.5604
       770.9694
  10592827.20648   8245840.46345  22382942.9274   22382940.5754
     -3250.3124
  -4630298.07549  -3592627.21745  22938424.1144   22938420.5874
      -841.2974
  -1628784.54549  -1266151.25947  21151522.5214   21151519.5484
      -324.6254
  -2787176.81048  -2164497.21943  23813278.7244   23813278.0094
      -741.4064
 -11116642.77249  -8648661.55345  22332076.5444   22332073.4034
      1861.0314
 04  9 13 22 32  0.0010000  0  6G 8G13G19G27G10G28
  -8253440.17449  -6416436.76747  21060780.4194   21060777.5094
       766.7664
  10641627.48448   8283866.61445  22392230.4194   22392227.2474
     -3256.3914
  -4617607.75149  -3582738.65845  22940838.0754   22940835.6574
      -850.7664
  -1623887.50149  -1262335.39646  21152454.7474   21152451.8994
      -328.4064
  -2775986.85048  -2155777.78243  23815407.7314   23815407.5094
      -750.5944
 -11144516.91849  -8670381.64845  22326771.8964   22326769.0174
      1855.5634
 04  9 13 22 32 15.0010000  0  6G 8G13G19G27G10G28
  -8264907.42749  -6425372.28947  21058598.3174   21058595.6814
       762.3754
  10690521.23048   8321965.59645  22401534.3564   22401531.8134
     -3262.6254
  -4604770.23848  -3572735.41745  22943281.5364   22943277.6144
      -860.6874
  -1618930.56849  -1258472.86046  21153397.6464   21153395.1814
      -332.4064
  -2764654.92848  -2146947.74043  23817564.2714   23817563.9234
      -760.1414
 -11172305.72749  -8692035.26146  22321483.8804   22321481.0874
      1849.7814
 04  9 13 22 32 30.0020000  0  6G 8G13G19G27G10G28
  -8276310.95649  -6434258.16447  21056428.1194   21056425.4204
       757.7194
  10739510.17648   8360138.75244  22410856.0804   22410853.6864
     -3269.0944
  -4591786.08549  -3562617.90745  22945753.6274   22945748.7604
      -870.6564
  -1613914.67449  -1254564.38946  21154352.4084   21154349.3614
      -336.6094
  -2753181.88747  -2138007.72842  23819747.5334   23819747.4824
      -769.8124
 -11200012.37249  -8713624.84745  22316211.3694   22316208.4594
      1843.8754
 04  9 13 22 32 45.0020000  0  6G 8G13G19G27G10G28
  -8287651.95249  -6443095.30947  21054270.2134   21054267.2524
       754.0314
  10788584.72948   8398378.61045  22420195.5104   22420192.5764
     -3274.5474
  -4578659.81148  -3552389.64645  22948250.1274   22948246.3504
      -879.8444
  -1608843.20249  -1250612.60646  21155317.1504   21155314.4904
      -339.9374
  -2741572.18048  -2128961.22342  23821956.1894   23821955.6504
      -778.5944
 -11227635.95749  -8735149.71345  22310954.8774   22310951.6464
      1838.8754
 04  9 13 22 33  0.0020000  0  6G 8G13G19G27G10G28
  -8298930.36549  -6451883.68647  21052123.9944   21052121.0374
       750.1094
  10837748.47748   8436687.98045  22429550.5964   22429548.1704
     -3280.2504
  -4565389.80548  -3542049.37545  22950775.8224   22950771.8264
      -889.1564
  -1603714.87649  -1246616.52046  21156293.1354   21156290.2484
      -343.5474
  -2729824.35248  -2119807.09343  23824191.4554   23824191.3074
      -787.4064
 -11255177.50649  -8756610.64546  22305713.5254   22305710.9474
      1833.6564
 04  9 13 22 33 15.0020000  0  6G 8G13G19G27G10G28
  -8310150.59849  -6460626.72947  21049988.7754   21049985.7714
       745.9064
  10886996.80048   8475063.25345  22438921.8464   22438919.9864
     -3286.2034
  -4551980.66649  -3531600.72445  22953327.1584   22953323.5804
      -898.7194
  -1598534.26449  -1242579.69546  21157279.2214   21157276.2994
      -347.2504
  -2717943.05048  -2110548.95543  23826453.2834   23826452.4004
      -796.6564
 -11282641.43149  -8778011.09946  22300487.6744   22300484.4714
      1828.2034
 04  9 13 22 33 30.0020000  0  6G 8G13G19G27G10G28
  -8321305.50549  -6469318.86547  21047865.9554   21047863.5254
       741.3914
  10936336.28548   8513509.56045  22448311.3224   22448309.4984
     -3292.4064
  -4538425.59849  -3521038.35645  22955906.1894   22955904.0064
      -908.6414
  -1593294.44549  -1238496.72647  21158276.0964   21158273.5294
      -351.4374
  -2705921.67848  -2101181.70843  23828740.2364   23828740.3614
      -806.2194
 -11310020.85349  -8799345.69845  22295277.5254   22295274.7174
      1822.3914
 04  9 13 22 33 45.0020000  0  6G 8G13G19G27G10G28
  -8332397.06849  -6477961.64247  21045755.4794   21045752.5724
       737.2664
  10985764.99948   8552025.39445  22457717.3144   22457715.0644
     -3298.2344
  -4524726.31049  -3510363.58845  22958513.8464   22958510.0614
      -918.1094
  -1587996.83849  -1234368.73946  21159284.4634   21159281.9004
      -355.1094
  -2693762.01948  -2091706.67543  23831054.6894   23831054.1934
      -815.3124
 -11337317.39849  -8820615.73446  22290082.8934   22290079.6894
      1816.9844
 04  9 13 22 34  0.0020000  0  6G 8G13G19G27G10G28
  -8343428.26649  -6486557.38847  21043656.1584   21043653.4634
       733.2034
  11035279.27648   8590607.90545  22467139.5574   22467137.5884
     -3303.9534
  -4510886.28749  -3499579.16345  22961147.8074   22961143.5534
      -927.5314
  -1582644.95849  -1230198.44947  21160302.7524   21160300.6354
      -358.7974
  -2681467.79248  -2082126.77343  23833394.0254   23833394.3504
      -824.2034
 -11364534.39749  -8841823.77246  22284903.6664   22284900.5334
      1811.6254
 04  9 13 22 34 15.0020000  0  6G 8G13G19G27G10G28
  -8354395.32449  -6495103.15447  21041569.1114   21041566.7834
       729.2194
  11084882.71848   8629259.88845  22476578.9474   22476576.5844
     -3309.7194
  -4496901.83349  -3488682.21445  22963808.7914   22963804.4984
      -936.9064
  -1577234.79049  -1225982.74646  21161332.3854   21161329.7054
      -362.5004
  -2669035.23148  -2072439.08343  23835760.1504   23835759.9794
      -833.2504
 -11391668.04648  -8862966.86945  22279740.5884   22279737.6434
      1806.3134
 04  9 13 22 34 30.0020000  0  6G 8G13G19G27G10G28
  -8365303.10749  -6503602.71947  21039493.5494   21039491.2364
       725.3134
  11134570.42548   8667977.53145  22486034.1664   22486032.1234
     -3315.2974
  -4482777.65349  -3477676.37045  22966496.0494   22966492.7014
      -946.1724
  -1571770.88149  -1221725.16446  21162372.0254   21162369.3344
      -365.9224
  -2656469.12548  -2062647.34043  23838152.2604   23838151.2994
      -842.1414
 -11418722.86949  -8884048.54045  22274592.0334   22274589.2564
      1801.0944
 04  9 13 22 34 45.0020000  0  6G 8G13G19G27G10G28
  -8376147.20149  -6512052.67247  21037430.1274   21037427.5724
       720.8284
  11184346.05448   8706763.69744  22495506.5724   22495504.1584
     -3321.3284
  -4468509.94848  -3466558.69545  22969211.4554   22969208.2484
      -956.0624
  -1566249.43349  -1217422.74746  21163422.8384   21163419.8544
      -370.0314
  -2643765.80648  -2052748.68743  23840569.1894   23840568.2134
      -851.5474
 -11445695.06849  -8905065.82446  22269459.5804   22269456.8734
      1795.3134
 04  9 13 22 35  0.0020000  0  6G 8G13G19G27G10G28
  -8386929.84949  -6520454.74447  21035377.7684   21035375.2714
       716.8594
  11234207.00348   8745616.32845  22504993.7994   22504992.7014
     -3326.8594
  -4454101.03948  -3455330.99745  22971953.7834   22971949.7684
      -965.1564
  -1560672.59149  -1213077.17446  21164484.0574   21164481.3614
      -373.5474
  -2630927.67348  -2042744.99543  23843012.4944   23843012.0184
      -860.2974
 -11472586.75049  -8926020.37846  22264342.1664   22264338.9754
      1790.0944
 04  9 13 22 35 15.0020000  0  6G 8G13G19G27G10G28
  -8397650.05549  -6528808.15847  21033338.0024   21033335.1974
       712.3134
  11284154.13648   8784536.13045  22514498.0414   22514496.7954
     -3332.9534
  -4439549.89849  -3443992.46445  22974722.5184   22974718.8074
      -975.1094
  -1555039.01049  -1208687.38246  21165555.7134   21165553.4754
      -377.7034
  -2617953.73048  -2032635.45643  23845480.8384   23845480.7094
      -869.8284
 -11499396.73849  -8946911.26645  22259240.5964   22259237.8344
      1784.2814
 04  9 13 22 35 30.0020000  0  6G 8G13G19G27G10G28
  -8408304.67449  -6537110.46547  21031310.7444   21031308.3224
       708.3914
  11334190.11248   8823525.15845  22524020.4084   22524018.1464
     -3338.3754
  -4424853.63249  -3432540.83645  22977518.5574   22977515.1744
      -984.2974
  -1549345.89749  -1204251.20147  21166639.5574   21166636.7254
      -381.2194
  -2604841.46248  -2022418.12743  23847976.0494   23847976.1194
      -878.4534
 -11526122.14549  -8967736.25145  22254154.5494   22254152.0924
      1779.1884
 04  9 13 22 35 45.0020000  0  6G 8G13G19G27G10G28
  -8418900.61449  -6545367.04447  21029294.1664   21029291.7794
       704.2194
  11384307.80748   8862577.85545  22533556.9244   22533555.0764
     -3344.2034
  -4410019.31648  -3420981.65245  22980342.2604   22980338.8544
      -993.7974
  -1543599.97449  -1199773.87146  21167733.1194   21167729.8224
      -385.0624
  -2591597.82948  -2012098.44543  23850496.6504   23850495.9634
      -887.4844
 -11552769.74949  -8988500.61746  22249083.7364   22249080.9364
      1773.6724
 04  9 13 22 36  0.0020000  0  6G 8G13G19G27G10G28
  -8429431.89649  -6553573.23747  21027290.0884   21027287.5964
       700.2344
  11434513.00848   8901698.73544  22543111.6504   22543109.3184
     -3349.6414
  -4395040.91648  -3409310.18245  22983192.0104   22983188.2794
     -1003.0624
  -1537795.23949  -1195250.69746  21168837.1664   21168834.7954
      -388.6254
  -2578216.89948  -2001671.75843  23853042.2214   23853041.9904
      -896.2194
 -11579333.44849  -9009199.58746  22244028.7364   22244025.7134
      1768.4534
 04  9 13 22 36 15.0020000  0  6G 8G13G19G27G10G28
  -8439901.80149  -6561731.61747  21025297.7134   21025295.0024
       696.1414
  11484802.04648   8940884.95544  22552680.8544   22552678.9204
     -3355.1874
  -4379921.88248  -3397529.13945  22986069.3464   22986066.2604
     -1012.4694
  -1531934.86849  -1190684.18546  21169952.9244   21169950.1274
      -392.3594
  -2564702.26548  -1991140.92443  23855614.5644   23855613.9864
      -905.2974
 -11605816.64948  -9029835.84546  22238989.4004   22238986.4714
      1763.0474
 04  9 13 22 36 30.0020000  0  6G 8G13G19G27G10G28
  -8450311.53749  -6569843.09547  21023316.7604   21023314.1624
       691.7664
  11535173.32648   8980135.25844  22562266.1504   22562264.2684
     -3361.0624
  -4364663.61949  -3385639.59445  22988972.7134   22988969.3034
     -1022.1094
  -1526020.16049  -1186075.34246  21171078.2604   21171075.5494
      -396.3284
  -2551055.51448  -1980507.15943  23858211.8144   23858211.0764
      -914.4224
 -11632220.67148  -9050410.39645  22233964.5414   22233961.9674
      1757.4224
 04  9 13 22 36 45.0020000  0  6G 8G13G19G27G10G28
  -8460656.85549  -6577904.38647  21021348.2834   21021346.2254
       687.7814
  11585630.73048   9019452.65744  22571868.3934   22571866.0104
     -3366.5624
  -4349262.09949  -3373638.43745  22991904.3854   22991899.6504
     -1031.3594
  -1520046.97749  -1181420.91346  21172214.9324   21172212.1114
      -399.9064
  -2537272.60248  -1969767.24542  23860833.0884   23860833.5064
      -923.1724
 -11658541.40549  -9070920.04946  22228956.0574   22228953.2644
      1752.1414
 04  9 13 22 37  0.0020000  0  6G 8G13G19G27G10G28
  -8470935.86049  -6585914.00447  21019392.3614   21019389.6894
       683.3134
  11636175.91348   9058838.46745  22581486.7444   22581484.7174
     -3372.3124
  -4333715.59849  -3361524.28345  22994862.1504   22994858.7294
     -1040.9694
  -1514013.32249  -1176719.37046  21173363.1434   21173360.6354
      -403.9844
  -2523351.91047  -1958919.97942  23863482.6974   23863483.1704
      -932.3914
 -11684776.87749  -9091363.26746  22223963.7834   22223960.4794
      1746.4064
 04  9 13 22 37 15.0020000  0  6G 8G13G19G27G10G28
  -8481154.30449  -6593876.43946  21017447.6664   21017445.4794
       679.1094
  11686802.56348   9098287.74644  22591120.4244   22591118.3264
     -3377.9224
  -4318030.16948  -3349301.89145  22997846.6274   22997843.7714
     -1050.3754
  -1507925.17549  -1171975.37646  21174521.6504   21174519.1824
      -407.7664
  -2509299.62647  -1947970.18342  23866156.3464   23866156.2324
      -941.3444
 -11710933.05548  -9111744.70246  22218986.1114   22218983.2754
      1741.0164
 04  9 13 22 37 30.0020000  0  6G 8G13G19G27G10G28
  -8491307.74849  -6601788.21147  21015515.7524   21015513.0964
       674.7194
  11737514.81748   9137803.74044  22600770.3774   22600768.6664
     -3383.7034
  -4302201.55148  -3336967.93445  23000858.3544   23000855.4244
     -1060.0624
  -1501777.96349  -1167185.35646  21175691.5184   21175688.2294
      -411.8444
  -2495111.48548  -1936914.52443  23868856.7294   23868857.3614
      -950.5624
 -11737005.57048  -9132060.93746  22214024.8854   22214021.8264
      1735.3444
 04  9 13 22 37 45.0020000  0  6G 8G13G19G27G10G28
  -8501393.50149  -6609647.24247  21013596.6194   21013594.0454
       670.3134
  11788315.12648   9177388.35445  22610437.7914   22610435.9824
     -3389.4844
  -4286226.91748  -3324520.19845  23003898.9164   23003895.5414
     -1069.7194
  -1495568.87849  -1162347.11946  21176873.1194   21176870.2874
      -415.9064
  -2480784.88048  -1925750.98143  23871583.6824   23871583.4044
      -959.6094
 -11762991.44048  -9152309.64846  22209079.5964   22209077.2134
      1729.6254
 04  9 13 22 38  0.0020000  0  6G 8G13G19G27G10G28
  -8511417.03149  -6617457.78647  21011688.7294   21011686.1584
       666.4064
  11839197.52648   9217036.92044  22620120.8384   22620118.4124
     -3394.5944
  -4270112.23848  -3311963.33045  23006965.1504   23006961.7954
     -1078.7664
  -1489303.57449  -1157465.07946  21178065.3614   21178062.6234
      -419.3444
  -2466325.73548  -1914484.15143  23874334.9324   23874334.9824
      -968.0624
 -11788896.39149  -9172495.31946  22204150.3544   22204147.5254
      1724.5474
 04  9 13 22 38 15.0020000  0  6G 8G13G19G27G10G28
  -8521377.13149  -6625218.89747  21009793.2994   21009791.1704
       661.7814
  11890162.91748   9256750.16444  22629819.1504   22629816.9864
     -3400.5784
  -4253856.25348  -3299296.33845  23010058.6274   23010055.1744
     -1088.5164
  -1482980.65049  -1152538.13046  21179268.2524   21179266.0064
      -423.5314
  -2451733.02748  -1903113.23843  23877112.2914   23877111.8144
      -977.3754
 -11814719.27049  -9192617.03246  22199236.4554   22199233.3574
      1718.6884
 04  9 13 22 38 30.0020000  0  6G 8G13G19G27G10G28
  -8531272.88249  -6632929.88147  21007910.4084   21007908.3424
       657.4534
  11941212.09848   9296528.67844  22639533.1744   22639530.9864
     -3406.2034
  -4237458.32748  -3286518.74645  23013179.0334   23013175.8544
     -1098.0314
  -1476599.38049  -1147565.72446  21180482.8694   21180480.3504
      -427.5474
  -2437006.06548  -1891637.71943  23879914.1044   23879913.5214
      -986.4224
 -11840459.15449  -9212674.08446  22194338.5184   22194335.1704
      1713.0784
 04  9 13 22 38 45.0020000  0  6G 8G13G19G27G10G28
  -8541103.17149  -6640589.84447  21006039.8854   21006037.3734
       653.7194
  11992345.92948   9336373.17744  22649263.7364   22649261.8114
     -3411.1874
  -4220917.49148  -3273629.80545  23016325.9864   23016323.3264
     -1106.9064
  -1470158.52549  -1142546.89047  21181708.8774   21181706.1544
      -430.7814
  -2422144.11948  -1880057.01343  23882742.6504   23882742.0024
      -994.7034
 -11866115.04248  -9232665.66846  22189456.3074   22189453.6894
      1708.1254
 04  9 13 22 39  0.0020000  0  6G 8G13G19G27G10G28
  -8550873.62149  -6648203.18747  21004180.4634   21004177.9794
       648.7034
  12043558.16848   9376278.76344  22659009.9244   22659007.5294
     -3417.3444
  -4204239.41548  -3260633.92545  23019500.3304   23019497.0614
     -1117.0784
  -1463663.70749  -1137485.99947  21182944.2524   21182941.6824
      -435.4694
  -2407152.97248  -1868375.62843  23885595.4714   23885594.5614
     -1004.3444
 -11891692.53148  -9252596.17346  22184588.9084   22184586.2684
      1701.9224
 04  9 13 22 39 15.0020000  0  6G 8G13G19G27G10G28
  -8560578.77949  -6655765.63347  21002334.1274   21002331.1074
       644.8754
  12094854.00548   9416249.49244  22668770.1824   22668768.4824
     -3422.5474
  -4187418.83748  -3247526.98945  23022701.3774   23022697.8034
     -1126.1254
  -1457109.39649  -1132378.75347  21184191.4244   21184188.4004
      -438.8914
  -2392027.33648  -1856589.44343  23888473.5254   23888472.9714
     -1012.8284
 -11917186.05648  -9272461.24446  22179737.3224   22179734.6044
      1696.8444
 04  9 13 22 39 30.0020000  0  6G 8G13G19G27G10G28
  -8570222.62449  -6663280.32847  21000498.8304   21000495.9364
       640.7194
  12146228.97148   9456281.87144  22678547.1664   22678544.8574
     -3427.7974
  -4170460.16748  -3234312.46845  23025928.9634   23025925.3734
     -1135.2974
  -1450499.86449  -1127228.49346  21185449.3304   21185446.6544
      -442.6254
  -2376771.65748  -1844701.94043  23891377.5414   23891376.1044
     -1021.5624
 -11942599.89049  -9292264.23046  22174901.7684   22174898.2994
      1691.4694
 04  9 13 22 39 45.0020000  0  6G 8G13G19G27G10G28
  -8579803.09149  -6670745.62447  20998676.0494   20998673.0294
       636.1724
  12197685.15548   9496377.56744  22688338.3694   22688336.8114
     -3433.5474
  -4153361.07948  -3220988.52345  23029182.6354   23029179.3544
     -1145.0474
  -1443832.68749  -1122033.29146  21186717.9394   21186715.4674
      -446.7504
  -2361383.97248  -1832711.57643  23894304.2294   23894304.9984
     -1030.6874
 -11967931.76749  -9312003.34246  22170080.8934   22170078.0184
      1685.6564
 04  9 13 22 40  0.0020000  0  6G 8G13G19G27G10G28
  -8589317.43549  -6678159.41147  20996865.0644   20996862.3734
       632.3754
  12249224.73648   9536538.21344  22698146.4554   22698144.8894
     -3438.4534
  -4136119.17248  -3207553.30245  23032463.1894   23032459.7014
     -1153.9534
  -1437105.27849  -1116791.17446  21187998.2604   21187995.9084
      -450.2814
  -2345861.90648  -1820616.49843  23897258.6504   23897258.0644
     -1039.0314
 -11993179.07348  -9331676.56246  22165276.4244   22165273.3854
      1680.5784
 04  9 13 22 40 15.0020000  0  6G 8G13G19G27G10G28
  -8598768.84349  -6685524.14147  20995066.4634   20995063.8934
       627.9064
  12300844.01748   9576760.97944  22707969.3304   22707967.0764
     -3444.0784
  -4118738.16448  -3194009.67945  23035770.3774   23035767.6074
     -1163.5164
  -1430320.98749  -1111504.72846  21189289.2684   21189286.4824
      -454.3444
  -2330209.09348  -1808419.52743  23900237.8614   23900236.9824
     -1047.9844
 -12018345.24249  -9351286.55146  22160487.2754   22160484.3574
      1674.9064
 04  9 13 22 40 30.0020000  0  6G 8G13G19G27G10G28
  -8608154.89549  -6692837.96347  20993280.1194   20993277.6464
       623.3134
  12352545.27948   9617047.60844  22717807.6434   22717805.8384
     -3449.7034
  -4101215.52248  -3180355.69745  23039105.3544   23039102.1464
     -1173.1874
  -1423477.20449  -1106171.92846  21190591.8384   21190588.9754
      -458.5164
  -2314423.13748  -1796118.81743  23903241.8854   23903241.5294
     -1057.1254
 -12043427.69948  -9370831.31146  22155714.3934   22155712.1004
      1669.1724
 04  9 13 22 40 45.0020000  0  6G 8G13G19G27G10G28
  -8617477.15849  -6700102.06147  20991506.4944   20991504.0574
       619.4384
  12404326.43148   9657396.50344  22727660.9084   22727660.1624
     -3454.6254
  -4083553.13048  -3166592.82345  23042466.2364   23042463.1114
     -1182.0164
  -1416575.51249  -1100793.99046  21191905.2364   21191902.6114
      -461.9694
  -2298506.04748  -1783715.94642  23906270.2294   23906270.6234
     -1065.4534
 -12068428.16949  -9390312.19146  22150957.3304   22150954.3694
      1664.0474
 04  9 13 22 41  0.0020000  0  6G 8G13G19G27G10G28
  -8626736.67449  -6707317.26647  20989744.3614   20989741.4794
       615.2034
  12456186.14448   9697806.61244  22737529.8774   22737528.4204
     -3459.9534
  -4065752.21249  -3152721.98745  23045854.0494   23045850.8734
     -1191.3754
  -1409617.14449  -1095371.89846  21193229.0104   21193226.5024
      -465.7974
  -2282459.22548  -1771211.96643  23909323.0414   23909323.5764
     -1074.0944
 -12093347.82749  -9409730.09546  22146214.8694   22146211.9754
      1658.5784
 04  9 13 22 41 15.0020000  0  6G 8G13G19G27G10G28
  -8635931.12249  -6714481.77047  20987994.5724   20987992.0724
       610.8754
  12508126.39348   9738279.47544  22747413.1894   22747412.2684
     -3465.3284
  -4047810.53748  -3138741.48545  23049267.8774   23049265.2914
     -1200.7974
  -1402599.62049  -1089903.71946  21194564.2054   21194561.9714
      -469.7664
  -2266280.64247  -1758605.31343  23912402.1974   23912402.2604
     -1082.9534
 -12118184.33548  -9429083.20846  22141488.8614   22141485.7644
      1652.9844
 04  9 13 22 41 30.0020000  0  6G 8G13G19G27G10G28
  -8645056.02349  -6721592.09747  20986258.5804   20986255.8814
       605.8594
  12560151.37548   9778818.37344  22757313.7684   22757312.7364
     -3471.2974
  -4029723.80049  -3124647.95445  23052710.1274   23052706.8734
     -1210.7814
  -1395518.45749  -1084385.94847  21195912.1044   21195908.9944
      -474.3594
  -2249965.96748  -1745892.63943  23915507.0724   23915507.2054
     -1092.3284
 -12142933.16248  -9448368.01346  22136779.3304   22136776.0294
      1646.8444
 04  9 13 22 41 45.0020000  0  6G 8G13G19G27G10G28
  -8654120.10449  -6728655.00747  20984533.8144   20984531.6664
       601.8754
  12612252.05448   9819416.23744  22767228.6044   22767227.4904
     -3476.3124
  -4011501.04648  -3110448.42145  23056177.4554   23056174.0964
     -1219.7504
  -1388382.42349  -1078825.41146  21197270.1664   21197267.1154
      -477.8754
  -2233524.33447  -1733081.01142  23918636.0184   23918636.4044
     -1100.5944
 -12167603.16248  -9467591.37746  22132084.8074   22132081.6314
      1641.6724
 04  9 13 22 42  0.0020000  0  6G 8G13G19G27G10G28
  -8663121.47649  -6735669.07047  20982820.8774   20982817.9984
       597.8284
  12664429.99348   9860074.33044  22777157.9554   22777156.7564
     -3481.3594
  -3993140.34948  -3096141.41645  23059672.2914   23059667.7994
     -1228.8914
  -1381189.53649  -1073220.57946  21198638.7214   21198636.0614
      -481.6094
  -2216953.97547  -1720169.09342  23921788.2524   23921789.7324
     -1109.1564
 -12192192.48648  -9486751.87546  22127405.5414   22127402.7524
      1636.3754
 04  9 13 22 42 15.0020000  0  6G 8G13G19G27G10G28
  -8672057.70249  -6742632.36047  20981119.9324   20981117.7524
       593.5474
  12716687.22648   9900794.18744  22787101.6274   22787100.3464
     -3486.4694
  -3974639.68549  -3081725.32745  23063192.4164   23063188.4594
     -1238.0784
  -1373937.51549  -1067569.67346  21200018.8614   21200016.1704
      -485.5004
  -2200252.85547  -1707155.29542  23924968.0724   23924967.1934
     -1117.7344
 -12216698.75448  -9505847.66246  22122741.9944   22122739.0924
      1630.8914
 04  9 13 22 42 30.0020000  0  6G 8G13G19G27G10G28
  -8680927.07949  -6749543.55847  20979432.2214   20979429.8734
       589.1884
  12769025.08748   9941576.88644  22797061.3544   22797060.0334
     -3491.8754
  -3955997.34248  -3067198.85045  23066739.4084   23066736.5494
     -1247.4694
  -1366624.38949  -1061871.15146  21201410.2914   21201407.6274
      -489.5314
  -2183419.36447  -1694038.33543  23928170.5724   23928170.0614
     -1126.5474
 -12241120.19448  -9524877.34646  22118094.8074   22118092.0644
      1625.3594
 04  9 13 22 42 45.0020000  0  6G 8G13G19G27G10G28
  -8689728.89849  -6756402.12147  20977757.5414   20977754.7684
       585.0314
  12821443.82248   9982422.60944  22807036.0964   22807035.2094
     -3496.7194
  -3937213.03448  -3052561.74145  23070314.5494   23070311.3814
     -1256.4844
  -1359249.74449  -1056124.68946  21202813.7524   21202810.8964
      -493.2344
  -2166453.31648  -1680818.05343  23931399.1664   23931398.7604
     -1134.9374
 -12265456.29048  -9543840.51746  22113463.9244   22113460.7444
      1620.0314
 04  9 13 22 43  0.0020000  0  6G 8G13G19G27G10G28
  -8698470.82949  -6763214.01647  20976093.7294   20976091.5334
       580.8594
  12873935.54248  10023325.18844  22817025.2604   22817023.5614
     -3501.8444
  -3918294.42148  -3037820.00345  23073914.5334   23073911.3224
     -1265.6724
  -1351821.13949  -1050336.17346  21204226.9714   21204225.0024
      -496.9224
  -2149362.56348  -1667500.61942  23934651.7524   23934651.3344
     -1143.5004
 -12289714.72848  -9562743.19846  22108847.4794   22108844.3074
      1614.6884
 04  9 13 22 43 15.0020000  0  6G 8G13G19G27G10G28
  -8707148.25249  -6769975.65347  20974442.5414   20974439.9674
       576.3754
  12926504.21548  10064287.74044  22827028.3304   22827027.7174
     -3507.0784
  -3899237.39148  -3022970.39845  23077540.1274   23077537.3934
     -1275.0314
  -1344334.02749  -1044502.06646  21205652.5724   21205649.7484
      -501.0474
  -2132142.96948  -1654082.77542  23937928.5804   23937927.4864
     -1152.2344
 -12313891.11749  -9581581.93046  22104247.3544   22104244.1974
      1609.0634
 04  9 13 22 43 30.0020000  0  6G 8G13G19G27G10G28
  -8715762.22649  -6776687.84147  20972803.5334   20972800.4944
       572.0004
  12979148.69348  10105309.35144  22837047.1894   22837045.7954
     -3512.3124
  -3880042.97148  -3008013.71845  23081193.6504   23081190.3224
     -1284.3284
  -1336789.41149  -1038623.17747  21207088.0574   21207084.8614
      -505.1094
  -2114795.81248  -1640565.55643  23941229.7524   23941229.1824
     -1160.8914
 -12337986.45648  -9600357.50446  22099661.8304   22099658.8184
      1603.4844
 04  9 13 22 43 45.0020000  0  6G 8G13G19G27G10G28
  -8724308.77449  -6783347.49547  20971176.8934   20971174.7684
       567.6254
  13031872.79148  10146393.01844  22847079.9004   22847078.1664
     -3517.4224
  -3860707.36948  -2992947.04145  23084873.2294   23084869.8574
     -1293.5624
  -1329183.25349  -1032696.30446  21208535.6664   21208532.6894
      -508.9064
  -2097317.29048  -1626945.97043  23944555.4244   23944555.2564
     -1169.5004
 -12361996.73748  -9619066.80646  22095093.1504   22095089.7834
      1598.0944
 04  9 13 22 44  0.0020000  0  6G 8G13G19G27G10G28
  -8732787.36049  -6789954.18447  20969563.4864   20969561.2914
       562.6254
  13084676.37948  10187538.61344  22857128.0184   22857126.5104
     -3523.3444
  -3841230.36448  -2977770.18145  23088579.8694   23088575.9324
     -1303.5624
  -1321515.14249  -1026721.18246  21209994.7054   21209992.2134
      -513.6874
  -2079707.35248  -1613223.97543  23947906.3544   23947906.3184
     -1178.7344
 -12385921.54148  -9637709.50546  22090540.1354   22090536.8854
      1591.6884
 04  9 13 22 44 15.0020000  0  6G 8G13G19G27G10G28
  -8741196.84049  -6796507.01847  20967963.1894   20967960.5064
       558.0944
  13137560.32848  10228746.83644  22867191.2754   22867189.6934
     -3528.5474
  -3821611.02048  -2962482.40045  23092312.4634   23092309.0924
     -1313.0004
  -1313783.84649  -1020696.80446  21211465.8854   21211462.8344
      -517.7664
  -2061965.07448  -1599398.84443  23951283.3544   23951282.4474
     -1187.4694
 -12409759.89548  -9656284.83746  22086003.8614   22086000.7874
      1586.0474
 04  9 13 22 44 30.0020000  0  6G 8G13G19G27G10G28
  -8749543.11449  -6803010.60847  20966375.0804   20966372.6234
       554.4534
  13190518.15548  10270012.62444  22877268.9634   22877267.9204
     -3532.8754
  -3801855.59448  -2947088.59345  23096071.9474   23096069.0104
     -1321.3594
  -1305995.55949  -1014628.00746  21212947.1664   21212945.1544
      -520.9224
  -2044096.76848  -1585475.51543  23954682.8224   23954682.9244
     -1195.3914
 -12433517.83949  -9674797.49646  22081481.9794   22081479.6394
      1581.3444
 04  9 13 22 44 45.0020000  0  6G 8G13G19G27G10G28
  -8757825.30949  -6809464.27447  20964799.0804   20964796.8464
       550.1414
  13243550.51848  10311336.47944  22887361.4864   22887359.6504
     -3537.8594
  -3781963.33248  -2931588.14845  23099856.5644   23099854.1194
     -1330.5474
  -1298149.28149  -1008514.05846  21214441.2444   21214438.6234
      -524.8754
  -2026101.85048  -1571453.52343  23958107.9084   23958107.8224
     -1203.7974
 -12457194.40948  -9693246.76746  22076977.3144   22076974.5924
      1575.8594
 04  9 13 22 45  0.0020000  0  6G 8G13G19G27G10G28
  -8766044.76349  -6815869.05847  20963234.9794   20963232.6624
       545.5634
  13296655.67948  10352717.05144  22897466.9164   22897465.5184
     -3543.0784
  -3761935.72948  -2915982.26245  23103668.4714   23103664.8894
     -1340.0314
  -1290246.24249  -1002355.84946  21215944.8854   21215942.3894
      -529.0624
  -2007981.84548  -1557334.09143  23961555.2604   23961555.0724
     -1212.5314
 -12480791.04048  -9711633.74946  22072486.8074   22072484.1704
      1570.1094
 04  9 13 22 45 15.0020000  0  6G 8G13G19G27G10G28
  -8774200.66749  -6822224.30547  20961682.7214   20961680.3034
       541.6414
  13349834.12448  10394154.76544  22907586.2834   22907584.5494
     -3547.5944
  -3741772.19648  -2900270.44445  23107505.1974   23107502.0334
     -1348.6414
  -1282285.67349   -996152.83646  21217459.7994   21217456.6784
      -532.5004
  -1989736.42447  -1543116.92243  23965027.4164   23965027.7644
     -1220.4374
 -12504307.04248  -9729957.89046  22068012.4004   22068009.1194
      1565.1094
 04  9 13 22 45 30.0020000  0  6G 8G13G19G27G10G28
  -8782290.66349  -6828528.21347  20960143.8304   20960141.5214
       537.2504
  13403088.08748  10435651.28644  22917720.1504   22917719.1824
     -3552.6564
  -3721470.47348  -2884450.94644  23111368.8224   23111365.2834
     -1357.9224
  -1274265.07449   -989903.02546  21218985.9084   21218983.5334
      -536.5624
  -1971363.30747  -1528800.23242  23968523.2754   23968524.3894
     -1229.0004
 -12527739.87949  -9748217.23346  22063553.0804   22063550.1784
      1559.5004
 04  9 13 22 45 45.0020000  0  6G 8G13G19G27G10G28
  -8790312.75649  -6834779.19347  20958616.7524   20958614.3574
       532.7034
  13456419.05448  10477207.83044  22927868.9084   22927867.3464
     -3557.7974
  -3701028.66248  -2868522.28445  23115259.1664   23115255.8224
     -1367.2664
  -1266182.44449   -983604.88646  21220523.7054   21220521.4904
      -540.6874
  -1952860.75548  -1514382.72242  23972045.2914   23972045.2994
     -1237.6564
 -12551087.71749  -9766410.34846  22059110.1824   22059106.7014
      1553.8134
 04  9 13 22 46  0.0020000  0  6G 8G13G19G27G10G28
  -8798270.90349  -6840980.35047  20957102.3934   20957100.3464
       528.7344
  13509822.73848  10518821.03244  22938031.6114   22938030.2794
     -3562.3754
  -3680451.18648  -2852487.91045  23119174.2604   23119171.6864
     -1375.9694
  -1258041.87549   -977261.60546  21222073.3144   21222070.7134
      -544.2974
  -1934233.18547  -1499867.78542  23975589.5724   23975589.4904
     -1245.6254
 -12574354.60848  -9784540.38146  22054682.6274   22054679.1274
      1548.7194
 04  9 13 22 46 15.0020000  0  6G 8G13G19G27G10G28
  -8806164.82649  -6847131.47347  20955600.5104   20955598.3184
       523.7974
  13563298.91948  10560490.73244  22948207.9244   22948206.5214
     -3567.7814
  -3659738.08148  -2836347.87345  23123116.3224   23123113.7014
     -1385.7034
  -1249843.19049   -970873.03546  21223633.4864   21223630.9474
      -548.8284
  -1915480.71747  -1485255.51642  23979157.7214   23979157.8344
     -1254.7194
 -12597540.45849  -9802607.27446  22050270.6434   22050267.4244
      1542.6884
 04  9 13 22 46 30.0020000  0  6G 8G13G19G27G10G28
  -8813995.03649  -6853232.92747  20954110.3854   20954107.7644
       520.1884
  13616846.89048  10602216.35744  22958397.5724   22958396.3224
     -3571.9224
  -3638889.94548  -2820102.60045  23127084.0254   23127080.7134
     -1394.0314
  -1241586.77149   -964439.47146  21225204.4554   21225201.3074
      -552.0624
  -1896604.10447  -1470546.50642  23982749.3464   23982750.8654
     -1262.1874
 -12620645.76248  -9820611.39446  22045873.7604   22045870.8654
      1538.0164
 04  9 13 22 46 45.0020000  0  6G 8G13G19G27G10G28
  -8821761.74749  -6859284.91447  20952632.3934   20952630.0684
       515.4224
  13670465.84348  10643997.31144  22968600.8614   22968600.2444
     -3577.1564
  -3617907.27948  -2803752.49245  23131076.6974   23131073.0454
     -1403.5624
  -1233272.97649   -957961.20646  21226786.4554   21226784.1004
      -556.3284
  -1877603.93248  -1455741.24642  23986365.5334   23986366.0454
     -1270.9694
 -12643670.89448  -9838553.04846  22041491.9164   22041488.7834
      1532.0634
 04  9 13 22 47  0.0020000  0  6G 8G13G19G27G10G28
  -8829461.83749  -6865284.98347  20951167.4474   20951164.6584
       510.9534
  13724158.76248  10685835.88444  22978817.7834   22978817.0104
     -3582.1414
  -3596787.18148  -2787295.30045  23135095.7754   23135092.2404
     -1412.6874
  -1224898.49149   -951435.65646  21228379.7834   21228377.1934
      -560.4534
  -1858477.40648  -1440837.49443  23990005.8464   23990005.9984
     -1279.3754
 -12666612.64148  -9856429.71646  22037126.4474   22037123.7684
      1526.5634
 04  9 13 22 47 15.0020000  0  7G 8G13G19G29G27G10G28
  -8837091.22249  -6871229.95947  20949714.9474   20949713.2684
       506.6564
  13777929.25848  10727734.92144  22989050.4164   22989049.3964
     -3586.8444
  -3575525.67747  -2770727.91845  23139141.3224   23139137.9794
     -1421.7344
   -129290.10557    -83223.21352  24776209.4554   24776209.7094
      2925.9694
  -1216459.30049   -944859.67246  21229986.2364   21229983.6824
      -564.3914
  -1839220.63748  -1425832.26143  23993670.3544   23993670.1974
     -1287.8284
 -12689466.97448  -9874238.27546  22032777.0964   22032773.9754
      1521.0474
 04  9 13 22 47 30.0020000  0  7G 8G13G19G29G27G10G28
  -8844659.20949  -6877127.09847  20948275.5104   20948273.2214
       502.2974
  13831767.75548  10769686.93344  22999295.8544   22999294.7214
     -3591.6254
  -3554132.32748  -2754057.80445  23143212.2684   23143209.4794
     -1430.9064
   -173162.32147   -117409.28842  24767860.5184   24767861.5454
      2923.5634
  -1207964.65749   -938240.49146  21231602.8854   21231600.3144
      -568.2974
  -1819843.31348  -1410733.09443  23997357.7294   23997357.7874
     -1295.9374
 -12712243.37848  -9891986.10746  22028443.0804   22028439.8574
      1515.7504
 04  9 13 22 47 45.0020000  0  7G 8G13G19G29G27G10G28
  -8852164.72649  -6882975.55947  20946846.9164   20946844.5724
       498.2504
  13885674.91548  10811692.44844  23009553.1744   23009552.4394
     -3596.0944
  -3532606.21647  -2737284.22745  23147309.0334   23147305.6974
     -1439.5474
   -217000.88747   -151569.16442  24759518.8934   24759519.5184
      2921.4064
  -1199413.52449   -931577.27746  21233229.6744   21233227.6434
      -571.9694
  -1800344.61348  -1395539.33243  24001068.1354   24001068.1004
     -1303.9064
 -12734940.79948  -9909672.41446  22024123.7524   22024120.7834
      1510.5634
 04  9 13 22 48  0.0020000  0  7G 8G13G19G29G27G10G28
  -8859603.01649  -6888771.63647  20945431.3934   20945429.5924
       493.7814
  13939654.83748  10853754.66144  23019826.1354   23019824.9244
     -3600.9694
  -3510943.15347  -2720403.97745  23151431.6044   23151428.3114
     -1448.6254
   -260801.31747   -185699.34242  24751183.6434   24751184.3774
      2918.8134
  -1190801.49749   -924866.62546  21234868.3544   21234865.9324
      -576.0944
  -1780720.53648  -1380247.88642  24004802.7604   24004802.6864
     -1312.3444
 -12757554.85148  -9927293.74346  22019820.9394   22019817.6114
      1504.9384
 04  9 13 22 48 15.0020000  0  7G 8G13G19G29G27G10G28
  -8866974.73949  -6894515.82947  20944028.5724   20944026.2604
       489.2344
  13993706.67648  10895872.92544  23030111.5574   23030110.2994
     -3605.9224
  -3489143.85148  -2703417.52745  23155579.8934   23155576.6044
     -1457.7504
   -304563.80347   -219799.95142  24742855.6114   24742856.4394
      2916.2194
  -1182128.92749   -918108.79246  21236518.6744   21236516.3614
      -580.1724
  -1760971.85748  -1364859.33143  24008560.2524   24008560.2054
     -1320.8124
 -12780085.97348  -9944850.44546  22015532.6274   22015529.7874
      1499.3134
 04  9 13 22 48 30.0020000  0  7G 8G13G19G29G27G10G28
  -8874283.06449  -6900210.62847  20942637.8074   20942635.7254
       484.8444
  14047826.87048  10938044.43144  23040410.0804   23040408.7954
     -3610.6094
  -3467211.75347  -2686327.60345  23159752.9324   23159749.5144
     -1466.7974
   -348291.31447   -253873.29642  24734534.8694   24734535.8814
      2913.7194
  -1173399.04049   -911306.28846  21238180.1664   21238177.6504
      -584.2344
  -1741101.91348  -1349376.26442  24012341.8304   24012341.7404
     -1328.9374
 -12802537.38748  -9962345.04846  22011260.4244   22011257.8074
      1493.8134
 04  9 13 22 48 45.0020000  0  7G 8G13G19G29G27G10G28
  -8881523.55049  -6905852.58247  20941260.3144   20941257.1234
       480.2194
  14102019.54848  10980272.44144  23050723.0574   23050721.5684
     -3615.4064
  -3445142.50547  -2669130.82945  23163952.7994   23163949.0614
     -1476.0314
   -391979.15447   -287915.71042  24726221.0724   24726222.0884
      2910.9534
  -1164607.22849   -904455.55146  21239853.4164   21239850.6434
      -588.3754
  -1721106.45848  -1333795.42043  24016147.3144   24016146.2564
     -1337.2974
 -12824904.64848  -9979774.07946  22007003.8614   22007000.9824
      1488.1564
 04  9 13 22 49  0.0020000  0  7G 8G13G19G29G27G10G28
  -8888696.18849  -6911441.65347  20939895.3464   20939892.7834
       475.8594
  14156284.36648  11022556.65244  23061049.1824   23061047.8894
     -3620.0314
  -3422936.58647  -2651827.54545  23168177.9794   23168175.0964
     -1484.9534
   -435627.34447   -321927.22142  24717915.2684   24717916.5494
      2908.4534
  -1155753.79349   -897556.78346  21241538.0724   21241535.2214
      -592.2664
  -1700986.06848  -1318117.24443  24019976.0644   24019975.7134
     -1345.5164
 -12847188.20249  -9997137.87446  22002763.7054   22002760.7404
      1482.7814
 04  9 13 22 49 15.0020000  0  7G 8G13G19G29G27G10G28
  -8895804.62949  -6916980.69847  20938542.7834   20938540.5884
       471.7034
  14210617.34748  11064893.96944  23071388.4634   23071387.1464
     -3624.5314
  -3400597.68647  -2634420.63245  23172429.4944   23172426.1934
     -1493.7034
   -479238.98247   -355910.30942  24709616.3464   24709617.0294
      2906.2344
  -1146842.09649   -890612.61046  21243234.1274   21243231.4864
      -596.0784
  -1680744.63748  -1302344.71743  24023827.1664   24023827.0804
     -1353.4844
 -12869391.45149 -10014439.09746  21998538.3934   21998535.3614
      1477.5314
 04  9 13 22 49 30.0020000  0  7G 8G13G19G29G27G10G28
  -8902848.11249  -6922469.12847  20937202.2364   20937199.8224
       467.3134
  14265018.90848  11107284.74444  23081740.4794   23081739.2054
     -3629.0474
  -3378125.26848  -2616909.70345  23176705.3614   23176702.9324
     -1502.6724
   -522813.38747   -389864.30742  24701324.5644   24701325.3264
      2903.6884
  -1137871.56948   -883622.60846  21244940.7214   21244938.6434
      -600.0784
  -1660381.78448  -1286477.59642  24027701.6974   24027702.4984
     -1361.5624
 -12891513.85048 -10031677.31546  21994328.5414   21994325.9754
      1472.0164
 04  9 13 22 49 45.0020000  0  7G 8G13G19G29G27G10G28
  -8909825.54849  -6927906.08147  20935874.2684   20935871.3344
       462.7034
  14319489.59948  11149729.37144  23092106.1824   23092105.1894
     -3633.9374
  -3355518.59648  -2599294.12745  23181007.9474   23181004.6624
     -1511.8444
   -566349.28647   -423788.35542  24693039.8934   24693040.0614
      2900.9064
  -1128841.11449   -876585.89546  21246659.3464   21246657.0254
      -604.2344
  -1639896.78448  -1270515.28842  24031600.3304   24031600.2094
     -1369.9694
 -12913554.42849 -10048851.77846  21990134.2754   21990132.1824
      1466.4224
 04  9 13 22 50  0.0020000  0  7G 8G13G19G29G27G10G28
  -8916733.45549  -6933288.87647  20934559.7754   20934557.4084
       458.2664
  14374032.51748  11192230.28644  23102485.3854   23102484.1934
     -3638.4844
  -3332774.29048  -2581571.32045  23185335.5494   23185332.4394
     -1520.7664
   -609842.94446   -457679.53142  24684762.2444   24684763.8964
      2898.3134
  -1119747.25648   -869499.78247  21248389.7754   21248387.4594
      -608.2344
  -1619286.52547  -1254455.40142  24035521.8854   24035521.8504
     -1377.9694
 -12935509.67449 -10065959.76146  21985956.6434   21985953.6194
      1460.9844
 04  9 13 22 50 15.0020000  0  7G 8G13G19G29G27G10G28
  -8923571.14349  -6938616.94447  20933258.8384   20933256.5254
       453.4224
  14428648.00048  11234787.73644  23112878.6894   23112877.2754
     -3643.4534
  -3309892.05048  -2563741.04045  23189690.1744   23189686.7644
     -1530.1564
   -653293.59146   -491537.12442  24676494.4554   24676494.2054
      2895.2344
  -1110589.34148   -862363.76546  21250132.7914   21250129.8934
      -612.7664
  -1598550.60047  -1238297.57442  24039467.9004   24039468.9244
     -1386.6414
 -12957379.01448 -10083000.79846  21981794.9864   21981792.0964
      1454.9844
 04  9 13 22 50 30.0020000  0  7G 8G13G19G29G27G10G28
  -8930338.83549  -6943890.47947  20931971.1114   20931968.4674
       448.9064
  14483335.51448  11277401.31644  23123284.8934   23123284.5684
     -3648.2194
  -3286872.32447  -2545803.62144  23194070.4004   23194067.3304
     -1539.1724
   -696701.12246   -525361.15241  24668234.4944   24668234.3384
      2892.5634
  -1101367.63548   -855178.03746  21251887.8224   21251884.3034
      -616.8594
  -1577689.58247  -1222042.28042  24043438.6354   24043438.4124
     -1394.7194
 -12979162.83049 -10099975.19546  21977649.5334   21977646.9824
      1449.4534
 04  9 13 22 50 45.0020000  0  7G 8G13G19G29G27G10G28
  -8937043.51349  -6949114.89347  20930695.1504   20930692.9864
       444.7664
  14538087.48948  11320065.12944  23133704.3144   23133703.2254
     -3652.4224
  -3263722.51948  -2527764.83445  23198476.9634   23198472.2684
     -1547.7814
   -740072.46747   -559156.92942  24659981.0254   24659980.4004
      2890.0634
  -1092089.14148   -847948.05446  21253653.4864   21253650.5644
      -620.5624
  -1556710.91147  -1205695.29442  24047430.1744   24047430.3734
     -1402.5624
 -13000868.32949 -10116888.56346  21973519.6974   21973516.8504
      1444.2814
 04  9 13 22 51  0.0020000  0  7G 8G13G19G29G27G10G28
  -8943680.34549  -6954286.45147  20929432.4084   20929429.5804
       440.1724
  14592908.81248  11362782.97843  23144136.8144   23144135.4944
     -3657.0164
  -3240437.75048  -2509620.89144  23202906.8144   23202903.6744
     -1556.7664
   -783402.41847   -592920.47442  24651735.2214   24651735.4514
      2887.2974
  -1082748.85848   -840669.92846  21255430.5024   21255427.5684
      -624.6724
  -1535609.88747  -1189252.98642  24051445.7054   24051445.8034
     -1410.7344
 -13022490.42049 -10133736.93246  21969404.8614   21969402.3224
      1438.7974
 04  9 13 22 51 15.0020000  0  7G 8G13G19G29G27G10G28
  -8950248.74149  -6959404.68947  20928182.0574   20928179.7684
       435.7664
  14647799.56648  11405554.94144  23154582.0254   23154580.9824
     -3661.6094
  -3217017.70648  -2491371.52345  23207363.9864   23207360.7684
     -1565.7814
   -826690.19247   -626651.18242  24643497.4864   24643498.5644
      2884.5944
  -1073346.16448   -833343.14646  21257219.7444   21257217.2094
      -628.8284
  -1514386.25447  -1172715.13942  24055485.5024   24055484.4124
     -1418.8284
 -13044028.55648 -10150519.87846  21965305.9164   21965303.1434
      1433.2664
 04  9 13 22 51 30.0020000  0  7G 8G13G19G29G27G10G28
  -8956749.28349  -6964470.04947  20926945.1114   20926943.1354
       431.2974
  14702758.71548  11448380.18844  23165040.3224   23165039.0494
     -3666.0314
  -3193463.22048  -2473017.41445  23211845.9554   23211841.8854
     -1574.5314
   -869936.04147   -660349.13342  24635268.6584   24635269.1824
      2881.9064
  -1063881.67448   -825968.24446  21259020.8614   21259018.6434
      -632.7974
  -1493040.97148  -1156082.48442  24059547.5024   24059546.2754
     -1426.8444
 -13065483.55149 -10167238.04846  21961223.3384   21961220.3184
      1427.7504
 04  9 13 22 51 45.0020000  0  7G 8G13G19G29G27G10G28
  -8963183.43449  -6969483.66547  20925720.6434   20925718.3464
       426.7034
  14757784.41448  11491257.29244  23175511.5574   23175511.1314
     -3670.6564
  -3169776.01147  -2454559.87044  23216353.5104   23216349.8264
     -1583.6414
   -913141.47247   -694015.71442  24627046.0254   24627047.6504
      2878.9384
  -1054356.88948   -818546.33046  21260833.0804   21260830.7524
      -637.1724
  -1471575.93147  -1139356.50342  24063630.8854   24063631.0374
     -1435.0164
 -13086856.85248 -10183892.56146  21957155.4164   21957153.2874
      1422.0004
 04  9 13 22 52  0.0020000  0  7G 8G13G19G29G27G10G28
  -8969548.09649  -6974443.16247  20924509.2214   20924507.0144
       422.3134
  14812879.27848  11534188.27444  23185995.6274   23185994.7134
     -3674.9374
  -3145953.37647  -2435996.82245  23220887.0334   23220883.5214
     -1592.3444
   -956303.26647   -727648.19042  24618832.9634   24618833.6894
      2876.3284
  -1044768.87148   -811075.16546  21262657.7294   21262656.1234
      -641.0474
  -1449988.49547  -1122535.16143  24067739.3774   24067739.8654
     -1442.9374
 -13108145.81548 -10200481.36346  21953105.1584   21953102.0884
      1416.7344
 04  9 13 22 52 15.0020000  0  7G 8G13G19G29G27G10G28
  -8975845.26249  -6979350.04747  20923311.0724   20923308.1314
       417.3444
  14868040.99548  11577171.37043  23196492.6584   23196491.6354
     -3679.7974
  -3121997.68347  -2417330.07145  23225445.4864   23225442.3774
     -1601.5164
   -999423.25247   -761248.11242  24610627.3384   24610628.0064
      2873.0314
  -1035119.57648   -803556.25946  21264494.5024   21264491.7644
      -645.5314
  -1428280.92347  -1105620.21743  24071869.9164   24071870.0924
     -1451.3754
 -13129352.36348 -10217005.95446  21949069.3224   21949066.7014
      1410.9064
 04  9 13 22 52 30.0020000  0  7G 8G13G19G29G27G10G28
  -8982072.04649  -6984202.09547  20922126.4864   20922123.9794
       412.6724
  14923272.27148  11620208.65043  23207003.1044   23207002.1974
     -3684.5004
  -3097905.98547  -2398557.34345  23230029.9004   23230026.4084
     -1610.7344
  -1042498.07247   -794812.88642  24602430.9634   24602431.2524
      2869.9534
  -1025405.97548   -795987.22747  21266342.6194   21266340.1894
      -649.7974
  -1406450.45547  -1088609.52543  24076024.0804   24076024.5534
     -1459.5474
 -13150473.39748 -10233463.88446  21945050.0494   21945047.5024
      1405.1254
 04  9 13 22 52 45.0020000  0  7G 8G13G19G29G27G10G28
  -8988227.76249  -6988998.76147  20920955.0184   20920952.2754
       408.0944
  14978573.09448  11663300.13743  23217526.2214   23217525.1584
     -3688.9534
  -3073678.04647  -2379678.47345  23234640.3544   23234636.6434
     -1619.6874
  -1085526.89247   -828341.82342  24594242.8144   24594242.9674
      2867.1254
  -1015627.56248   -788367.70346  21268203.4244   21268200.7094
      -654.0314
  -1384497.02847  -1071503.01143  24080202.1894   24080201.8614
     -1467.6874
 -13171508.54349 -10249854.90646  21941047.5574   21941044.7644
      1399.5164
 04  9 13 22 53  0.0020000  0  7G 8G13G19G29G27G10G28
  -8994316.10149  -6993742.92847  20919796.9634   20919794.2254
       403.5944
  15033939.44048  11706442.67944  23228063.0574   23228061.4394
     -3693.2974
  -3049317.73647  -2360696.46244  23239276.0804   23239272.8034
     -1628.5004
  -1128513.52347   -861837.84942  24586062.7524   24586062.7404
      2864.4224
  -1005788.07148   -780700.58546  21270075.6354   21270072.9124
      -657.9694
  -1362424.71147  -1054303.82543  24084402.4474   24084402.1934
     -1475.5944
 -13192461.69348 -10266182.03046  21937060.1044   21937057.4324
      1394.1094
 04  9 13 22 53 15.0020000  0  7G 8G13G19G29G27G10G28
  -9000336.27449  -6998433.97547  20918650.8854   20918648.7054
       398.4694
  15089371.71447  11749636.59743  23238610.3464   23238609.9044
     -3698.2344
  -3024824.73147  -2341611.01345  23243937.2754   23243933.4634
     -1637.9224
  -1171456.87547   -895300.11742  24577890.8694   24577890.7874
      2860.7664
   -995886.76248   -772985.28747  21271960.1194   21271957.5764
      -662.6874
  -1340233.01447  -1037011.62343  24088625.3074   24088625.2134
     -1484.0474
 -13213332.13248 -10282444.69146  21933088.8544   21933086.3344
      1387.9844
 04  9 13 22 53 30.0020000  0  7G 8G13G19G29G27G10G28
  -9006280.54749  -7003065.88847  20917519.9164   20917517.0254
       394.0784
  15144877.44548  11792887.74544  23249173.2914   23249172.5804
     -3702.4694
  -3000191.33648  -2322416.20045  23248624.8694   23248620.9904
     -1646.6254
  -1214348.77547   -928722.33942  24569729.1894   24569729.4474
      2857.9844
   -985915.54648   -765215.53146  21273857.2524   21273854.7134
      -666.6874
  -1317914.40948  -1019620.56043  24092872.6894   24092872.0184
     -1491.8284
 -13234112.00948 -10298636.81546  21929134.5494   21929131.0144
      1382.5474
 04  9 13 22 53 45.0020000  0  7G 8G13G19G29G27G10G28
  -9012157.76649  -7007645.54147  20916401.1434   20916398.7324
       389.6254
  15200447.55848  11836189.05743  23259748.2914   23259747.0684
     -3706.7664
  -2975426.61547  -2303119.02345  23253337.4714   23253334.3384
     -1655.2814
  -1257197.97747   -962111.22042  24561574.8464   24561575.3814
      2855.2344
   -975883.43548   -757398.31046  21275766.2214   21275764.0614
      -670.8124
  -1295478.16547  -1002137.80943  24097141.6434   24097141.7484
     -1499.6414
 -13254810.29448 -10314765.33746  21925195.8144   21925192.7874
      1377.1414
 04  9 13 22 54  0.0020000  0  7G 8G13G19G29G27G10G28
  -9017963.76248  -7012169.69447  20915296.4084   20915293.8424
       384.6884
  15256085.62648  11879543.33544  23270335.8934   23270334.8144
     -3711.4224
  -2950526.68747  -2283716.54345  23258075.8934   23258072.2794
     -1664.4374
  -1300000.11247   -995463.51742  24553429.5184   24553430.3034
      2851.9064
   -965786.24548   -749530.37646  21277687.6274   21277685.6464
      -675.2504
  -1272920.38548   -984560.35942  24101433.8464   24101434.0924
     -1507.8594
 -13275422.90648 -10330827.09446  21921273.2054   21921270.3224
      1371.3914
 04  9 13 22 54 15.0020000  0  7G 8G13G19G29G27G10G28
  -9023698.57249  -7016638.38047  20914205.0024   20914202.4594
       380.5634
  15311790.81447  11922949.88443  23280936.1194   23280934.8344
     -3715.3914
  -2925492.03747  -2264209.04045  23262839.4004   23262835.8894
     -1672.8444
  -1342755.15647  -1028779.08142  24545292.8304   24545293.4864
      2849.3284
   -955624.37848   -741612.04846  21279621.7294   21279619.4084
      -679.1094
  -1250241.81548   -966888.77642  24105750.2214   24105750.6074
     -1515.3444
 -13295950.20948 -10346822.38346  21917366.5724   21917363.9244
      1366.2194
 04  9 13 22 54 30.0020000  0  7G 8G13G19G29G27G10G28
  -9029371.51849  -7021058.86847  20913125.6354   20913122.8544
       376.0474
  15367553.84148  11966401.52544  23291547.3544   23291546.8304
     -3719.5474
  -2900332.22948  -2244604.02245  23267627.5724   23267623.9754
     -1681.5624
  -1385472.29547  -1062065.13042  24537164.4244   24537164.1894
      2846.3914
   -945406.76448   -733650.29046  21281565.9244   21281563.7604
      -683.1564
  -1227451.86848   -949130.41243  24110087.1434   24110086.6504
     -1523.2034
 -13316401.46548 -10362758.42246  21913475.6894   21913472.2524
      1360.7664
 04  9 13 22 54 45.0020000  0  7G 8G13G19G29G27G10G28
  -9034976.38948  -7025426.30547  20912058.9634   20912056.4754
       371.5944
  15423380.42248  12009902.68744  23302170.8074   23302170.2794
     -3723.6724
  -2875041.35647  -2224896.87244  23272440.4714   23272436.5104
     -1690.2814
  -1428144.93148  -1095316.47842  24529044.3934   24529044.0684
      2843.4224
   -935127.47048   -725640.45446  21283521.6664   21283520.0024
      -687.1724
  -1204544.82447   -931280.80042  24114445.4084   24114446.4044
     -1530.7974
 -13336770.63048 -10378630.48346  21909598.8694   21909596.3854
      1355.3754
 04  9 13 22 55  0.0020000  0  7G 8G13G19G29G27G10G28
  -9040512.21349  -7029739.94447  20911005.6504   20911002.9474
       366.7504
  15479271.32347  12053453.97243  23312806.1744   23312805.9244
     -3728.2504
  -2849618.40748  -2205086.80044  23277277.6504   23277275.0614
     -1699.3754
  -1470771.78348  -1128532.15442  24520932.9554   24520933.1274
      2840.2664
   -924785.27148   -717581.61347  21285490.1824   21285488.0334
      -691.5784
  -1181519.76448   -913339.26642  24118827.5104   24118826.8114
     -1539.0314
 -13357056.60548 -10394437.72646  21905739.1114   21905735.8304
      1349.6094
 04  9 13 22 55 15.0020000  0  7G 8G13G19G29G27G10G28
  -9045975.57149  -7033997.12447  20909966.1974   20909963.4714
       361.7974
  15535229.56947  12097057.72844  23323454.9084   23323454.7174
     -3732.7814
  -2824060.40747  -2185171.50145  23282140.8694   23282138.2834
     -1708.3914
  -1513349.39248  -1161709.44742  24512830.7524   24512830.8344
      2836.8444
   -914376.72848   -709471.08546  21287470.6824   21287468.1394
      -696.1254
  -1158373.80248   -895303.49542  24123232.7914   24123232.4474
     -1546.9844
 -13377256.12848 -10410177.61246  21901894.9634   21901892.0024
      1343.7814
 04  9 13 22 55 30.0020000  0  7G 8G13G19G29G27G10G28
  -9051366.03149  -7038197.48447  20908940.2994   20908937.4474
       356.7814
  15591255.23448  12140714.00144  23334116.2834   23334115.9634
     -3737.4374
  -2798367.22247  -2165150.86245  23287030.4944   23287027.9324
     -1717.4694
  -1555877.06448  -1194847.87342  24504737.9554   24504737.7324
      2833.3134
   -903901.62548   -701308.68147  21289464.4634   21289462.2254
      -700.7194
  -1135106.96048   -877173.51142  24127659.4864   24127659.1004
     -1555.2034
 -13397368.93048 -10425849.92546  21898067.6114   21898064.7294
      1337.8444
 04  9 13 22 55 45.0020000  0  7G 8G13G19G29G27G10G28
  -9056683.93249  -7042341.31147  20907928.2914   20907926.0184
       352.4694
  15647347.27448  12184422.02444  23344790.4944   23344790.5024
     -3741.3594
  -2772539.63447  -2145025.50444  23291945.8144   23291942.7834
     -1725.9534
  -1598355.14448  -1227947.60243  24496654.8544   24496655.0414
      2830.5164
   -893360.42448   -693094.76546  21291470.5334   21291468.0964
      -704.6414
  -1111720.06648   -858949.99743  24132109.6354   24132110.0964
     -1562.7664
 -13417395.57348 -10441455.08646  21894256.6824   21894253.9004
      1332.5634
 04  9 13 22 56  0.0020000  0  7G 8G13G19G29G27G10G28
  -9061934.67949  -7046432.80447  20906929.1434   20906926.3934
       347.7034
  15703500.06148  12228177.36044  23355476.4864   23355476.1274
     -3745.6414
  -2746583.23147  -2124799.76045  23296884.9554   23296882.0494
     -1734.8754
  -1640788.80647  -1261012.77242  24488579.4004   24488580.3114
      2827.3444
   -882758.47848   -684833.52646  21293487.6744   21293485.2254
      -708.9534
  -1088218.79448   -840637.37442  24136581.5494   24136581.9394
     -1570.6874
 -13437341.59048 -10456997.42746  21890461.3224   21890457.7834
      1326.9534
 04  9 13 22 56 15.0020000  0  7G 8G13G19G29G27G10G28
  -9067113.09149  -7050467.94247  20905943.6664   20905941.1864
       342.7504
  15759718.30948  12271983.70444  23366174.1974   23366174.1464
     -3750.1414
  -2720493.18447  -2104469.88345  23301849.5184   23301846.4004
     -1743.8124
  -1683172.73448  -1294039.14542  24480514.3464   24480514.3184
      2823.9384
   -872090.52348   -676520.85346  21295517.9244   21295515.4324
      -713.4534
  -1064598.38347   -822231.91642  24141076.6664   24141076.9474
     -1578.7034
 -13457201.79848 -10472472.91546  21886681.4794   21886678.4984
      1321.1094
 04  9 13 22 56 30.0020000  0  7G 8G13G19G29G27G10G28
  -9072222.65349  -7054449.42547  20904971.1044   20904968.6354
       338.2504
  15815998.38547  12315838.26843  23376883.8934   23376883.2094
     -3754.0784
  -2694273.05348  -2084038.65045  23306839.4634   23306836.1434
     -1752.4534
  -1725509.91147  -1327029.09642  24472457.4554   24472457.7914
      2820.8284
   -861359.93748   -668159.36546  21297559.4474   21297557.1274
      -717.6094
  -1040862.58148   -803736.52542  24145593.2834   24145594.1004
     -1586.3124
 -13476979.70048 -10487884.26346  21882918.1894   21882915.5374
      1315.6884
 04  9 13 22 56 45.0020000  0  7G 8G13G19G29G27G10G28
  -9077258.55749  -7058373.51847  20904012.9324   20904010.6154
       332.5164
  15872344.55448  12359744.29244  23387606.2364   23387606.4594
     -3759.3594
  -2667918.47548  -2063502.63845  23311854.2994   23311851.2644
     -1762.2504
  -1767795.56148  -1359978.87142  24464410.5964   24464411.1354
      2816.6254
   -850562.14548   -659745.51946  21299614.5254   21299611.6704
      -722.8444
  -1017007.00747   -785147.78443  24150133.5884   24150133.9434
     -1595.0944
 -13496670.67948 -10503227.87746  21879171.1744   21879167.7134
      1309.0634
 04  9 13 22 57  0.0020000  0  7G 8G13G19G29G27G10G28
  -9082218.15749  -7062238.15447  20903069.1974   20903066.6624
       328.1094
  15928759.20047  12403703.66744  23398341.5024   23398341.1704
     -3763.2814
  -2641426.81548  -2042859.82244  23316895.6824   23316891.9864
     -1770.6724
  -1810026.75548  -1392886.25642  24456374.9244   24456374.2444
      2813.5634
   -839694.25548   -651277.04646  21301682.5104   21301679.7094
      -726.8444
   -993029.22448   -766463.82142  24154696.5184   24154696.1314
     -1602.5624
 -13516271.98548 -10518501.61446  21875441.0334   21875438.1354
      1303.8134
 04  9 13 22 57 15.0020000  0  7G 8G13G19G29G27G10G28
  -9087109.15749  -7066049.32447  20902138.3384   20902135.9124
       323.9534
  15985233.90447  12447709.86943  23409088.0024   23409087.8074
     -3766.8124
  -2614806.41748  -2022116.68044  23321961.6434   23321958.0454
     -1778.8124
  -1852211.09748  -1425757.10842  24448346.9944   24448346.7874
      2810.8914
   -828764.23548   -642760.16046  21303762.3304   21303760.2794
      -730.5164
   -968937.50447   -747691.14242  24159280.9864   24159280.9754
     -1609.7814
 -13535791.74848 -10533711.81346  21871726.5574   21871723.5254
      1298.7814
 04  9 13 22 57 30.0020000  0  7G 8G13G19G29G27G10G28
  -9091934.55249  -7069809.37947  20901220.4324   20901217.8504
       319.2034
  16041765.44047  12491760.33543  23419846.0574   23419846.0924
     -3770.9374
  -2588060.38648  -2001275.63344  23327050.5024   23327046.9794
     -1787.6094
  -1894351.34048  -1458593.63542  24440327.0494   24440327.8224
      2807.5474
   -817775.08148   -634197.20346  21305853.5804   21305851.2994
      -734.9534
   -944735.26647   -728832.27943  24163886.4084   24163886.8344
     -1617.5164
 -13555232.87648 -10548860.73646  21868026.9164   21868024.1934
      1293.1094
 04  9 13 22 57 45.0020000  0  7G 8G13G19G29G27G10G28
  -9096689.16849  -7073514.28647  20900315.3384   20900313.0414
       314.3754
  16098358.71947  12535858.91943  23430615.4244   23430615.4714
     -3775.2194
  -2561183.87748  -1980332.91944  23332165.3614   23332162.6434
     -1796.2664
  -1936442.07947  -1491391.55242  24432318.0724   24432318.1824
      2804.2344
   -806721.36948   -625583.93047  21307957.0494   21307954.8964
      -739.2664
   -920417.52448   -709883.42143  24168513.7914   24168514.0144
     -1625.2344
 -13574590.23548 -10563944.38846  21864343.3694   21864340.4594
      1287.5004
 04  9 13 22 58  0.0020000  0  7G 8G13G19G29G27G10G28
  -9101368.88249  -7077160.83147  20899424.7834   20899422.6194
       309.4224
  16155017.44648  12580008.51243  23441397.3854   23441396.7644
     -3779.4694
  -2534172.92647  -1959285.45844  23337305.1044   23337302.1864
     -1805.2664
  -1978478.87648  -1524147.46642  24424319.0804   24424319.6234
      2800.6724
   -795599.10648   -616917.23546  21310073.1974   21310071.2604
      -743.8124
   -895980.49947   -690841.62243  24173163.6894   24173164.2684
     -1633.1254
 -13593859.85548 -10578959.66746  21860676.2364   21860673.4754
      1281.6724
 04  9 13 22 58 15.0020000  0  7G 8G13G19G29G27G10G28
  -9105977.03849  -7080751.60247  20898547.9244   20898545.7954
       304.7344
  16211737.81947  12624206.15443  23452190.7754   23452191.0614
     -3783.5314
  -2507031.30047  -1938136.15744  23342470.1504   23342466.8574
     -1813.9224
  -2020465.09047  -1556863.90742  24416329.1044   24416329.3184
      2797.3914
   -784411.70748   -608199.80346  21312202.4714   21312199.9164
      -748.0164
   -871428.13647   -671709.95643  24177836.6044   24177836.7174
     -1640.6564
 -13613045.33948 -10593909.38946  21857025.6434   21857022.6584
      1276.1724
 04  9 13 22 58 30.0020000  0  7G 8G13G19G29G27G10G28
  -9110515.63549  -7084288.19547  20897684.7754   20897682.1274
       299.7974
  16268517.41847  12668449.90743  23462995.7834   23462995.8224
     -3787.7664
  -2479761.35147  -1916886.88944  23347659.3774   23347656.1354
     -1822.6724
  -2062402.55047  -1589542.44743  24408348.9554   24408348.6044
      2793.6884
   -773161.29948   -599433.26746  21314343.4554   21314340.9434
      -752.5784
   -846762.80447   -652490.27143  24182530.0884   24182530.3934
     -1648.5164
 -13632148.77048 -10608795.18446  21853390.4004   21853387.1354
      1270.4224
